[[[{"header":{"parameterUnit":"kt","parameterCategory":2,"dx":1,"dy":1,"la1":29.587661999999998,"la2":31.0,"lo1":-88.76705300000003,"lo2":-86.6583820000003,"nx":115,"ny":88,"refTime":"2022-10-15T06:00:00:Z","depth":0,"parameterNumber":1,"parameterNumberName":"U-component_of_WINDS"},"data":[18.1931,18.1931,18.1931,18.1931,18.1931,18.1931,18.1931,18.1931,18.1931,18.1931,18.1931,18.1931,18.1931,18.1931,18.1931,18.1931,18.1931,18.1931,18.1931,18.1931,18.1931,18.1931,18.1931,18.1931,18.1931,18.1931,18.1931,18.1931,18.1931,18.1931,18.1931,18.1931,18.1931,18.275,18.4675,18.701,18.9037,19.0594,19.2647,19.4722,19.4722,19.4722,19.4722,19.4722,19.4722,19.4722,19.4722,19.4722,19.4722,19.4722,19.4722,19.4722,19.5144,19.5707,19.62,19.6552,19.7126,19.7267,19.6985,19.6482,19.633,19.6189,19.5919,19.5285,19.5707,19.6271,19.776,19.919,20.0668,20.2136,20.2406,20.1714,20.115,20.1291,20.1009,20.1914,20.3099,20.3451,20.3733,20.3874,20.3662,20.2125,20.0105,19.8979,19.7982,19.607,19.4792,19.4722,19.4722,19.4722,19.4722,19.4722,19.4722,19.4722,19.4722,19.4722,19.4722,19.4722,19.4722,19.4722,19.4722,19.4722,19.4722,19.4722,19.4722,19.4722,19.4722,19.4722,19.4722,19.4722,19.4722,19.4722,19.4722,19.4722,19.4722,18.1931,18.1931,18.1931,18.1931,18.1931,18.1931,18.1931,18.1931,18.1931,18.1931,18.1931,18.1931,18.1931,18.1931,18.1931,18.1931,18.1931,18.1931,18.1931,18.1931,18.1931,18.1931,18.1931,18.1931,18.1931,18.1931,18.1931,18.1931,18.1931,18.1931,18.1931,18.1931,18.2002,18.2079,18.3424,18.5851,18.8778,19.0332,19.2498,19.4431,19.4722,19.4722,19.4722,19.4722,19.4722,19.4722,19.4722,19.4722,19.4722,19.4722,19.4722,19.4722,19.5003,19.5144,19.5345,19.5415,19.5989,19.5707,19.5426,19.5355,19.5285,19.5204,19.4933,19.4933,19.5274,19.62,19.7689,19.9179,20.0587,20.1714,20.1984,20.1854,20.1291,20.1009,20.0457,20.0327,20.1784,20.2958,20.3451,20.3874,20.3251,20.2406,20.0939,19.9683,19.7982,19.5789,19.4722,19.4722,19.4722,19.4722,19.4722,19.4722,19.4722,19.4722,19.4722,19.4722,19.4722,19.4722,19.4722,19.4722,19.4722,19.4722,19.4722,19.4722,19.4722,19.4722,19.4722,19.4722,19.4722,19.4722,19.4722,19.4722,19.4722,19.4722,19.4722,18.1931,18.1931,18.1931,18.1931,18.1931,18.1931,18.1931,18.1931,18.1931,18.1931,18.1931,18.1931,18.1931,18.1931,18.1931,18.1931,18.1931,18.1931,18.1931,18.1931,18.1931,18.1931,18.1931,18.1931,18.1931,18.1931,18.1931,18.1931,18.1931,18.1931,18.1931,18.1931,18.2059,18.258,18.42,18.6573,18.8902,19.008,19.3142,19.4539,19.4722,19.4722,19.4722,19.4722,19.4722,19.4722,19.4722,19.4722,19.4722,19.4722,19.4722,19.4722,19.4722,19.4722,19.4722,19.4722,19.4722,19.4722,19.4792,19.4863,19.4863,19.4933,19.4722,19.4722,19.5063,19.6189,19.7689,19.8182,19.9661,20.0528,20.088,20.1009,20.0528,20.0387,19.9975,19.9623,20.0598,20.2054,20.2958,20.3451,20.3533,20.2477,20.0657,19.9401,19.7982,19.5778,19.4863,19.4722,19.4722,19.4722,19.4722,19.4722,19.4722,19.4722,19.4722,19.4722,19.4722,19.4722,19.4722,19.4722,19.4722,19.4722,19.4722,19.4722,19.4722,19.4722,19.4722,19.4722,19.4722,19.4722,19.4722,19.4722,19.4722,19.4722,19.4722,18.2974,18.3396,18.289,18.2651,18.2665,18.2731,18.2693,18.2679,18.3198,18.366,18.3494,18.3535,18.3396,18.31,18.2974,18.242,18.2173,18.1931,18.1931,18.1931,18.1931,18.1931,18.1931,18.1931,18.1931,18.1931,18.1931,18.1931,18.1931,18.1931,18.1931,18.1931,18.1974,18.2392,18.3786,18.7,18.8865,18.9975,19.2873,19.4647,19.4722,19.4722,19.4722,19.4722,19.4722,19.4722,19.4722,19.4722,19.4722,19.4722,19.4722,19.4722,19.4722,19.4722,19.4722,19.4722,19.4722,19.4722,19.4722,19.4722,19.4722,19.4722,19.4722,19.4722,19.5215,19.6401,19.7175,19.7527,19.8112,19.8908,19.9423,19.9482,19.9412,19.9482,19.9471,19.9471,19.9553,20.0939,20.2325,20.3029,20.3733,20.2406,20.0316,19.8767,19.756,19.6352,19.5215,19.4722,19.4722,19.4722,19.4722,19.4722,19.4722,19.4722,19.4722,19.4722,19.4722,19.4722,19.4722,19.4722,19.4722,19.4722,19.4722,19.4722,19.4722,19.4722,19.4722,19.4722,19.4722,19.4722,19.4722,19.4722,19.4722,19.4722,19.4722,18.5957,18.7509,18.5693,18.4851,18.4851,18.4798,18.4918,18.5013,18.6687,18.7781,18.7535,18.7662,18.6416,18.4986,18.435,18.3496,18.2778,18.2074,18.1931,18.1931,18.1931,18.1931,18.1931,18.1931,18.1931,18.1931,18.1931,18.1931,18.1931,18.1931,18.1931,18.1931,18.1931,18.2173,18.3299,18.6416,18.8871,19.026,19.2738,19.4722,19.4722,19.4722,19.4722,19.4722,19.4722,19.4722,19.4722,19.4722,19.4722,19.4722,19.4722,19.4722,19.4722,19.4722,19.4722,19.4722,19.4722,19.4722,19.4722,19.4722,19.4722,19.4722,19.4722,19.4722,19.5204,19.626,19.6612,19.6904,19.7397,19.8123,19.8345,19.8415,19.8697,19.8908,19.9119,19.9331,19.9683,20.0728,20.1973,20.2818,20.324,20.2406,20.0387,19.9412,19.8264,19.5859,19.4722,19.4722,19.4722,19.4722,19.4722,19.4722,19.4722,19.4722,19.4722,19.4722,19.4722,19.4722,19.4722,19.4722,19.4722,19.4722,19.4722,19.4722,19.4722,19.4722,19.4722,19.4722,19.4722,19.4722,19.4722,19.4722,19.4722,19.4722,19.4722,18.6322,18.8091,18.7382,18.7048,18.7048,18.7061,18.7852,18.8728,18.848,18.833,18.833,18.8442,18.7877,18.6919,18.5812,18.4716,18.3648,18.2735,18.2016,18.2016,18.1931,18.1931,18.1931,18.1931,18.1931,18.1931,18.1931,18.1931,18.1931,18.1931,18.1931,18.1931,18.1931,18.1931,18.331,18.6194,18.8797,19.0876,19.2738,19.4311,19.4722,19.4722,19.4722,19.4722,19.4722,19.4722,19.4722,19.4722,19.4722,19.4722,19.4722,19.4722,19.4722,19.4722,19.4722,19.4722,19.4722,19.4722,19.4722,19.4722,19.4722,19.4722,19.4722,19.4722,19.5285,19.5837,19.613,19.6341,19.6834,19.7256,19.7337,19.7478,19.7912,19.8404,19.8827,19.9179,19.9942,20.0858,20.1762,20.2606,20.2536,20.1914,20.0869,20.0035,19.8486,19.6,19.4722,19.4722,19.4722,19.4722,19.4722,19.4722,19.4722,19.4722,19.4722,19.4722,19.4722,19.4722,19.4722,19.4722,19.4722,19.4722,19.4722,19.4722,19.4722,19.4722,19.4722,19.4722,19.4722,19.4722,19.4722,19.4722,19.4722,19.4722,19.4722,18.7279,18.9185,18.9222,18.9656,19.014,19.0212,19.1042,19.2168,19.0971,19.0212,19.0188,19.02,19.0068,18.9148,18.7568,18.6257,18.4972,18.3687,18.2802,18.2074,18.1931,18.1931,18.1931,18.1931,18.1931,18.1931,18.1931,18.1931,18.1931,18.1931,18.1931,18.1931,18.1931,18.2562,18.4212,18.718,18.9417,19.1603,19.3502,19.4485,19.4722,19.4722,19.4722,19.4722,19.4722,19.4722,19.4722,19.4722,19.4722,19.4722,19.4722,19.4722,19.4722,19.4722,19.4722,19.4722,19.4722,19.4722,19.4722,19.4722,19.4722,19.4722,19.4722,19.4722,19.5003,19.5415,19.5707,19.5919,19.6271,19.6904,19.7197,19.8193,19.9108,19.9742,20.0446,20.0646,20.0717,20.1632,20.2547,20.324,20.3451,20.2547,20.0105,19.9119,19.7912,19.5929,19.4722,19.4722,19.4722,19.4722,19.4722,19.4722,19.4722,19.4722,19.4722,19.4722,19.4722,19.4722,19.4722,19.4722,19.4722,19.4722,19.4722,19.4722,19.4722,19.4722,19.4722,19.4722,19.4722,19.4722,19.4722,19.4722,19.4722,19.4722,19.4722,18.9498,19.1288,19.1405,19.2521,19.4279,19.4056,19.4311,19.4517,19.4431,19.4322,19.4355,19.4012,19.2986,19.1556,19.1102,18.8988,18.61,18.5321,18.3924,18.2721,18.2548,18.2045,18.2045,18.1931,18.1931,18.1931,18.1931,18.1931,18.1931,18.1931,18.1931,18.1931,18.2264,18.3563,18.5587,18.833,19.0594,19.2214,19.3859,19.456,19.4722,19.4722,19.4722,19.4722,19.4722,19.4722,19.4722,19.4722,19.4722,19.4722,19.4722,19.4722,19.4722,19.4722,19.4722,19.4722,19.4722,19.4722,19.4722,19.4722,19.4722,19.4722,19.4722,19.4722,19.4933,19.5204,19.5345,19.5556,19.613,19.6693,19.6975,19.8112,19.9401,20.0728,20.1562,20.1773,20.1702,20.2336,20.3251,20.3603,20.3803,20.2477,20.0035,19.8193,19.7045,19.5485,19.4722,19.4722,19.4722,19.4722,19.4722,19.4722,19.4722,19.4722,19.4722,19.4722,19.4722,19.4722,19.4722,19.4722,19.4722,19.4722,19.4722,19.4722,19.4722,19.4722,19.4722,19.4722,19.4722,19.4722,19.4722,19.4722,19.4722,19.4722,19.4722,19.0415,19.3513,19.3612,19.4089,19.4657,19.4722,19.4722,19.4722,19.4722,19.4722,19.4722,19.4781,19.4187,19.3391,19.2248,18.9987,18.9332,18.7928,18.6075,18.4186,18.3965,18.309,18.2321,18.1931,18.1931,18.1931,18.1931,18.1931,18.1931,18.1931,18.1931,18.2264,18.3313,18.4784,18.6868,18.8852,19.0902,19.3335,19.3925,19.4722,19.4722,19.4722,19.4722,19.4722,19.4722,19.4722,19.4722,19.4722,19.4722,19.4722,19.4722,19.4722,19.4722,19.4722,19.4722,19.4722,19.4722,19.4722,19.4722,19.4722,19.4722,19.4722,19.4722,19.4722,19.4863,19.5496,19.5415,19.5485,19.6319,19.6823,19.6904,19.5778,19.7619,20.0728,20.1502,20.2066,20.2206,20.297,20.3744,20.3744,20.3662,20.1925,19.9964,19.8182,19.6401,19.5485,19.4722,19.4722,19.4722,19.4722,19.4722,19.4722,19.4722,19.4722,19.4722,19.4722,19.4722,19.4722,19.4722,19.4722,19.4722,19.4722,19.4722,19.4722,19.4722,19.4722,19.4722,19.4722,19.4722,19.4722,19.4722,19.4722,19.4722,19.4722,19.4722,19.1043,19.3679,19.4463,19.4722,19.4722,19.4722,19.4722,19.4722,19.4722,19.4722,19.4722,19.4722,19.4722,19.4431,19.3246,19.2098,19.1242,18.9644,18.8255,18.6205,18.516,18.4104,18.3146,18.2519,18.1931,18.1931,18.1931,18.1931,18.1931,18.1931,18.1931,18.2116,18.3114,18.5614,18.7857,19.0403,19.1451,19.4154,19.4722,19.4722,19.4722,19.4722,19.4722,19.4722,19.4722,19.4722,19.4722,19.4722,19.4722,19.4722,19.4722,19.4722,19.4722,19.4722,19.4722,19.4722,19.4722,19.4722,19.4722,19.4722,19.4722,19.4722,19.4722,19.4722,19.4792,19.5848,19.5637,19.5355,19.626,19.6893,19.7327,19.6411,19.7327,20.0305,20.1361,20.1925,20.277,20.3533,20.3874,20.3874,20.3744,20.2206,19.9753,19.763,19.5989,19.4933,19.4792,19.4722,19.4722,19.4722,19.4722,19.4722,19.4722,19.4722,19.4722,19.4722,19.4722,19.4722,19.4722,19.4722,19.4722,19.4722,19.4722,19.4722,19.4722,19.4722,19.4722,19.4722,19.4722,19.4722,19.4722,19.4722,19.4722,19.4722,19.4722,19.144,19.1788,19.3936,19.4722,19.4722,19.4722,19.4722,19.4722,19.4722,19.4722,19.4722,19.4722,19.4722,19.4657,19.4496,19.3424,19.2179,19.1672,19.0415,18.8292,18.6687,18.5387,18.4227,18.2974,18.1931,18.1931,18.1931,18.1931,18.1931,18.1931,18.1931,18.2131,18.2505,18.4184,18.8255,19.2339,19.4463,19.4771,19.4792,19.4722,19.4722,19.4722,19.4722,19.4722,19.4722,19.4722,19.4722,19.4722,19.4722,19.4722,19.4722,19.4722,19.4722,19.4722,19.4722,19.4722,19.4722,19.4722,19.4722,19.4722,19.4722,19.4722,19.4722,19.4722,19.4792,19.4863,19.4863,19.5003,19.5908,19.6693,19.7397,19.8041,19.9238,20.0717,20.128,20.1914,20.304,20.3874,20.3874,20.3874,20.3603,20.2758,19.9813,19.7348,19.5848,19.4933,19.4792,19.4722,19.4722,19.4722,19.4722,19.4722,19.4722,19.4722,19.4722,19.4722,19.4722,19.4722,19.4722,19.4722,19.4722,19.4722,19.4722,19.4722,19.4722,19.4722,19.4722,19.4722,19.4722,19.4722,19.4722,19.4722,19.4722,19.4722,19.4722,19.1053,19.3804,19.4496,19.4722,19.4722,19.4722,19.4722,19.4722,19.4722,19.4722,19.4722,19.4722,19.4722,19.4722,19.4722,19.4121,19.3826,19.3446,19.2259,19.0487,18.8342,18.6557,18.4838,18.3313,18.2273,18.1931,18.1931,18.1931,18.1931,18.1931,18.2074,18.2102,18.2159,18.3715,18.6868,19.0083,19.3257,19.4398,19.4722,19.4722,19.4722,19.4722,19.4722,19.4722,19.4722,19.4722,19.4722,19.4722,19.4722,19.4722,19.4722,19.4722,19.4722,19.4722,19.4722,19.4722,19.4722,19.4722,19.4722,19.4722,19.4722,19.4722,19.4722,19.4722,19.4722,19.4792,19.4722,19.4863,19.5074,19.5426,19.5567,19.6904,19.8383,19.9802,20.0435,20.1562,20.2688,20.3451,20.3522,20.3874,20.331,20.2758,20.0235,19.8486,19.6774,19.5215,19.5003,19.4722,19.4722,19.4722,19.4722,19.4722,19.4722,19.4722,19.4722,19.4722,19.4722,19.4722,19.4722,19.4722,19.4722,19.4722,19.4722,19.4722,19.4722,19.4722,19.4722,19.4722,19.4722,19.4722,19.4722,19.4722,19.4722,19.4722,19.4722,19.1066,19.3391,19.2636,19.2772,19.3491,19.3491,19.3979,19.4706,19.4722,19.4722,19.4722,19.4722,19.4722,19.4722,19.4722,19.4722,19.4722,19.4722,19.3936,19.2339,19.0701,18.8939,18.6984,18.5227,18.3142,18.3072,18.2221,18.1931,18.1945,18.1931,18.2245,18.3002,18.3327,18.4824,18.6677,18.9661,19.2168,19.3793,19.4722,19.4722,19.4722,19.4722,19.4722,19.4722,19.4722,19.4722,19.4722,19.4722,19.4722,19.4722,19.4722,19.4722,19.4722,19.4722,19.4722,19.4722,19.4722,19.4722,19.4722,19.4722,19.4722,19.4722,19.4722,19.4722,19.4722,19.4722,19.4722,19.4722,19.4863,19.5003,19.4863,19.5707,19.6975,19.8242,19.952,20.0787,20.1773,20.2395,20.2818,20.3733,20.3381,20.2536,20.1009,19.9401,19.7348,19.5426,19.5074,19.4722,19.4722,19.4722,19.4722,19.4722,19.4722,19.4722,19.4722,19.4722,19.4722,19.4722,19.4722,19.4722,19.4722,19.4722,19.4722,19.4722,19.4722,19.4722,19.4722,19.4722,19.4722,19.4722,19.4722,19.4722,19.4722,19.4722,19.4722,19.1078,19.109,18.9656,19.0296,19.2007,19.1707,19.2975,19.469,19.4722,19.4722,19.4722,19.4722,19.4722,19.4722,19.4722,19.4722,19.4722,19.4722,19.456,19.3881,19.2659,19.1125,18.96,18.7279,18.5174,18.4553,18.3494,18.2477,18.2031,18.225,18.3743,18.4972,18.5267,18.7902,18.9693,19.0032,19.1521,19.399,19.4722,19.4722,19.4722,19.4722,19.4722,19.4722,19.4722,19.4722,19.4722,19.4722,19.4722,19.4722,19.4722,19.4722,19.437,19.457,19.4451,19.444,19.444,19.4722,19.4722,19.4722,19.4722,19.4722,19.4722,19.4722,19.4722,19.4722,19.4722,19.4722,19.4722,19.4722,19.4792,19.5074,19.626,19.7608,19.9098,20.0365,20.148,20.1973,20.2747,20.3592,20.311,20.1843,20.0376,19.9038,19.7126,19.5355,19.4792,19.4722,19.4722,19.4722,19.4722,19.4722,19.4722,19.4722,19.4722,19.4722,19.4722,19.4722,19.4722,19.4722,19.4722,19.4722,19.4722,19.4722,19.4722,19.4722,19.4722,19.4722,19.4722,19.4722,19.4722,19.4722,19.4722,19.4722,19.4722,18.7636,18.9437,19.2065,19.3457,19.3947,19.3957,19.4198,19.4722,19.4722,19.4722,19.4722,19.4722,19.4722,19.4722,19.4722,19.4722,19.4722,19.4722,19.4722,19.4023,19.2772,19.1695,19.0582,18.8963,18.6557,18.4986,18.402,18.3285,18.2904,18.3618,18.5347,18.742,18.6984,18.8865,19.0642,19.0866,19.1603,19.4474,19.4722,19.4722,19.4722,19.4722,19.4722,19.4722,19.4722,19.4722,19.4722,19.4722,19.4722,19.4722,19.4722,19.4159,19.3677,19.4088,19.4169,19.3817,19.4381,19.4722,19.4722,19.4722,19.4722,19.4722,19.4722,19.4722,19.4722,19.4722,19.4722,19.4722,19.4722,19.4722,19.5003,19.5848,19.6401,19.7316,19.8594,20.0213,20.155,20.2184,20.2958,20.331,20.2829,20.1432,20.0094,19.8675,19.6985,19.5215,19.4722,19.4722,19.4722,19.4722,19.4722,19.4722,19.4722,19.4722,19.4722,19.4722,19.4722,19.4722,19.4722,19.4722,19.4722,19.4722,19.4722,19.4722,19.4722,19.4722,19.4722,19.4722,19.4722,19.4722,19.4722,19.4722,19.4722,19.4722,19.4722,18.5812,18.7228,19.0546,19.2523,19.3254,19.3357,19.387,19.4593,19.4722,19.4722,19.4722,19.4722,19.4722,19.4722,19.4722,19.4722,19.4722,19.4722,19.4722,19.4322,19.359,19.243,19.1241,18.9307,18.719,18.5307,18.4184,18.3507,18.4363,18.5414,18.6919,18.8029,18.7547,18.8442,19.1125,19.057,19.2042,19.3903,19.469,19.4711,19.4722,19.4722,19.4722,19.4722,19.4722,19.4722,19.4722,19.4722,19.4722,19.4651,19.3958,19.3536,19.3677,19.3536,19.3877,19.3254,19.431,19.4733,19.4722,19.4722,19.4722,19.4722,19.4722,19.4722,19.4722,19.4722,19.4722,19.4722,19.4722,19.4722,19.5003,19.6189,19.6471,19.6823,19.7597,19.9087,20.0376,20.1632,20.2747,20.2747,20.2547,20.115,19.9753,19.7841,19.5707,19.4722,19.4722,19.4722,19.4722,19.4722,19.4722,19.4722,19.4722,19.4722,19.4722,19.4722,19.4722,19.4722,19.4722,19.4722,19.4722,19.4722,19.4722,19.4722,19.4722,19.4722,19.4722,19.4722,19.4722,19.4722,19.4722,19.4722,19.4722,19.4722,19.4722,18.5454,18.5706,18.8192,19.0152,19.188,19.2145,19.3087,19.4647,19.4722,19.4722,19.4722,19.4722,19.4722,19.4722,19.4722,19.4722,19.4722,19.4722,19.4722,19.4604,19.399,19.2806,19.1382,18.932,18.719,18.5254,18.3881,18.3867,18.4743,18.6453,18.7801,18.8003,18.7164,18.7241,19.0356,18.9442,19.0499,19.3568,19.4311,19.4442,19.4739,19.4722,19.4722,19.4722,19.4722,19.4722,19.4722,19.4722,19.4511,19.4299,19.3113,19.3043,19.3536,19.2761,19.3395,19.424,19.4722,19.4722,19.4722,19.4722,19.4722,19.4722,19.4722,19.4722,19.4722,19.4722,19.4722,19.4722,19.4722,19.4722,19.5003,19.5978,19.5908,19.6049,19.6682,19.8112,19.9401,20.0928,20.2266,20.2406,20.1714,20.0528,19.9412,19.6926,19.4722,19.4722,19.4722,19.4722,19.4722,19.4722,19.4722,19.4722,19.4722,19.4722,19.4722,19.4722,19.4722,19.4722,19.4722,19.4722,19.4722,19.4722,19.4722,19.4722,19.4722,19.4722,19.4722,19.4722,19.4722,19.4722,19.4722,19.4722,19.4722,19.4722,19.4722,18.7687,18.8016,19.1892,19.369,19.4056,19.4078,19.4366,19.4739,19.4722,19.4722,19.4722,19.4722,19.4722,19.4722,19.4722,19.4722,19.4722,19.4722,19.4722,19.4485,19.3357,19.2191,19.0961,18.9307,18.7266,18.568,18.5719,18.6375,18.6102,18.6283,18.7023,18.7573,18.8054,18.8405,18.879,18.8554,18.9947,19.1451,19.2202,19.3154,19.4355,19.4722,19.4722,19.4722,19.4722,19.4722,19.4722,19.4722,19.4229,19.3465,19.2631,19.1635,19.0026,19.1283,19.3113,19.4451,19.4722,19.4722,19.4722,19.4722,19.4722,19.4722,19.4722,19.4722,19.4722,19.4722,19.4722,19.4722,19.4722,19.4722,19.4792,19.5204,19.5204,19.5215,19.6341,19.7738,19.9238,20.0376,20.1643,20.1502,20.0668,19.9835,19.8908,19.6785,19.4933,19.4722,19.4722,19.4722,19.4722,19.4722,19.4722,19.4722,19.4722,19.4722,19.4722,19.4722,19.4722,19.4722,19.4722,19.4722,19.4722,19.4722,19.4722,19.4722,19.4722,19.4722,19.4722,19.4722,19.4722,19.4722,19.4722,19.4722,19.4722,19.4722,19.4722,18.833,18.8834,19.3033,19.4722,19.4722,19.4722,19.4722,19.4722,19.4722,19.4722,19.4722,19.4722,19.4722,19.4722,19.4722,19.4722,19.4722,19.4722,19.4722,19.4614,19.359,19.2693,19.1219,19.0511,18.8054,18.67,18.8242,18.9148,18.8267,18.8003,18.8355,18.8342,18.7164,18.6764,18.6894,18.7864,18.9503,19.1382,19.2612,19.3723,19.4625,19.4722,19.4722,19.4722,19.4722,19.4722,19.4722,19.4722,19.4299,19.3606,19.2832,19.2047,19.1776,19.2198,19.2821,19.3536,19.4299,19.4722,19.4722,19.4722,19.4722,19.4722,19.4722,19.4722,19.4722,19.4722,19.4722,19.4722,19.4722,19.4722,19.4863,19.6352,19.6411,19.6411,19.7337,19.8897,20.0024,20.0376,20.0798,20.0939,20.0105,19.919,19.8345,19.6926,19.5285,19.4722,19.4722,19.4722,19.4722,19.4722,19.4722,19.4722,19.4722,19.4722,19.4722,19.4722,19.4722,19.4722,19.4722,19.4722,19.4722,19.4722,19.4722,19.4722,19.4722,19.4722,19.4722,19.4722,19.4722,19.4722,19.4722,19.4722,19.4722,19.4722,19.4722,18.8921,18.9253,19.3168,19.4722,19.4722,19.4722,19.4722,19.4722,19.4722,19.4722,19.4722,19.4722,19.4722,19.4722,19.4722,19.4722,19.4722,19.4722,19.4722,19.4679,19.387,19.3031,19.1475,19.0546,18.9123,18.7789,18.9234,19.0772,19.0499,19.089,18.9295,18.8154,18.6803,18.6021,18.6622,18.7382,18.9356,19.1336,19.2702,19.3925,19.455,19.4722,19.4722,19.4722,19.4722,19.4722,19.4722,19.4722,19.4651,19.4299,19.3103,19.3173,19.3254,19.2409,19.2057,19.2268,19.2973,19.3666,19.4018,19.4299,19.4451,19.4722,19.4722,19.4722,19.4722,19.4722,19.4722,19.4722,19.4722,19.4933,19.5144,19.6985,19.8041,19.8112,19.8404,19.9249,20.0316,20.0327,19.9905,20.0517,19.9601,19.8545,19.7478,19.62,19.5144,19.4722,19.4722,19.4722,19.4722,19.4722,19.4722,19.4722,19.4722,19.4722,19.4722,19.4722,19.4722,19.4722,19.4722,19.4722,19.4722,19.4722,19.4722,19.4722,19.4722,19.4722,19.4722,19.4722,19.4722,19.4722,19.4722,19.4722,19.4722,19.4722,19.4722,19.0984,19.1253,19.3749,19.4722,19.4722,19.4722,19.4722,19.4722,19.4722,19.4722,19.4722,19.4722,19.4722,19.4722,19.4722,19.4722,19.4722,19.4722,19.4722,19.455,19.338,19.243,19.1684,19.0653,18.9766,19.0642,19.1451,19.0701,18.9826,18.8815,18.9551,18.8554,18.789,18.7687,18.7751,18.8367,18.9503,19.123,19.2294,19.3176,19.4485,19.4722,19.4722,19.4722,19.4722,19.4722,19.4722,19.4651,19.4229,19.2891,19.2621,19.2621,19.2409,19.1424,19.0508,19.066,19.1353,19.2339,19.3173,19.3243,19.3595,19.4722,19.4722,19.4722,19.4722,19.4722,19.4722,19.4722,19.4863,19.5144,19.6552,19.7749,19.8264,19.8627,19.7971,19.8334,19.926,19.9623,19.9835,20.0235,19.8886,19.7689,19.6693,19.5767,19.5215,19.4722,19.4722,19.4722,19.4722,19.4722,19.4722,19.4722,19.4722,19.4722,19.4722,19.4722,19.4722,19.4722,19.4722,19.4722,19.4722,19.4722,19.4722,19.4722,19.4722,19.4722,19.4722,19.4722,19.4722,19.4722,19.4722,19.4722,19.4722,19.4722,19.4722,19.1498,19.1707,19.387,19.4722,19.4722,19.4722,19.4722,19.4722,19.4722,19.4722,19.4722,19.4722,19.4722,19.4722,19.4722,19.4722,19.4722,19.4722,19.4722,19.4485,19.38,19.3165,19.2885,19.2432,19.2145,19.2975,19.3154,19.2806,19.2042,19.1869,19.0972,19.0083,19.0044,18.9632,18.853,18.9571,19.057,19.1533,19.2532,19.3623,19.456,19.4722,19.4722,19.4722,19.4722,19.4722,19.4722,19.4722,19.437,19.3677,19.2902,19.2761,19.3243,19.2268,19.1916,19.2339,19.2539,19.3032,19.3384,19.3736,19.3807,19.4722,19.4722,19.4722,19.4722,19.4722,19.4722,19.4722,19.4863,19.5003,19.5848,19.7478,19.9027,19.9612,19.9461,20.0224,20.1139,20.0316,19.9342,19.7901,19.7608,19.6904,19.6059,19.5285,19.4792,19.4722,19.4722,19.4722,19.4722,19.4722,19.4722,19.4722,19.4722,19.4722,19.4722,19.4722,19.4722,19.4722,19.4722,19.4722,19.4722,19.4722,19.4722,19.4722,19.4722,19.4722,19.4722,19.4722,19.4722,19.4722,19.4722,19.4722,19.4722,19.4722,19.4722,19.1267,19.184,19.3905,19.4722,19.4722,19.4722,19.4722,19.4722,19.4722,19.4722,19.4722,19.4722,19.4722,19.4722,19.4722,19.4722,19.4722,19.4722,19.4722,19.4722,19.4722,19.4781,19.4706,19.4496,19.4604,19.4582,19.4749,19.4636,19.4571,19.41,19.3767,19.2328,19.2122,19.1393,19.032,19.1603,19.2214,19.2464,19.3826,19.4604,19.4722,19.4722,19.4722,19.4722,19.4722,19.4722,19.4722,19.4722,19.4722,19.437,19.3384,19.2621,19.2832,19.1927,19.1223,19.1635,19.2057,19.255,19.3043,19.2761,19.3254,19.3325,19.3384,19.3877,19.4088,19.4159,19.437,19.4722,19.4722,19.4792,19.5296,19.8675,20.0154,20.0305,20.0798,20.1702,20.2195,20.0446,19.8041,19.6482,19.62,19.613,19.5003,19.4792,19.4792,19.4792,19.4722,19.4722,19.4722,19.4722,19.4722,19.4722,19.4722,19.4722,19.4722,19.4722,19.4722,19.4722,19.4722,19.4722,19.4722,19.4722,19.4722,19.4722,19.4722,19.4722,19.4722,19.4722,19.4722,19.4722,19.4722,19.4722,19.4722,19.4722,19.4722,19.0668,19.2484,19.4084,19.4722,19.4722,19.4722,19.4722,19.4722,19.4722,19.4722,19.4722,19.4722,19.4722,19.4722,19.4722,19.4722,19.4651,19.4722,19.4722,19.4581,19.4722,19.444,19.437,19.4299,19.4511,19.4592,19.4722,19.4722,19.4722,19.4722,19.4517,19.4165,19.4154,19.4078,19.3568,19.3806,19.4387,19.4079,19.4371,19.4419,19.4511,19.4651,19.4722,19.4722,19.4722,19.4722,19.4722,19.4722,19.4581,19.4722,19.3325,19.1846,19.0579,18.9181,18.8216,18.7684,18.7986,18.8268,18.8599,18.9557,18.9494,19.0825,19.1025,19.1153,19.2434,19.2786,19.3258,19.4455,19.4733,19.4722,19.5285,19.7489,19.9461,20.0576,20.115,20.095,19.9964,19.8393,19.7245,19.6904,19.5567,19.5144,19.4792,19.4722,19.4722,19.4722,19.4722,19.4722,19.4722,19.4722,19.4722,19.4722,19.4722,19.4722,19.4722,19.4722,19.4722,19.4722,19.4722,19.4722,19.4722,19.4722,19.4722,19.4722,19.4722,19.4722,19.4722,19.4722,19.4722,19.4722,19.4722,19.4722,19.4722,19.4722,19.4722,19.0321,19.1212,19.2761,19.3395,19.3525,19.4451,19.4722,19.4722,19.4722,19.4722,19.4722,19.4722,19.4722,19.4722,19.4722,19.4299,19.3677,19.437,19.424,19.3747,19.4299,19.3666,19.2621,19.3103,19.3465,19.3536,19.4299,19.4651,19.4722,19.4722,19.4722,19.4722,19.4722,19.4722,19.4641,19.3947,19.3374,19.3455,19.3455,19.3384,19.3525,19.4299,19.4651,19.4722,19.4722,19.4722,19.4722,19.4722,19.3807,19.2128,19.066,18.9885,18.9885,18.8618,18.8038,18.8637,18.8496,18.876,18.9619,18.9617,18.9889,19.0537,19.0574,19.0958,19.1506,19.1573,19.2083,19.3452,19.3452,19.4402,19.5637,19.6352,19.7408,19.8886,19.9813,19.9683,19.8253,19.7359,19.6763,19.5908,19.5215,19.4722,19.4722,19.4722,19.4722,19.4803,19.4754,19.4722,19.4722,19.4722,19.4722,19.4722,19.4722,19.4722,19.4722,19.4722,19.4722,19.4733,19.4733,19.4722,19.4722,19.4722,19.4722,19.4722,19.4722,19.4722,19.4722,19.4722,19.4722,19.4722,19.4722,19.4722,19.4722,19.4722,19.4722,18.9253,19.0297,19.1776,19.2469,19.2621,19.3677,19.3947,19.3525,19.3455,19.3325,19.3465,19.3525,19.3314,19.3465,19.3455,19.2962,19.2268,19.2973,19.2832,19.2128,19.3113,19.2057,19.0801,19.1353,19.1846,19.2057,19.3243,19.4169,19.4159,19.4511,19.4722,19.4722,19.4722,19.4581,19.4088,19.3043,19.2339,19.1916,19.1846,19.1987,19.255,19.3606,19.4289,19.4651,19.4722,19.4722,19.4722,19.444,19.2832,19.0237,18.898,18.8829,18.9252,18.8417,18.8038,18.8616,18.8981,18.9275,18.9407,18.9316,18.9448,18.9872,18.9327,18.9902,19.0578,19.0367,19.1084,19.2194,19.2835,19.3713,19.5277,19.5408,19.5826,19.6828,19.6925,19.6722,19.6185,19.5839,19.5416,19.4651,19.4048,19.4009,19.4129,19.4348,19.4383,19.4773,19.4829,19.4722,19.4722,19.4722,19.4722,19.4722,19.4814,19.4803,19.4803,19.4803,19.4786,19.4829,19.4887,19.495,19.4989,19.4921,19.4803,19.4814,19.4846,19.4803,19.4792,19.4765,19.4722,19.4722,19.4722,19.4722,19.4722,19.4722,19.4722,18.6979,19.0174,19.1716,19.2188,19.2198,19.248,19.1846,19.0649,19.0589,19.073,19.067,19.079,19.066,19.0508,19.0871,19.066,19.0308,19.066,19.0589,19.0237,19.0167,19.0167,18.9604,18.9815,19.0026,19.0438,19.1846,19.255,19.2621,19.3888,19.4722,19.4651,19.4651,19.4159,19.2962,19.255,19.1776,19.066,19.0449,19.1223,19.2409,19.268,19.3254,19.457,19.4511,19.437,19.4088,19.3032,19.1635,19.0297,18.9604,18.878,18.8146,18.7843,18.7091,18.6349,18.5844,18.6218,18.6077,18.6803,18.6902,18.7092,18.7361,18.7398,18.8924,18.9188,18.9737,19.1276,19.238,19.3188,19.3535,19.4169,19.5402,19.6335,19.4352,19.3259,19.3524,19.2643,19.2764,19.3159,19.2471,19.1975,19.3421,19.3427,19.3999,19.4671,19.5003,19.4957,19.4904,19.4957,19.4797,19.4906,19.503,19.5019,19.5149,19.5132,19.5159,19.5155,19.5236,19.5276,19.5354,19.5123,19.4965,19.4948,19.491,19.4835,19.4824,19.4899,19.485,19.4818,19.4775,19.4803,19.4722,19.4722,19.4722,18.5925,18.734,18.8829,18.9463,18.9614,19.0589,19.066,19.0167,19.0107,19.0107,19.0107,19.0096,19.0107,19.0107,19.0107,18.9614,18.8759,18.9674,18.9051,18.7361,18.715,18.722,18.715,18.7139,18.7643,18.8759,19.0237,19.0941,19.1072,19.248,19.3314,19.3525,19.4299,19.3947,19.261,19.2399,19.1645,19.0519,19.1012,19.1857,19.2339,19.2469,19.2761,19.3032,19.2339,19.1906,19.1716,19.0308,18.9252,18.8618,18.7653,18.7082,18.6742,18.6712,18.6671,18.6584,18.668,18.6758,18.701,18.6875,18.6981,18.7174,18.7174,18.7507,18.8044,18.8075,18.8699,18.9899,19.0645,19.1044,19.1824,19.2552,19.2915,19.3377,19.1925,19.1631,19.1863,19.159,19.1671,19.1772,19.1549,19.1661,19.2289,19.2683,19.3694,19.424,19.4966,19.5508,19.5508,19.5406,19.5529,19.5488,19.5282,19.5169,19.5386,19.543,19.5496,19.5283,19.5186,19.5003,19.502,19.4724,19.4594,19.4548,19.4558,19.4467,19.4887,19.4859,19.4989,19.4957,19.4936,19.484,19.4722,19.4722,19.4722,18.5742,18.6315,18.7361,18.7773,18.7924,18.89,18.9051,18.8699,18.8628,18.8618,18.8688,18.8618,18.8618,18.8628,18.8628,18.8065,18.722,18.7995,18.7512,18.5812,18.553,18.553,18.553,18.546,18.6023,18.715,18.8618,18.9403,18.9685,19.0931,19.1705,19.1846,19.2751,19.2469,19.0931,19.0941,19.0237,18.897,18.9744,19.0519,19.0941,19.0941,19.1212,19.1494,19.066,18.9533,18.8699,18.7632,18.7079,18.7079,18.6033,18.5593,18.5946,18.6135,18.6481,18.7068,18.7155,18.7299,18.749,18.7404,18.7442,18.7712,18.7632,18.7688,18.7857,18.775,18.8116,18.8913,18.9351,18.9657,19.0633,19.1161,19.0653,18.8986,18.928,18.9329,18.9429,19.0323,19.0852,19.0933,19.0497,19.0497,19.1004,19.1475,19.2348,19.3047,19.3767,19.4233,19.4314,19.4051,19.4485,19.5135,19.5259,19.5042,19.5461,19.5702,19.5063,19.4424,19.4104,19.3807,19.3858,19.3836,19.3857,19.3816,19.3948,19.4158,19.4653,19.4908,19.5067,19.5095,19.4799,19.4682,19.4765,19.4722,19.4722,18.6174,18.722,18.7713,18.7361,18.7351,18.7491,18.6868,18.5963,18.5752,18.5963,18.6094,18.5742,18.5953,18.5752,18.6033,18.5541,18.5319,18.553,18.54,18.5048,18.5178,18.5249,18.5249,18.5319,18.5611,18.5742,18.7079,18.7783,18.7854,18.9322,19.0096,19.0167,19.0378,18.9956,18.7984,18.8347,18.7431,18.6446,18.6516,18.6928,18.7643,18.8196,18.8829,18.9956,18.9885,18.8477,18.5812,18.5671,18.5611,18.546,18.5339,18.5613,18.5642,18.5978,18.6425,18.6401,18.6494,18.6535,18.6562,18.6857,18.6944,18.7314,18.7664,18.7681,18.7647,18.769,18.7662,18.7867,18.8685,18.966,18.9529,19.0324,18.925,18.4781,18.5296,18.6053,18.6394,18.8403,19.0225,18.9721,18.8666,18.8689,18.9693,19.0119,19.0599,19.1588,19.2101,19.2125,19.2256,19.2274,19.2326,19.3223,19.3885,19.4293,19.5133,19.5773,19.4492,19.3411,19.3058,19.2963,19.314,19.3126,19.3217,19.3098,19.3159,19.3307,19.3757,19.4088,19.4379,19.4333,19.445,19.4182,19.3935,19.3779,19.4039,18.2553,18.2965,18.3036,18.3599,18.4514,18.4655,18.4957,18.546,18.546,18.546,18.546,18.546,18.546,18.546,18.546,18.4394,18.2483,18.3398,18.3327,18.2412,18.3388,18.387,18.4021,18.4967,18.546,18.5541,18.5953,18.6174,18.6385,18.7713,18.8477,18.8618,18.9604,18.9312,18.8206,18.8829,18.8558,18.7583,18.8075,18.8759,18.9111,18.8347,18.8065,18.8276,18.7491,18.6385,18.553,18.546,18.5037,18.4062,18.4082,18.3869,18.2997,18.3487,18.3981,18.4305,18.4414,18.4414,18.4441,18.4544,18.5126,18.608,18.6307,18.6353,18.6424,18.6424,18.5872,18.5168,18.5382,18.5568,18.5501,18.582,18.5386,18.3989,18.3741,18.4008,18.416,18.5034,18.5596,18.5748,18.531,18.5667,18.68,18.7891,18.9099,19.0677,19.1711,19.2165,19.2213,19.2222,19.2454,19.2827,19.2889,19.3213,19.3313,19.3454,19.2624,19.2412,19.218,19.2584,19.2782,19.267,19.2566,19.2399,19.2394,19.247,19.265,19.295,19.2944,19.2875,19.3007,19.3115,19.2744,19.2532,19.2623,18.0773,18.0773,18.0773,18.1336,18.2251,18.2241,18.2915,18.3901,18.3911,18.4062,18.4192,18.4212,18.4122,18.3992,18.4132,18.2993,18.1223,18.1978,18.1908,18.1213,18.1988,18.2472,18.2542,18.3488,18.3931,18.379,18.376,18.4042,18.4675,18.558,18.6365,18.7009,18.7995,18.7984,18.7301,18.7924,18.7995,18.715,18.7864,18.8407,18.8216,18.7431,18.6375,18.5309,18.4263,18.377,18.377,18.377,18.3327,18.2322,18.265,18.2452,18.1737,18.2206,18.2748,18.3249,18.3312,18.3312,18.3312,18.3312,18.375,18.4687,18.4802,18.4793,18.4783,18.4793,18.4436,18.3589,18.3312,18.2242,18.1386,18.0735,18.0949,18.1386,18.1609,18.1743,18.2323,18.2965,18.3312,18.3312,18.3312,18.3669,18.482,18.5667,18.6666,18.7737,18.9145,18.974,19.0101,19.0608,19.1006,19.1589,19.1794,19.1634,19.1195,19.1024,19.1009,19.1014,19.1052,19.1042,19.0818,19.0539,19.0615,19.0366,19.0298,19.0519,19.1336,19.1578,19.1699,19.1658,19.1854,19.1825,19.1255,19.1729,19.1586,18.0562,18.0501,18.0491,18.0521,18.0752,18.0712,18.1,18.1706,18.1555,18.1688,18.2129,18.2086,18.1711,18.1289,18.1759,18.1579,18.117,18.1212,18.1141,18.0929,18.1141,18.1263,18.1272,18.1314,18.1279,18.1375,18.1356,18.1789,18.3006,18.3106,18.381,18.5108,18.5188,18.5249,18.5118,18.5178,18.5259,18.5037,18.5178,18.5259,18.5188,18.5188,18.376,18.1487,18.0843,18.0984,18.0914,18.0843,18.0793,18.0732,18.1077,18.1425,18.1634,18.1968,18.2367,18.2839,18.2956,18.2965,18.2884,18.2813,18.2956,18.317,18.325,18.3179,18.3232,18.3241,18.2947,18.2813,18.218,18.0449,17.6873,17.6231,17.673,17.8032,17.8318,17.9254,18.0654,18.1885,18.2956,18.2884,18.267,18.2599,18.2893,18.317,18.3464,18.4026,18.4793,18.5782,18.6229,18.7166,18.841,18.95,18.9992,18.9721,18.8465,18.8726,18.8512,18.8612,18.9058,18.8388,18.8093,18.8022,18.8155,18.8264,18.8596,18.9126,18.983,19.0163,19.0215,19.0394,19.059,19.069,19.0301,19.0819,19.0738,17.7404,17.7404,17.7414,17.8214,17.9493,17.9773,18.0601,18.1679,18.1759,18.1897,18.1912,18.1912,18.0821,17.9163,18.0127,17.9817,17.8639,17.9583,17.9512,17.8601,17.9592,18.0069,18.0182,18.0914,18.1482,18.155,18.1,18.1153,18.1733,18.1566,18.1618,18.198,18.206,18.206,18.206,18.205,18.206,18.2121,18.206,18.206,18.205,18.206,18.1628,18.0924,18.0773,18.0773,18.0773,18.0773,18.0419,17.9595,17.993,17.9772,17.9046,17.9376,17.9629,17.9727,17.9745,17.9754,17.9745,17.9745,18.0316,18.1448,18.1591,18.1591,18.1591,18.1591,18.0592,17.8514,17.6998,17.5731,17.3091,17.2743,17.3377,17.4795,17.5072,17.6231,17.8666,17.9459,17.9736,17.9745,17.9816,17.9754,17.9896,18.0744,18.1814,18.267,18.3455,18.3946,18.4107,18.5206,18.6385,18.6864,18.7932,18.8223,18.8146,18.7737,18.8022,18.8022,18.7737,18.7737,18.8022,18.7941,18.7941,18.7538,18.7861,18.8304,18.8761,18.8709,18.8691,18.88,18.8842,18.8889,18.9184,18.8985,18.8944,17.4226,17.4246,17.5062,17.6496,17.8058,17.7869,17.8703,18.0129,17.9623,17.9796,18.021,17.8443,17.6802,17.5397,17.6875,17.6891,17.5774,17.7219,17.7442,17.6732,17.817,17.887,17.8994,17.9602,17.9942,17.9961,17.9561,17.9358,17.9529,17.988,18.0308,18.0723,18.0773,18.0773,18.0773,18.0773,18.0773,18.0773,18.0773,18.0139,17.9093,17.8882,17.8882,17.8882,17.8882,17.8882,17.8902,17.9049,17.8761,17.8174,17.8643,17.8271,17.7015,17.724,17.7238,17.6588,17.6507,17.6507,17.6507,17.6516,17.7016,17.7934,17.7997,17.7997,17.7997,17.8006,17.7016,17.4661,17.401,17.3146,17.1807,17.1459,17.2021,17.336,17.3146,17.3796,17.6311,17.6516,17.6507,17.6516,17.6588,17.6516,17.673,17.7435,17.8362,17.9156,18.0672,18.1172,18.1493,18.3333,18.4709,18.5409,18.5151,18.5213,18.505,18.5587,18.5953,18.6024,18.6095,18.6068,18.595,18.6028,18.6338,18.6893,18.6893,18.7054,18.7699,18.7951,18.8022,18.8065,18.8013,18.8022,18.8022,18.8022,18.7237,17.1561,17.1787,17.3202,17.4964,17.6335,17.5034,17.5323,17.6625,17.5567,17.5985,17.6891,17.3171,17.1362,17.145,17.278,17.3241,17.2961,17.4286,17.4846,17.4989,17.6429,17.7159,17.7078,17.7167,17.7137,17.7013,17.6875,17.6661,17.6516,17.7694,17.9008,18.0087,18.036,18.0269,18.029,18.029,18.029,18.0351,18.024,17.8771,17.6086,17.5874,17.5865,17.5874,17.5823,17.5692,17.5724,17.6227,17.6455,17.6389,17.7121,17.6953,17.5665,17.5672,17.5286,17.3993,17.385,17.3779,17.3779,17.3779,17.385,17.3565,17.3708,17.3779,17.3708,17.3485,17.2726,17.1522,17.2289,17.1941,17.0817,17.0238,17.0586,17.179,17.1371,17.1736,17.3288,17.3708,17.3779,17.3779,17.4144,17.3779,17.4144,17.4278,17.4198,17.4778,17.6721,17.8104,17.8353,18.0439,18.2512,18.3437,18.2695,18.1145,18.1598,18.2385,18.3598,18.3598,18.3411,18.3662,18.3883,18.3771,18.3711,18.5211,18.542,18.5854,18.6812,18.7538,18.7315,18.6905,18.7023,18.738,18.7513,18.7243,18.6372,17.1641,17.179,17.1097,17.1341,17.2198,17.0984,17.0658,17.1029,17.0735,17.0795,17.1085,17.0158,16.965,16.9667,16.9944,17.0107,17.0048,17.0387,17.0592,17.0592,17.0957,17.1742,17.2722,17.2587,17.3201,17.4392,17.3938,17.3793,17.3929,17.4039,17.482,17.6186,17.7185,17.7443,17.7132,17.7193,17.7202,17.7081,17.6285,17.5317,17.4345,17.4326,17.4326,17.4274,17.3474,17.2779,17.2655,17.4353,17.4795,17.3699,17.5119,17.5496,17.4273,17.4235,17.4127,17.385,17.3779,17.3779,17.3779,17.3779,17.3217,17.2093,17.195,17.1941,17.1879,17.0871,16.9524,16.8105,16.8408,16.7455,16.5306,16.4521,16.4878,16.6385,16.7249,16.8899,17.153,17.3066,17.3779,17.3779,17.3779,17.3636,17.3779,17.3779,17.3636,17.3636,17.435,17.4858,17.5018,17.6468,17.7672,17.8264,17.8862,17.9406,18.0904,18.209,18.3027,18.3312,18.3182,18.2985,18.3075,18.3218,18.3495,18.3628,18.3863,18.4095,18.4314,18.4475,18.4525,18.4685,18.474,18.4526,18.4615,18.4636,18.3983,16.8893,16.8959,16.8341,16.8358,16.8783,16.8999,16.915,16.9008,16.7589,16.7019,16.7019,16.774,16.8026,16.8034,16.8034,16.8034,16.8026,16.8034,16.8097,16.8097,16.8811,16.9579,17.0355,17.0897,17.1681,17.2692,17.3014,17.314,17.3175,17.298,17.3191,17.3852,17.4518,17.473,17.4524,17.4505,17.443,17.424,17.3583,17.3168,17.2962,17.2773,17.2782,17.2962,17.2373,17.1981,17.1953,17.339,17.3432,17.1861,17.3014,17.3081,17.1764,17.1639,17.1282,17.0657,17.0586,17.0309,16.9587,16.9507,16.9453,16.939,16.9969,17.0103,16.9398,16.7891,16.7241,16.782,16.782,16.717,16.552,16.4672,16.4601,16.5394,16.5537,16.6393,16.8042,16.9088,16.9507,16.9499,16.9507,16.9793,17.0523,17.1219,17.1861,17.2583,17.2718,17.2726,17.2789,17.2955,17.2892,17.31,17.4947,17.6659,17.7578,17.9513,18.0886,18.1038,18.1065,18.1109,18.1055,18.1047,18.1359,18.2047,18.2253,18.2497,18.3314,18.3295,18.3307,18.3294,18.3312,18.3279,18.3279,18.3276,18.2748,16.5983,16.6053,16.614,16.6222,16.6369,16.7821,16.8445,16.824,16.56,16.4466,16.4538,16.5902,16.6489,16.6481,16.6481,16.6473,16.6401,16.6187,16.6124,16.6187,16.7312,16.7946,16.8223,16.9524,17.0246,17.0603,17.2084,17.2634,17.2373,17.2489,17.2607,17.2446,17.2419,17.2472,17.2675,17.2639,17.2246,17.1538,17.1741,17.1846,17.18,17.1448,17.1448,17.1782,17.1572,17.1684,17.1947,17.2607,17.2098,17.0339,17.0746,17.0317,16.8588,16.8223,16.7455,16.5973,16.5553,16.4974,16.3896,16.3745,16.4538,16.6338,16.7455,16.7661,16.6552,16.526,16.5529,16.8009,16.7954,16.816,16.8089,16.6599,16.583,16.6195,16.5394,16.4823,16.5109,16.5457,16.5671,16.5394,16.4744,16.56,16.6687,16.774,16.9016,17.0309,17.0531,17.0817,17.0808,16.9952,16.9222,16.9507,17.1622,17.3254,17.4064,17.6008,17.7578,17.78,17.7836,17.7817,17.78,17.7781,17.8243,17.9626,17.9637,18.0146,18.1233,18.1956,18.1581,18.1725,18.1671,18.2038,18.2217,18.1699,18.0779,16.7683,16.7897,16.674,16.6374,16.6604,16.5655,16.5251,16.5243,16.4672,0.0,0.0,16.4744,16.4903,16.4823,16.4895,16.4895,16.4744,16.3531,16.2944,16.2881,16.1898,16.2104,16.3372,16.3586,16.445,16.5743,16.7249,16.7938,16.795,16.9226,17.045,17.153,17.1298,17.1781,17.2998,17.2765,17.1452,16.9348,17.0414,17.0885,17.0573,17.0554,17.0554,17.0555,16.9679,16.9022,16.8784,17.0648,17.0293,16.7289,16.8608,16.8231,16.5457,16.4014,16.2666,16.1121,15.9829,15.9543,16.055,16.0629,16.1834,16.4681,16.3959,16.38,16.4823,16.4601,16.4672,16.5243,16.4085,16.3372,16.3364,16.3086,16.3451,16.4752,16.5759,16.6338,16.6409,16.7455,16.7447,16.6615,16.6195,16.6053,16.518,16.5394,16.583,16.7257,16.8122,16.7971,16.9167,16.9293,16.915,16.9213,17.0735,17.1921,17.2113,17.3654,17.4466,17.4859,17.4758,17.4605,17.4579,17.4608,17.4733,17.5411,17.5072,17.537,17.5469,17.5914,17.5896,17.7097,17.7453,17.7756,17.8674,17.7345,17.5644,16.7462,16.7489,16.5985,16.5443,0.0,16.4744,16.4466,16.4466,16.4466,16.4466,16.4466,16.4466,16.4466,16.4387,16.3594,16.33,16.3237,16.2452,16.2159,16.2159,16.2112,16.2532,16.3317,16.4102,16.4895,16.5688,16.6409,16.6775,16.6766,16.7535,16.8319,16.9113,16.9694,17.0393,17.1105,17.0915,17.0203,16.8834,16.9429,16.9603,16.9412,16.9209,16.92,16.9403,16.883,0.0,0.0,0.0,0.0,0.0,0.0,0.0,0.0,16.0764,0.0,15.5112,15.2044,14.9554,14.8063,14.8619,15.0403,15.3478,15.5239,15.6095,15.6047,15.9036,16.1533,16.3095,16.189,16.1604,16.3023,16.181,16.1596,16.3023,16.3245,16.3618,16.4324,16.5084,16.552,16.5537,16.5608,16.5688,16.5608,16.6242,16.7106,16.782,16.8605,16.9247,16.9159,16.915,16.915,16.9213,17.0407,17.1433,17.155,17.2797,17.3762,17.3734,17.3748,17.3757,17.3725,17.3731,17.3753,17.3728,17.3777,17.3736,17.3722,17.3741,17.4016,17.4734,17.4929,17.5258,17.5743,17.4916,17.3762,16.6338,16.6267,16.4974,16.4466,16.4395,16.3824,16.3539,16.3547,16.3531,16.3531,16.361,16.3896,16.4022,16.3951,16.3015,16.2365,16.2159,16.2159,16.1945,16.1731,16.296,16.3745,16.4102,16.5331,16.6044,16.6338,16.6632,16.6775,16.6775,16.7043,16.7257,16.7266,16.8525,16.9016,16.8659,0.0,0.0,0.0,16.8666,16.8672,16.8655,16.8354,16.8354,16.8655,16.8593,0.0,16.9062,16.8802,16.8097,16.6838,16.4966,0.0,0.0,0.0,0.0,0.0,0.0,0.0,0.0,0.0,0.0,0.0,14.4045,14.5822,14.5922,15.24,15.7767,16.0526,15.9408,15.9701,16.2414,16.0201,15.9384,16.1319,16.0328,16.0185,16.2294,16.2302,16.2595,16.3879,16.4252,16.4823,16.5688,16.7249,16.8231,16.8454,16.9746,16.9961,16.8811,16.8874,16.915,16.9213,17.0031,17.0915,17.0997,17.1941,17.2601,17.2892,17.2934,17.282,17.2743,17.2751,17.2865,17.2785,17.2865,17.2818,17.2832,17.2923,17.2843,17.3271,17.336,17.3223,17.2949,17.2843,17.2866,16.4744,16.476,16.4538,16.4466,16.4244,16.1549,16.0344,16.0407,16.0407,16.0399,16.0479,16.181,16.2373,16.2516,16.3665,16.3443,16.2159,16.2159,16.1382,16.0122,16.0265,16.1113,16.2365,16.2595,16.3443,16.4752,16.6116,16.6775,16.6829,16.8168,16.8802,16.8794,16.9016,16.8462,16.7115,16.7043,16.7115,16.7115,16.8412,16.902,16.902,16.9041,16.897,16.9012,16.9012,16.9046,16.9079,16.782,16.698,16.6695,16.403,16.181,16.0265,15.1751,14.4188,0.0,12.9699,0.0,0.0,0.0,0.0,0.0,0.0,0.0,0.0,14.7349,15.4235,15.6201,15.4928,15.4706,15.6502,15.5071,15.5673,15.9511,15.8687,15.9456,16.3459,16.2952,16.2159,16.2365,16.3594,16.3967,16.3023,16.4102,16.56,16.6829,16.7337,16.7257,16.7186,16.8168,16.9016,16.915,16.9268,16.9599,16.965,16.9713,16.9872,16.9818,16.9898,16.9667,16.9872,16.9852,16.9797,16.9797,16.9957,16.986,16.9738,16.9793,17.0229,17.145,17.1664,17.1182,17.0154,16.9914,16.9738,16.2675,16.1826,16.1834,15.9749,15.6444,15.5096,15.5033,15.5848,15.489,15.5033,15.5912,15.5659,15.5517,15.5659,15.7244,15.7617,15.7102,15.875,15.9171,15.8616,16.0249,16.1454,16.2159,16.3015,16.3737,16.4466,16.4244,16.4173,16.4252,16.4878,16.5218,16.5298,16.6099,16.5743,16.4307,16.5037,16.6322,16.8026,16.8722,16.915,16.915,16.915,16.915,16.915,16.915,16.8731,16.7828,16.7115,16.5981,16.4244,16.204,15.8544,15.3336,14.4267,13.4764,0.0,0.0,0.0,0.0,0.0,0.0,0.0,0.0,0.0,0.0,0.0,14.6181,14.8727,15.0519,15.1332,15.0788,15.0583,15.0565,15.0776,15.0329,15.1125,15.4058,15.5203,15.6112,15.7049,15.9924,16.1612,16.0962,16.2881,16.4744,16.5331,16.4752,16.4538,16.5394,16.6854,16.7807,16.7873,16.8584,16.915,16.915,16.915,16.915,16.915,16.915,16.915,16.915,16.915,16.915,16.915,16.915,16.915,16.915,16.915,16.9302,16.9881,16.9461,16.8693,16.7988,16.8471,16.915,15.8592,15.7331,15.5127,15.183,14.809,14.8026,14.9182,15.0902,14.9659,14.9674,15.0489,14.9539,14.8518,14.7519,14.8826,14.9625,15.0125,15.3257,15.4819,15.5326,15.8029,15.9725,16.0526,16.1692,16.2611,16.3174,16.1739,16.124,16.1517,16.116,16.124,16.1525,16.124,16.0455,15.9369,16.1256,16.3959,16.7447,16.816,16.8953,16.965,16.9667,16.9658,16.9667,16.8953,16.7812,16.6267,16.5188,16.361,16.1596,15.7902,15.2907,14.6486,13.5627,0.0,0.0,0.0,0.0,0.0,0.0,0.0,0.0,0.0,11.2807,11.861,0.0,13.6151,0.0,14.4363,14.6945,14.6297,14.5537,0.0,0.0,14.0876,14.1036,14.3405,14.5573,14.779,15.0131,15.4307,15.7353,15.8154,16.0875,16.2548,16.1835,16.1343,16.1526,16.2804,16.4256,16.5192,16.5228,16.6096,16.6973,16.6848,16.7242,16.7438,16.7946,16.8026,16.7984,16.7963,16.8022,16.8009,16.8009,16.8022,16.8026,16.7938,16.8018,16.7925,16.7609,16.6455,16.5507,16.5515,16.6464,16.7384,15.1079,15.0301,14.1698,13.95,14.1634,14.162,14.3339,14.6107,14.5965,14.518,14.4145,14.5337,14.3532,13.9537,13.968,0.0,14.2055,14.5116,14.7249,14.8769,15.0452,15.2742,15.5634,15.5856,15.7347,16.013,15.8536,15.8536,15.9836,15.8457,15.8536,15.9836,15.424,15.13,15.1371,15.4271,15.8132,16.2642,16.5537,16.8399,17.1165,17.1245,17.1245,17.1182,16.8471,16.6187,16.4609,16.0526,15.875,15.9543,15.0147,14.3639,14.1127,0.0,0.0,0.0,0.0,0.0,0.0,0.0,0.0,0.0,0.0,0.0,0.0,0.0,0.0,12.8971,13.4787,0.0,14.3699,13.9045,0.0,0.0,0.0,13.0837,13.5353,13.5975,13.7825,14.2091,0.0,0.0,15.3291,15.6209,15.7068,15.4398,15.6453,15.8277,15.8679,15.9831,16.0708,16.0796,16.0835,16.0945,16.1326,16.2111,16.3167,16.4405,16.4815,16.4717,16.4758,16.4798,16.4807,16.4848,16.4828,16.4888,16.4871,16.4657,16.4568,16.3409,16.2476,16.1775,16.1804,16.2356,16.2876,14.0971,13.2824,12.8213,12.7026,12.8226,12.9128,13.2416,13.7145,13.7145,13.7428,13.7777,13.547,13.2476,12.8974,12.7017,0.0,0.0,0.0,13.825,14.2572,14.4916,14.7691,15.0703,15.1758,15.2828,15.3955,15.3384,15.3955,15.5563,15.4905,15.0632,14.2932,0.0,14.0842,14.4616,14.8698,15.4541,16.1866,16.6099,16.9738,17.2718,17.286,17.1933,17.0023,16.6091,16.2746,16.032,15.7545,15.37,14.8626,14.2426,13.4441,0.0,0.0,0.0,0.0,0.0,0.0,0.0,0.0,0.0,0.0,0.0,8.969,9.4106,0.0,0.0,0.0,11.9094,12.4371,13.1682,13.3491,0.0,0.0,0.0,0.0,0.0,0.0,0.0,12.9082,13.6481,14.2246,14.445,14.7117,14.9481,15.1183,15.1394,15.2142,15.4205,0.0,15.6676,15.7455,15.7613,15.7822,15.8667,15.8684,15.8837,15.9411,15.9402,15.9517,16.0272,16.0859,16.1499,16.2351,16.3098,16.3537,16.3521,16.02,15.7492,15.7134,15.7389,15.7749,15.7815,15.8758,15.9813,12.8147,0.0,0.0,0.0,0.0,11.6853,12.0859,12.639,12.6402,12.7157,12.813,12.4256,0.0,0.0,0.0,0.0,0.0,0.0,12.9391,13.5174,13.9781,14.3103,14.5388,14.6509,14.7065,14.7001,14.5702,14.5709,14.6673,14.3695,13.6781,12.6458,0.0,0.0,0.0,0.0,14.9682,15.8513,16.4735,16.9302,17.2361,17.2424,17.1354,16.915,16.4165,15.9963,15.6824,15.3058,14.7499,13.9921,13.278,0.0,0.0,0.0,0.0,0.0,0.0,0.0,0.0,0.0,0.0,0.0,0.0,0.0,0.0,0.0,0.0,0.0,0.0,0.0,11.9132,12.5457,12.6333,0.0,0.0,0.0,0.0,0.0,0.0,0.0,0.0,0.0,13.2518,13.6768,14.1504,0.0,0.0,14.7129,14.9526,15.0857,15.1779,15.2203,15.2207,0.0,15.3408,15.3303,15.3334,15.3866,15.4157,15.4475,15.4857,15.4616,15.4707,15.5754,15.745,15.7415,15.4217,15.0197,14.7982,14.7936,14.8889,14.973,14.9859,15.0785,15.2036,0.0,0.0,0.0,0.0,10.4253,0.0,0.0,0.0,11.3837,11.3945,0.0,11.2283,0.0,0.0,0.0,0.0,10.5171,11.3947,0.0,0.0,13.4354,13.889,13.9076,13.9168,13.9233,13.909,13.4796,13.2568,13.1811,12.191,0.0,0.0,0.0,0.0,0.0,0.0,14.2747,15.0658,15.9955,16.6099,16.9079,16.9302,16.9213,16.8874,16.3111,15.8417,15.5,14.6208,13.9779,13.6218,12.0288,0.0,0.0,0.0,0.0,0.0,0.0,0.0,0.0,0.0,0.0,0.0,0.0,0.0,0.0,0.0,0.0,0.0,0.0,0.0,0.0,11.3964,0.0,0.0,0.0,0.0,0.0,0.0,0.0,0.0,0.0,12.274,11.7363,12.5689,13.3555,13.688,0.0,0.0,0.0,0.0,14.5664,14.402,14.3497,14.3422,14.3534,14.4661,14.6241,14.8206,0.0,0.0,14.8305,14.5335,14.324,14.3465,14.6171,14.4771,13.3175,13.3248,13.5029,13.5133,13.5737,13.6141,13.6148,13.6811,13.7665,0.0,0.0,0.0,0.0,0.0,0.0,0.0,0.0,0.0,10.0757,9.9762,9.732,0.0,0.0,0.0,0.0,0.0,0.0,0.0,0.0,11.8566,12.2559,12.5614,12.5674,12.5041,12.3847,12.2277,11.5737,0.0,0.0,0.0,0.0,0.0,0.0,0.0,0.0,13.6853,14.5701,15.7038,16.3959,16.6028,16.8097,16.7652,16.4656,16.2452,15.6467,14.62,13.7781,12.8998,0.0,0.0,0.0,0.0,0.0,0.0,0.0,0.0,0.0,0.0,0.0,0.0,0.0,0.0,0.0,0.0,0.0,0.0,0.0,0.0,0.0,0.0,0.0,11.1617,0.0,0.0,0.0,0.0,0.0,0.0,0.0,0.0,0.0,11.0471,11.8957,12.7264,13.2603,13.5472,13.8263,14.1447,0.0,0.0,0.0,0.0,0.0,0.0,0.0,14.0392,14.1067,13.9885,13.8169,13.6401,13.3558,13.1523,13.1507,0.0,0.0,11.9178,11.9482,12.2063,12.3132,12.3536,12.3707,12.3707,12.4637,12.5998,0.0,0.0,0.0,0.0,0.0,0.0,0.0,0.0,0.0,8.5361,8.4724,0.0,0.0,0.0,0.0,0.0,0.0,0.0,0.0,0.0,0.0,0.0,11.3043,11.2555,0.0,0.0,0.0,0.0,0.0,0.0,0.0,0.0,0.0,0.0,0.0,0.0,13.2352,14.1776,15.4105,16.1596,16.3594,16.4664,16.3951,16.139,15.9226,15.2964,14.1984,0.0,0.0,0.0,0.0,0.0,0.0,0.0,0.0,0.0,0.0,0.0,0.0,0.0,0.0,0.0,0.0,0.0,0.0,0.0,0.0,0.0,0.0,0.0,0.0,0.0,10.3913,0.0,0.0,0.0,0.0,0.0,0.0,0.0,0.0,0.0,0.0,11.0163,11.8827,12.5838,12.9852,13.3595,13.7824,13.8613,13.8937,0.0,0.0,0.0,0.0,0.0,0.0,0.0,0.0,0.0,0.0,0.0,0.0,0.0,0.0,11.2235,10.3528,10.4609,10.7095,10.8245,0.0,0.0,0.0,0.0,0.0,0.0,0.0,0.0,0.0,0.0,0.0,0.0,0.0,0.0,0.0,6.9226,0.0,0.0,6.0246,0.0,0.0,0.0,0.0,0.0,0.0,0.0,0.0,0.0,0.0,0.0,0.0,0.0,0.0,0.0,0.0,0.0,0.0,0.0,0.0,0.0,0.0,12.9261,13.8474,15.0973,15.8806,16.166,15.8957,15.8116,15.9266,15.3463,14.7827,14.2797,0.0,0.0,0.0,0.0,0.0,0.0,0.0,0.0,0.0,0.0,0.0,0.0,0.0,0.0,0.0,0.0,0.0,0.0,0.0,0.0,0.0,0.0,0.0,0.0,0.0,0.0,9.9683,10.4368,10.5279,0.0,0.0,0.0,0.0,0.0,0.0,0.0,0.0,0.0,11.6192,12.4264,13.0505,13.3683,13.5275,13.5644,13.399,13.363,13.3451,13.357,13.4931,13.5559,0.0,0.0,0.0,0.0,0.0,0.0,0.0,0.0,0.0,0.0,0.0,0.0,0.0,0.0,0.0,0.0,0.0,0.0,0.0,0.0,0.0,0.0,0.0,0.0,0.0,0.0,0.0,0.0,0.0,0.0,0.0,0.0,0.0,0.0,0.0,0.0,0.0,0.0,0.0,0.0,0.0,0.0,0.0,0.0,0.0,0.0,0.0,0.0,0.0,0.0,0.0,0.0,0.0,0.0,12.6178,13.551,14.7843,15.462,15.5547,15.4684,15.3827,15.302,14.8048,14.1619,0.0,0.0,0.0,0.0,0.0,0.0,0.0,0.0,0.0,0.0,0.0,0.0,0.0,0.0,0.0,0.0,0.0,0.0,0.0,0.0,0.0,0.0,0.0,0.0,0.0,0.0,0.0,0.0,10.4111,10.5287,9.9199,0.0,0.0,0.0,0.0,0.0,0.0,0.0,0.0,0.0,0.0,12.3725,13.0211,13.2478,13.3627,13.4123,13.4232,13.4129,13.3912,13.4445,13.352,12.9639,0.0,0.0,0.0,0.0,0.0,0.0,0.0,0.0,0.0,0.0,0.0,0.0,0.0,0.0,0.0,0.0,0.0,0.0,0.0,0.0,0.0,0.0,0.0,0.0,0.0,0.0,0.0,0.0,0.0,0.0,0.0,0.0,0.0,0.0,0.0,0.0,0.0,0.0,0.0,0.0,0.0,0.0,0.0,0.0,0.0,0.0,0.0,0.0,0.0,0.0,0.0,0.0,0.0,12.252,13.2513,14.4059,15.0981,15.2622,15.0981,15.0117,15.023,14.4067,13.6328,0.0,0.0,0.0,0.0,0.0,0.0,0.0,0.0,0.0,0.0,0.0,0.0,0.0,0.0,0.0,0.0,0.0,0.0,0.0,0.0,0.0,0.0,0.0,0.0,0.0,0.0,0.0,0.0,9.7,10.0402,9.8274,0.0,0.0,0.0,0.0,0.0,0.0,0.0,0.0,0.0,0.0,11.8352,12.5128,12.8476,0.0,0.0,13.1722,13.1709,13.155,13.2723,13.1484,12.5304,11.8869,0.0,0.0,0.0,0.0,0.0,0.0,0.0,0.0,0.0,0.0,0.0,0.0,0.0,0.0,0.0,0.0,0.0,0.0,0.0,0.0,0.0,0.0,0.0,0.0,0.0,0.0,0.0,0.0,0.0,0.0,0.0,0.0,0.0,0.0,0.0,0.0,0.0,0.0,0.0,0.0,0.0,0.0,0.0,0.0,0.0,0.0,0.0,0.0,0.0,0.0,0.0,0.0,11.8992,12.9546,14.0252,14.7894,15.2036,14.7794,14.6822,14.9524,14.0875,13.166,0.0,0.0,0.0,0.0,0.0,0.0,0.0,0.0,0.0,0.0,0.0,0.0,0.0,0.0,0.0,0.0,0.0,0.0,0.0,0.0,0.0,0.0,0.0,0.0,0.0,0.0,0.0,0.0,0.0,0.0,0.0,0.0,0.0,0.0,0.0,0.0,0.0,0.0,0.0,0.0,0.0,11.4305,11.9119,12.3813,12.691,0.0,12.699,12.6999,12.7023,12.9857,12.93,12.094,0.0,0.0,0.0,0.0,0.0,0.0,0.0,0.0,0.0,0.0,0.0,0.0,0.0,0.0,0.0,0.0,0.0,0.0,0.0,0.0,0.0,0.0,0.0,0.0,0.0,0.0,0.0,0.0,0.0,0.0,0.0,0.0,0.0,0.0,0.0,0.0,0.0,0.0,0.0,0.0,0.0,0.0,0.0,0.0,0.0,0.0,0.0,0.0,0.0,0.0,0.0,0.0,0.0,0.0,12.7842,14.0342,14.7339,14.8411,14.4995,14.3737,14.4759,13.5756,0.0,0.0,0.0,0.0,0.0,0.0,0.0,0.0,0.0,0.0,0.0,0.0,0.0,0.0,0.0,0.0,0.0,0.0,0.0,0.0,0.0,0.0,0.0,0.0,0.0,0.0,0.0,6.0582,0.0,0.0,0.0,0.0,0.0,0.0,0.0,0.0,0.0,0.0,0.0,0.0,0.0,0.0,11.0309,11.7481,12.0636,12.3045,0.0,0.0,12.3802,12.382,12.5655,12.4222,0.0,0.0,0.0,0.0,0.0,0.0,0.0,0.0,0.0,0.0,0.0,0.0,0.0,0.0,0.0,0.0,0.0,0.0,0.0,0.0,0.0,0.0,0.0,0.0,0.0,0.0,0.0,0.0,0.0,0.0,0.0,0.0,0.0,0.0,0.0,0.0,0.0,0.0,0.0,0.0,0.0,0.0,0.0,0.0,0.0,0.0,0.0,0.0,0.0,0.0,0.0,0.0,0.0,0.0,11.4021,12.4198,13.6274,14.3551,14.5461,14.3207,14.205,14.2409,13.3122,12.3863,0.0,0.0,0.0,0.0,0.0,0.0,0.0,0.0,0.0,0.0,0.0,0.0,0.0,0.0,0.0,0.0,0.0,0.0,0.0,0.0,0.0,0.0,0.0,0.0,0.0,0.0,0.0,0.0,0.0,0.0,0.0,0.0,0.0,0.0,0.0,0.0,0.0,0.0,0.0,0.0,0.0,0.0,11.3856,11.6231,0.0,0.0,0.0,11.9836,12.0504,0.0,0.0,0.0,0.0,0.0,0.0,0.0,0.0,0.0,0.0,0.0,0.0,0.0,0.0,0.0,0.0,0.0,0.0,0.0,0.0,0.0,0.0,0.0,0.0,0.0,0.0,0.0,0.0,0.0,0.0,0.0,0.0,0.0,0.0,0.0,0.0,0.0,0.0,0.0,0.0,0.0,0.0,0.0,0.0,0.0,0.0,0.0,0.0,0.0,0.0,0.0,0.0,0.0,0.0,0.0,0.0,0.0,11.9555,13.0655,13.8572,14.2902,14.1897,14.1027,14.067,13.2058,12.2693,0.0,0.0,0.0,0.0,0.0,0.0,0.0,0.0,0.0,0.0,0.0,0.0,0.0,0.0,0.0,0.0,0.0,0.0,0.0,0.0,0.0,0.0,0.0,0.0,0.0,0.0,0.0,0.0,0.0,0.0,0.0,0.0,0.0,0.0,0.0,0.0,0.0,0.0,0.0,0.0,0.0,10.4192,10.9316,11.0834,11.0989,0.0,0.0,11.4512,11.6578,11.662,0.0,0.0,0.0,0.0,0.0,0.0,0.0,0.0,0.0,0.0,0.0,0.0,0.0,0.0,0.0,0.0,0.0,0.0,0.0,0.0,0.0,0.0,0.0,0.0,0.0,0.0,0.0,0.0,0.0,0.0,0.0,0.0,0.0,0.0,0.0,0.0,0.0,0.0,0.0,0.0,0.0,0.0,0.0,0.0,0.0,0.0,0.0,0.0,0.0,0.0,0.0,0.0,0.0,0.0,0.0,0.0,11.5828,12.8867,13.743,14.0767,14.0713,13.9553,13.7426,13.1725,12.3131,0.0,0.0,0.0,0.0,0.0,0.0,0.0,0.0,0.0,0.0,0.0,0.0,0.0,0.0,0.0,0.0,0.0,0.0,0.0,0.0,0.0,0.0,0.0,0.0,0.0,0.0,0.0,0.0,0.0,0.0,0.0,0.0,0.0,0.0,0.0,0.0,0.0,0.0,0.0,0.0,0.0,9.8246,10.5702,10.3826,0.0,0.0,0.0,0.0,10.9549,10.8064,0.0,0.0,0.0,0.0,0.0,0.0,0.0,0.0,0.0,0.0,0.0,0.0,0.0,0.0,0.0,0.0,0.0,0.0,0.0,0.0,0.0,0.0,0.0,0.0,0.0,0.0,0.0,0.0,0.0,0.0,0.0,0.0,0.0,0.0,0.0,0.0,0.0,0.0,0.0,0.0,0.0,0.0,0.0,0.0,0.0,0.0,0.0,0.0,0.0,0.0,0.0,0.0,0.0,0.0,0.0,0.0,11.3455,12.4661,13.3397,13.9575,13.9113,13.7648,13.554,13.0677,12.2426,0.0,0.0,0.0,0.0,0.0,0.0,0.0,0.0,0.0,0.0,0.0,0.0,0.0,0.0,0.0,0.0,0.0,0.0,0.0,0.0,0.0,0.0,0.0,0.0,0.0,0.0,0.0,0.0,0.0,0.0,0.0,0.0,0.0,0.0,0.0,0.0,0.0,0.0,0.0,0.0,8.6144,9.093,9.6772,0.0,0.0,0.0,0.0,0.0,0.0,10.252,9.9235,0.0,0.0,0.0,0.0,0.0,0.0,0.0,0.0,0.0,0.0,0.0,0.0,0.0,0.0,0.0,0.0,0.0,0.0,0.0,0.0,0.0,0.0,0.0,0.0,0.0,0.0,0.0,0.0,0.0,0.0,0.0,0.0,0.0,0.0,0.0,0.0,0.0,0.0,0.0,0.0,0.0,0.0,0.0,0.0,0.0,0.0,0.0,0.0,0.0,0.0,0.0,0.0,0.0,0.0,0.0,10.9923,11.9001,12.8063,13.7044,13.6731,13.5464,13.3318,12.8675,12.0536,10.8626,0.0,0.0,0.0,0.0,0.0,0.0,0.0,0.0,0.0,0.0,0.0,0.0,0.0,0.0,0.0,0.0,0.0,0.0,0.0,0.0,0.0,0.0,0.0,0.0,0.0,0.0,0.0,0.0,0.0,0.0,0.0,0.0,0.0,0.0,0.0,0.0,0.0,0.0,0.0,7.9117,8.3005,0.0,0.0,0.0,0.0,0.0,0.0,0.0,0.0,9.3252,0.0,0.0,0.0,0.0,0.0,0.0,0.0,0.0,0.0,0.0,0.0,0.0,0.0,0.0,0.0,0.0,0.0,0.0,0.0,0.0,0.0,0.0,0.0,0.0,0.0,0.0,0.0,0.0,0.0,0.0,0.0,0.0,0.0,0.0,0.0,0.0,0.0,0.0,0.0,0.0,0.0,0.0,0.0,0.0,0.0,0.0,0.0,0.0,0.0,0.0,0.0,0.0,0.0,0.0,0.0,0.0,11.2235,12.1969,12.8791,13.2873,13.272,12.8342,12.4826,11.6303,10.226,0.0,0.0,0.0,0.0,0.0,0.0,0.0,0.0,0.0,0.0,0.0,0.0,0.0,0.0,0.0,0.0,0.0,0.0,0.0,0.0,0.0,0.0,0.0,0.0,0.0,0.0,0.0,0.0,0.0,0.0,0.0,0.0,0.0,0.0,0.0,0.0,0.0,0.0,6.1231,6.8558,0.0,0.0,0.0,0.0,0.0,0.0,0.0,0.0,8.4941,0.0,0.0,0.0,0.0,0.0,0.0,0.0,0.0,0.0,0.0,0.0,0.0,0.0,0.0,0.0,0.0,0.0,0.0,0.0,0.0,0.0,0.0,0.0,0.0,0.0,0.0,0.0,0.0,0.0,0.0,0.0,0.0,0.0,0.0,0.0,0.0,0.0,0.0,0.0,0.0,0.0,0.0,0.0,0.0,0.0,0.0,0.0,0.0,0.0,0.0,0.0,0.0,0.0,0.0,0.0,0.0,0.0,0.0,11.6718,12.5706,12.9062,12.9586,12.7058,11.8264,10.8107,0.0,0.0,0.0,0.0,0.0,0.0,0.0,0.0,0.0,0.0,0.0,0.0,0.0,0.0,0.0,0.0,0.0,0.0,0.0,0.0,0.0,0.0,0.0,0.0,0.0,0.0,0.0,0.0,0.0,0.0,0.0,0.0,0.0,0.0,0.0,0.0,0.0,0.0,0.0,0.0,0.0,0.0,0.0,0.0,0.0,0.0,0.0,0.0,0.0,0.0,0.0,0.0,0.0,0.0,0.0,0.0,0.0,0.0,0.0,0.0,0.0,0.0,0.0,0.0,0.0,0.0,0.0,0.0,0.0,0.0,0.0,0.0,0.0,0.0,0.0,0.0,0.0,0.0,0.0,0.0,0.0,0.0,0.0,0.0,0.0,0.0,0.0,0.0,0.0,0.0,0.0,0.0,0.0,0.0,0.0,0.0,0.0,0.0,0.0,0.0,0.0,0.0,0.0,0.0,0.0,0.0,0.0,0.0,11.0903,12.15,12.4408,12.562,12.5272,11.1471,9.9969,0.0,0.0,0.0,0.0,0.0,0.0,0.0,0.0,0.0,0.0,0.0,0.0,0.0,0.0,0.0,0.0,0.0,0.0,0.0,0.0,0.0,0.0,0.0,0.0,0.0,0.0,0.0,0.0,0.0,0.0,0.0,0.0,0.0,0.0,0.0,0.0,0.0,0.0,0.0,0.0,0.0,0.0,0.0,0.0,0.0,0.0,0.0,0.0,7.1554,0.0,0.0,0.0,0.0,0.0,0.0,0.0,0.0,0.0,0.0,0.0,0.0,0.0,0.0,0.0,0.0,0.0,0.0,0.0,0.0,0.0,0.0,0.0,0.0,0.0,0.0,0.0,0.0,0.0,0.0,0.0,0.0,0.0,0.0,0.0,0.0,0.0,0.0,0.0,0.0,0.0,0.0,0.0,0.0,0.0,0.0,0.0,0.0,0.0,0.0,0.0,0.0,0.0,0.0,0.0,0.0,0.0,0.0,0.0,10.3153,11.1545,11.7634,12.0061,11.8481,10.6018,9.458,0.0,0.0,0.0,0.0,0.0,0.0,0.0,0.0,0.0,0.0,0.0,0.0,0.0,0.0,0.0,0.0,0.0,0.0,0.0,0.0,0.0,0.0,0.0,0.0,0.0,0.0,0.0,0.0,0.0,0.0,0.0,0.0,0.0,0.0,0.0,0.0,0.0,0.0,0.0,0.0,0.0,0.0,0.0,0.0,0.0,0.0,0.0,0.0,0.0,0.0,0.0,0.0,0.0,0.0,0.0,0.0,0.0,0.0,0.0,0.0,0.0,0.0,0.0,0.0,0.0,0.0,0.0,0.0,0.0,0.0,0.0,0.0,0.0,0.0,0.0,0.0,0.0,0.0,0.0,0.0,0.0,0.0,0.0,0.0,0.0,0.0,0.0,0.0,0.0,0.0,0.0,0.0,0.0,0.0,0.0,0.0,0.0,0.0,0.0,0.0,0.0,0.0,0.0,0.0,0.0,0.0,0.0,0.0,9.5409,10.4525,11.1148,11.1046,10.3926,9.48,8.616,0.0,0.0,0.0,0.0,0.0,0.0,0.0,0.0,0.0,0.0,0.0,0.0,0.0,0.0,0.0,0.0,0.0,0.0,0.0,0.0,0.0,0.0,0.0,0.0,0.0,0.0,0.0,0.0,0.0,0.0,0.0,0.0,0.0,0.0,0.0,0.0,0.0,0.0,0.0,0.0,0.0,0.0,0.0,0.0,0.0,0.0,0.0,0.0,0.0,0.0,0.0,0.0,0.0,0.0,0.0,0.0,0.0,0.0,0.0,0.0,0.0,0.0,0.0,0.0,0.0,0.0,0.0,0.0,0.0,0.0,0.0,0.0,0.0,0.0,0.0,0.0,0.0,0.0,0.0,0.0,0.0,0.0,0.0,0.0,0.0,0.0,0.0,0.0,0.0,0.0,0.0,0.0,0.0,0.0,0.0,0.0,0.0,0.0,0.0,0.0,0.0,0.0,0.0,0.0,0.0,0.0,0.0,0.0,0.0,9.6533,10.0355,9.809,8.9349,8.3521,7.7242,0.0,0.0,0.0,0.0,0.0,0.0,0.0,0.0,0.0,0.0,0.0,0.0,0.0,0.0,0.0,0.0,0.0,0.0,0.0,0.0,0.0,0.0,0.0,0.0,0.0,0.0,0.0,0.0,0.0,0.0,0.0,0.0,0.0,0.0,0.0,0.0,0.0,0.0,0.0,0.0,0.0,0.0,0.0,0.0,0.0,0.0,0.0,0.0,0.0,0.0,0.0,0.0,0.0,0.0,0.0,0.0,0.0,0.0,0.0,0.0,0.0,0.0,0.0,0.0,0.0,0.0,0.0,0.0,0.0,0.0,0.0,0.0,0.0,0.0,0.0,0.0,0.0,0.0,0.0,0.0,0.0,0.0,0.0,0.0,0.0,0.0,0.0,0.0,0.0,0.0,0.0,0.0,0.0,0.0,0.0,0.0,0.0,0.0,0.0,0.0,0.0,0.0,0.0,0.0,0.0,0.0,0.0,0.0,0.0,8.6829,8.2737,7.9562,7.7331,7.3877,6.8261,0.0,0.0,0.0,0.0,0.0,0.0,0.0,0.0,0.0,0.0,0.0,0.0,0.0,0.0,0.0,0.0,0.0,0.0,0.0,0.0,0.0,0.0,0.0,0.0,0.0,0.0,0.0,0.0,0.0,0.0,0.0,0.0,0.0,0.0,0.0,0.0,0.0,0.0,0.0,0.0,0.0,0.0,0.0,0.0,0.0,0.0,0.0,0.0,0.0,0.0,0.0,0.0,0.0,0.0,0.0,0.0,0.0,0.0,0.0,0.0,0.0,0.0,0.0,0.0,0.0,0.0,0.0,0.0,0.0,0.0,0.0,0.0,0.0,0.0,0.0,0.0,0.0,0.0,0.0,0.0,0.0,0.0,0.0,0.0,0.0,0.0,0.0,0.0,0.0,0.0,0.0,0.0,0.0,0.0,0.0,0.0,0.0,0.0,0.0,0.0,0.0,0.0,0.0,0.0,0.0,0.0,0.0,0.0,0.0,6.9115,6.8403,6.7225,6.558,6.3263,5.9146,5.3159,0.0,0.0,0.0,0.0,0.0,0.0,0.0,0.0,0.0,0.0,0.0,0.0,0.0,0.0,0.0,0.0,0.0,0.0,0.0,0.0,0.0,0.0,0.0,0.0,0.0,0.0,0.0,0.0,0.0,0.0,0.0,0.0,0.0,0.0,0.0,0.0,0.0,0.0,0.0,0.0,0.0,0.0,0.0,0.0,0.0,0.0,0.0,0.0,0.0,0.0,0.0,0.0,0.0,0.0,0.0,0.0,0.0,0.0,0.0,0.0,0.0,0.0,0.0,0.0,0.0,0.0,0.0,0.0,0.0,0.0,0.0,0.0,0.0,0.0,0.0,0.0,0.0,0.0,0.0,0.0,0.0,0.0,0.0,0.0,0.0,0.0,0.0,0.0,0.0,0.0,0.0,0.0,0.0,0.0,0.0,0.0,0.0,0.0,0.0,0.0,0.0,0.0,0.0,0.0,0.0,0.0,0.0,0.0,5.5406,5.6903,5.6974,5.533,5.4144,5.1452,0.0,0.0,0.0,0.0,0.0,0.0,0.0,0.0,0.0,0.0,0.0,0.0,0.0,0.0,0.0,0.0,0.0,0.0,0.0,0.0,0.0,0.0,0.0,0.0,0.0,0.0,0.0,0.0,0.0,0.0,0.0,0.0,0.0,0.0,0.0,0.0,0.0,0.0,0.0,0.0,0.0,0.0,0.0,0.0,0.0,0.0,0.0,0.0,0.0,0.0,0.0,0.0,0.0,0.0,0.0,0.0,0.0,0.0,0.0,0.0,0.0,0.0,0.0,0.0,0.0,0.0,0.0,0.0,0.0,0.0,0.0,0.0,0.0,0.0,0.0,0.0,0.0,0.0,0.0,0.0,0.0,0.0,0.0,0.0,0.0,0.0,0.0,0.0,0.0,0.0,0.0,0.0,0.0,0.0,0.0,0.0,0.0,0.0,0.0,0.0,0.0,0.0,0.0,0.0,0.0,0.0,0.0,0.0,4.5476,4.6974,4.8601,4.8825,4.7054,4.705,4.54,0.0,0.0,0.0,0.0,0.0,0.0,0.0,0.0,0.0,0.0,0.0,0.0,0.0,0.0,0.0,0.0,0.0,0.0,0.0,0.0,0.0,0.0,0.0,0.0,0.0,0.0,0.0,0.0,0.0,0.0,0.0,0.0,0.0,0.0,0.0,0.0,0.0,0.0,0.0,0.0,0.0,0.0,0.0,0.0,0.0,0.0,0.0,0.0,0.0,0.0,0.0,0.0,0.0,0.0,0.0,0.0,0.0,0.0,0.0,0.0,0.0,0.0,0.0,0.0,0.0,0.0,0.0,0.0,0.0,0.0,0.0,0.0,0.0,0.0,0.0,0.0,0.0,0.0,0.0,0.0,0.0,0.0,0.0,0.0,0.0,0.0,0.0,0.0,0.0,0.0,0.0,0.0,0.0,0.0,0.0,0.0,0.0,0.0,0.0,0.0,0.0,0.0,0.0,0.0,0.0,0.0,0.0,0.0,0.0,4.345,0.0,4.5089,0.0,4.24,4.0753,0.0,0.0,0.0,0.0,0.0,0.0,0.0,0.0,0.0,0.0,0.0,0.0,0.0,0.0,0.0,0.0,0.0,0.0,0.0,0.0,0.0,0.0,0.0,0.0,0.0,0.0,0.0,0.0,0.0,0.0,0.0,0.0,0.0,0.0,0.0,0.0,0.0,0.0,0.0,0.0,0.0,0.0,0.0,0.0,0.0,0.0,0.0,0.0,0.0,0.0,0.0,0.0,0.0,0.0,0.0,0.0,0.0,0.0,0.0,0.0,0.0,0.0,0.0,0.0,0.0,0.0,0.0,0.0,0.0,0.0,0.0,0.0,0.0,0.0,0.0,0.0,0.0,0.0,0.0,0.0,0.0,0.0,0.0,0.0,0.0,0.0,0.0,0.0,0.0,0.0,0.0,0.0,0.0,0.0,0.0,0.0,0.0,0.0,0.0,0.0,0.0,0.0,0.0,0.0,0.0,0.0,0.0,0.0,0.0,4.0973,4.2024,4.1728,4.0082,3.8511,3.7171,0.0,0.0,0.0,0.0,0.0,0.0,0.0,0.0,0.0,0.0,0.0,0.0,0.0,0.0,0.0,0.0,0.0,0.0,0.0,0.0,0.0,0.0,0.0,0.0,0.0,0.0,0.0,0.0,0.0,0.0,0.0,0.0,0.0,0.0,0.0,0.0,0.0,0.0,0.0,0.0,0.0,0.0,0.0,0.0,0.0,0.0,0.0,0.0,0.0,0.0,0.0,0.0,0.0,0.0,0.0,0.0,0.0,0.0,0.0,0.0,0.0,0.0,0.0,0.0,0.0,0.0,0.0,0.0,0.0,0.0,0.0,0.0,0.0,0.0,0.0,0.0,0.0,0.0,0.0,0.0,0.0,0.0,0.0,0.0,0.0,0.0,0.0,0.0,0.0,0.0,0.0,0.0,0.0,0.0,0.0,0.0,0.0,0.0,0.0,0.0,0.0,0.0,0.0,0.0,0.0,0.0,0.0,0.0,0.0,0.0,3.9255,3.8511,3.6953,3.5159,3.4332,0.0,0.0,0.0,0.0,0.0,0.0,0.0,0.0,0.0,0.0,0.0,0.0,0.0,0.0,0.0,0.0,0.0,0.0,0.0,0.0,0.0,0.0,0.0,0.0,0.0,0.0,0.0,0.0,0.0,0.0,0.0,0.0,0.0,0.0,0.0,0.0,0.0,0.0,0.0,0.0,0.0,0.0,0.0,0.0,0.0,0.0,0.0,0.0,0.0,0.0,0.0,0.0,0.0,0.0,0.0,0.0,0.0,0.0,0.0,0.0,0.0,0.0,0.0,0.0,0.0,0.0,0.0,0.0,0.0,0.0,0.0,0.0,0.0,0.0,0.0,0.0,0.0,0.0,0.0,0.0,0.0,0.0,0.0,0.0,0.0,0.0,0.0,0.0,0.0,0.0,0.0,0.0,0.0,0.0,0.0,0.0,0.0,0.0,0.0,0.0,0.0,0.0,0.0,0.0,0.0,0.0,0.0,0.0,0.0,0.0,3.5823,3.5525,3.5077,3.3509,3.268,3.268,0.0,0.0,0.0,0.0,0.0,0.0,0.0,0.0,0.0,0.0,0.0,0.0,0.0,0.0,0.0,0.0,0.0,0.0,0.0,0.0,0.0,0.0,0.0,0.0,0.0,0.0,0.0,0.0,0.0,0.0,0.0,0.0,0.0,0.0,0.0,0.0,0.0,0.0,0.0,0.0,0.0,0.0,0.0,0.0,0.0,0.0,0.0,0.0,0.0,0.0,0.0,0.0,0.0,0.0,0.0,0.0,0.0,0.0,0.0,0.0,0.0,0.0,0.0,0.0,0.0,0.0,0.0,0.0,0.0,0.0,0.0,0.0,0.0,0.0,0.0,0.0,0.0,0.0,0.0,0.0,0.0,0.0,0.0,0.0,0.0,0.0,0.0,0.0,0.0,0.0,0.0,0.0,0.0,0.0,0.0,0.0,0.0,0.0,0.0,0.0,0.0,0.0,0.0,0.0,0.0,0.0,0.0,0.0,0.0,0.0,3.4108,3.3445,3.2548,3.1799,0.0,0.0,0.0,0.0,0.0,0.0,0.0,0.0,0.0,0.0,0.0,0.0,0.0,0.0,0.0,0.0,0.0,0.0,0.0,0.0,0.0,0.0,0.0,0.0,0.0,0.0,0.0,0.0,0.0,0.0,0.0,0.0,0.0,0.0,0.0,0.0,0.0,0.0,0.0,0.0,0.0,0.0,0.0,0.0,0.0,0.0,0.0,0.0,0.0,0.0,0.0,0.0,0.0,0.0,0.0,0.0,0.0,0.0,0.0,0.0,0.0,0.0,0.0,0.0,0.0,0.0,0.0,0.0,0.0,0.0,0.0,0.0,0.0,0.0,0.0,0.0,0.0,0.0,0.0,0.0,0.0,0.0,0.0,0.0,0.0,0.0,0.0,0.0,0.0,0.0,0.0,0.0,0.0,0.0,0.0,0.0,0.0,0.0,0.0,0.0,0.0,0.0,0.0,0.0,0.0,0.0,0.0,0.0,0.0,0.0,0.0,3.3297,3.1894,3.1822,0.0,2.9667,0.0,0.0,0.0,0.0,0.0,0.0,0.0,0.0,0.0,0.0,0.0,0.0,0.0,0.0,0.0,0.0,0.0,0.0,0.0,0.0,0.0,0.0,0.0,0.0,0.0,0.0,0.0,0.0,0.0,0.0,0.0,0.0,0.0,0.0,0.0,0.0,0.0,0.0,0.0,0.0,0.0,0.0,0.0,0.0,0.0,0.0,0.0,0.0,0.0,0.0,0.0,0.0,0.0,0.0,0.0,0.0,0.0,0.0,0.0,0.0,0.0,0.0,0.0,0.0,0.0,0.0,0.0,0.0,0.0,0.0,0.0,0.0,0.0,0.0,0.0,0.0,0.0,0.0,0.0,0.0,0.0,0.0,0.0,0.0,0.0,0.0,0.0,0.0,0.0,0.0,0.0,0.0,0.0,0.0,0.0,0.0,0.0,0.0,0.0,0.0,0.0,0.0,0.0,0.0,0.0,0.0,0.0,0.0,0.0,0.0,0.0,0.0,3.0128,2.9917,2.9541,0.0,0.0,0.0,0.0,0.0,0.0,0.0,0.0,0.0,0.0,0.0,0.0,0.0,0.0,0.0,0.0,0.0,0.0,0.0,0.0,0.0,0.0,0.0,0.0,0.0,0.0,0.0,0.0,0.0,0.0,0.0,0.0,0.0,0.0,0.0,0.0,0.0,0.0,0.0,0.0,0.0,0.0,0.0,0.0,0.0,0.0,0.0,0.0,0.0,0.0,0.0,0.0,0.0,0.0,0.0,0.0,0.0,0.0,0.0,0.0,0.0,0.0,0.0,0.0,0.0,0.0,0.0,0.0,0.0,0.0,0.0,0.0,0.0,0.0,0.0,0.0,0.0,0.0,0.0,0.0,0.0,0.0,0.0,0.0,0.0,0.0,0.0,0.0,0.0,0.0,0.0,0.0,0.0,0.0,0.0,0.0,0.0,0.0,0.0,0.0,0.0,0.0,0.0,0.0,0.0,0.0,0.0,0.0,0.0,0.0,2.9605,2.9624,2.9634,2.9643,2.9643,0.0,0.0,0.0,0.0,0.0,0.0,0.0,0.0,0.0,0.0,0.0,0.0,0.0,0.0,0.0,0.0,0.0,0.0,0.0,0.0,0.0,0.0,0.0,0.0,0.0,0.0,0.0,0.0,0.0,0.0,0.0,0.0,0.0,0.0,0.0,0.0,0.0,0.0,0.0,0.0,0.0,0.0,0.0,0.0,0.0,0.0,0.0,0.0,0.0,0.0,0.0,0.0,0.0,0.0,0.0,0.0,0.0,0.0,0.0,0.0,0.0,0.0,0.0,0.0,0.0,0.0,0.0,0.0,0.0,0.0,0.0,0.0,0.0,0.0,0.0,0.0,0.0,0.0,0.0,0.0,0.0,0.0,0.0,0.0,0.0,0.0,0.0,0.0,0.0,0.0,0.0,0.0,0.0,0.0,0.0,0.0,0.0,0.0,0.0,0.0,0.0,0.0,0.0,0.0,0.0,0.0,0.0,0.0,0.0,0.0,0.0,0.0,0.0,0.0,2.9745,0.0,0.0,0.0,0.0,0.0,0.0,0.0,0.0,0.0,0.0,0.0,0.0,0.0,0.0,0.0,0.0,0.0,0.0,0.0,0.0,0.0,0.0,0.0,0.0,0.0,0.0,0.0,0.0,0.0,0.0,0.0,0.0,0.0,0.0,0.0,0.0,0.0,0.0,0.0,0.0,0.0,0.0,0.0,0.0,0.0,0.0,0.0,0.0,0.0,0.0,0.0,0.0,0.0,0.0,0.0,0.0,0.0,0.0,0.0,0.0,0.0,0.0,0.0,0.0,0.0,0.0,0.0,0.0,0.0,0.0,0.0,0.0,0.0,0.0,0.0,0.0,0.0,0.0,0.0,0.0,0.0,0.0,0.0,0.0,0.0,0.0,0.0,0.0,0.0,0.0,0.0,0.0,0.0,0.0,0.0,0.0,0.0,0.0,0.0,0.0,0.0,0.0,0.0,0.0,0.0,0.0,0.0,0.0,0.0,0.0,0.0,0.0,0.0,0.0,0.0,0.0,0.0,0.0,0.0,0.0,0.0,0.0,0.0,0.0,0.0,0.0,0.0,0.0,0.0,0.0,0.0,0.0,0.0,0.0,0.0,0.0,0.0,0.0,0.0,0.0,0.0,0.0,0.0,0.0,0.0,0.0,0.0,0.0,0.0,0.0,0.0,0.0,0.0,0.0,0.0,0.0,0.0,0.0,0.0,0.0,0.0,0.0,0.0,0.0,0.0,0.0,0.0,0.0,0.0,0.0,0.0,0.0,0.0,0.0,0.0,0.0,0.0,0.0,0.0,0.0,0.0,0.0,0.0,0.0,0.0,0.0,0.0,0.0,0.0,0.0,0.0,0.0,0.0,0.0,0.0,0.0,0.0,0.0,0.0,0.0,0.0,0.0,0.0,0.0,0.0,0.0,0.0,0.0,0.0,0.0,0.0,0.0,0.0,0.0,0.0,0.0,0.0,0.0,0.0,0.0,0.0,0.0,0.0,0.0,0.0,0.0,0.0,0.0,0.0,0.0,0.0,0.0,0.0,0.0,0.0,0.0,0.0,0.0,0.0,0.0,0.0,0.0,0.0,0.0,0.0,0.0,0.0,0.0,0.0,0.0,0.0,0.0,0.0,0.0,0.0,0.0,0.0,0.0,0.0,0.0,0.0,0.0,0.0,0.0,0.0,0.0,0.0,0.0,0.0,0.0,0.0,0.0,0.0,0.0,0.0,0.0,0.0,0.0,0.0,0.0,0.0,0.0,0.0,0.0,0.0,0.0,0.0,0.0,0.0,0.0,0.0,0.0,0.0,0.0,0.0,0.0,0.0,0.0,0.0,0.0,0.0,0.0,0.0,0.0,0.0,0.0,0.0,0.0,0.0,0.0,0.0,0.0,0.0,0.0,0.0,0.0,0.0,0.0,0.0,0.0,0.0,0.0,0.0,0.0,0.0,0.0,0.0,0.0,0.0,0.0,0.0,0.0,0.0,0.0,0.0,0.0,0.0,0.0,0.0,0.0,0.0,0.0,0.0,0.0,0.0,0.0,0.0,0.0,0.0,0.0,0.0,0.0,0.0,0.0,0.0,0.0,0.0,0.0,0.0,0.0,0.0,0.0,0.0,0.0,0.0,0.0,0.0,0.0,0.0,0.0,0.0,0.0,0.0,0.0,0.0,0.0,0.0,0.0,0.0,0.0,0.0,0.0,0.0,0.0,0.0,0.0,0.0,0.0,0.0,0.0,0.0,0.0,0.0,0.0,0.0,0.0,0.0,0.0,0.0,0.0,0.0,0.0,0.0,0.0,0.0,0.0,0.0,0.0,0.0,0.0,0.0,0.0,0.0,0.0,0.0,0.0,0.0,0.0,0.0,0.0,0.0,0.0,0.0,0.0,0.0,0.0,0.0,0.0,0.0,0.0,0.0,0.0,0.0,0.0,0.0,0.0,0.0,0.0,0.0,0.0,0.0,0.0,0.0,0.0,0.0,0.0,0.0,0.0,0.0,0.0,0.0,0.0,0.0,0.0,0.0,0.0,0.0,0.0,0.0,0.0,0.0,0.0,0.0,0.0,0.0,0.0,0.0,0.0,0.0,0.0,0.0,0.0,0.0,0.0,0.0,0.0,0.0,0.0,0.0,0.0,0.0,0.0,0.0,0.0,0.0,0.0,0.0,0.0,0.0,0.0,0.0,0.0,0.0,0.0,0.0,0.0,0.0,0.0,0.0,0.0,0.0,0.0,0.0,0.0,0.0,0.0,0.0,0.0,0.0,0.0,0.0,0.0,0.0,0.0,0.0,0.0,0.0,0.0,0.0,0.0,0.0,0.0,0.0,0.0,0.0,0.0,0.0,0.0,0.0,0.0,0.0,0.0,0.0,0.0,0.0,0.0,0.0,0.0,0.0,0.0,0.0,0.0,0.0,0.0,0.0,0.0,0.0,0.0,0.0,0.0,0.0,0.0,0.0,0.0,0.0,0.0,0.0,0.0,0.0,0.0,0.0,0.0,0.0,0.0,0.0,0.0,0.0,0.0,0.0,0.0,0.0,0.0,0.0,0.0,0.0,0.0,0.0,0.0,0.0,0.0,0.0,0.0,0.0,0.0,0.0,0.0,0.0,0.0,0.0,0.0,0.0,0.0,0.0,0.0,0.0,0.0,0.0,0.0,0.0,0.0,0.0,0.0,0.0,0.0,0.0,0.0,0.0,0.0,0.0,0.0,0.0,0.0,0.0,0.0,0.0,0.0,0.0,0.0,0.0,0.0,0.0,0.0,0.0,0.0,0.0,0.0,0.0,0.0,0.0,0.0,0.0,0.0,0.0,0.0,0.0,0.0,0.0,0.0,0.0,0.0,0.0,0.0,0.0,0.0,0.0,0.0,0.0,0.0,0.0,0.0,0.0,0.0,0.0,0.0,0.0,0.0,0.0,0.0,0.0,0.0,0.0,0.0,0.0,0.0,0.0,0.0,0.0,0.0,0.0,0.0,0.0,0.0,0.0,0.0,0.0,0.0,0.0,0.0,0.0,0.0,0.0,0.0,0.0,0.0,0.0,0.0,0.0,0.0,0.0,0.0,0.0,0.0,0.0,0.0,0.0,0.0,0.0,0.0,0.0,0.0,0.0,0.0,0.0,0.0,0.0,0.0,0.0,0.0,0.0,0.0,0.0,0.0,0.0,0.0,0.0,0.0,0.0,0.0,0.0,0.0,0.0,0.0,0.0,0.0,0.0,0.0,0.0,0.0,0.0,0.0,0.0,0.0,0.0,0.0,0.0,0.0,0.0,0.0,0.0,0.0,0.0,0.0,0.0,0.0,0.0,0.0,0.0,0.0,0.0,0.0,0.0,0.0,0.0,0.0,0.0,0.0,0.0,0.0,0.0,0.0,0.0,0.0,0.0,0.0,0.0,0.0,0.0,0.0,0.0,0.0,0.0,0.0,0.0,0.0,0.0,0.0,0.0,0.0,0.0,0.0,0.0,0.0,0.0,0.0,0.0,0.0,0.0,0.0,0.0,0.0,0.0,0.0,0.0,0.0,0.0,0.0,0.0,0.0,0.0,0.0,0.0,0.0,0.0,0.0,0.0,0.0,0.0,0.0,0.0,0.0,0.0,0.0,0.0,0.0,0.0,0.0,0.0,0.0,0.0,0.0,0.0,0.0,0.0,0.0,0.0,0.0,0.0,0.0,0.0,0.0,0.0,0.0,0.0,0.0,0.0,0.0,0.0,0.0,0.0,0.0,0.0,0.0,0.0,0.0,0.0,0.0,0.0,0.0,0.0,0.0,0.0,0.0,0.0,0.0,0.0,0.0,0.0,0.0,0.0,0.0,0.0,0.0,0.0,0.0,0.0,0.0,0.0,0.0,0.0,0.0,0.0,0.0,0.0,0.0,0.0,0.0,0.0,0.0,0.0,0.0,0.0,0.0,0.0,0.0,0.0,0.0,0.0,0.0,0.0,0.0,0.0,0.0,0.0,0.0,0.0,0.0,0.0,0.0,0.0,0.0,0.0,0.0,0.0,0.0,0.0,0.0,0.0,0.0,0.0,0.0,0.0,0.0,0.0,0.0,0.0,0.0,0.0,0.0,0.0,0.0,0.0,0.0,0.0,0.0,0.0,0.0,0.0,0.0,0.0,0.0,0.0,0.0,0.0,0.0,0.0,0.0,0.0,0.0,0.0,0.0,0.0,0.0,0.0,0.0,0.0,0.0,0.0,0.0,0.0,0.0,0.0,0.0,0.0,0.0,0.0,0.0,0.0,0.0,0.0,0.0,0.0,0.0,0.0,0.0,0.0,0.0,0.0,0.0,0.0,0.0,0.0,0.0,0.0,0.0,0.0,0.0,0.0,0.0,0.0,0.0,0.0,0.0,0.0,0.0,0.0,0.0,0.0,0.0]}],[{"header":{"parameterUnit":"kt","parameterCategory":2,"dx":1,"dy":1,"la1":29.587661999999998,"la2":31.0,"lo1":-88.76705300000003,"lo2":-86.6583820000003,"nx":115,"ny":88,"refTime":"2022-10-15T06:00:00:Z","depth":0,"parameterNumber":2,"parameterNumberName":"V-component_of_WINDS"},"data":[10.4939,10.4939,10.4939,10.4939,10.4939,10.4939,10.4939,10.4939,10.4939,10.4939,10.4939,10.4939,10.4939,10.4939,10.4939,10.4939,10.4939,10.4939,10.4939,10.4939,10.4939,10.4939,10.4939,10.4939,10.4939,10.4939,10.4939,10.4939,10.4939,10.4939,10.4939,10.4939,10.4939,10.3197,9.923,9.4421,9.0293,8.7141,8.3079,7.8704,7.8704,7.8704,7.8704,7.8704,7.8704,7.8704,7.8704,7.8704,7.8704,7.8704,7.8704,7.8704,7.8874,7.9102,7.9301,7.9443,7.9644,7.9701,7.9587,7.9415,7.9385,7.9328,7.9187,7.8931,7.9102,7.933,7.99,8.0415,8.1012,8.1636,8.1777,8.1466,8.1238,8.1295,8.1181,8.1578,8.209,8.2232,8.2346,8.2403,8.2317,8.1664,8.0784,8.0329,7.9959,7.9218,7.8732,7.8704,7.8704,7.8704,7.8704,7.8704,7.8704,7.8704,7.8704,7.8704,7.8704,7.8704,7.8704,7.8704,7.8704,7.8704,7.8704,7.8704,7.8704,7.8704,7.8704,7.8704,7.8704,7.8704,7.8704,7.8704,7.8704,7.8704,7.8704,10.4939,10.4939,10.4939,10.4939,10.4939,10.4939,10.4939,10.4939,10.4939,10.4939,10.4939,10.4939,10.4939,10.4939,10.4939,10.4939,10.4939,10.4939,10.4939,10.4939,10.4939,10.4939,10.4939,10.4939,10.4939,10.4939,10.4939,10.4939,10.4939,10.4939,10.4939,10.4939,10.4814,10.4528,10.1837,9.6845,9.0834,8.7713,8.3233,7.942,7.8704,7.8704,7.8704,7.8704,7.8704,7.8704,7.8704,7.8704,7.8704,7.8704,7.8704,7.8704,7.8817,7.8874,7.8986,7.9015,7.9216,7.9102,7.8988,7.896,7.8931,7.8929,7.8789,7.8789,7.8958,7.9301,7.9872,8.0442,8.1011,8.1466,8.1607,8.1522,8.1295,8.1181,8.0926,8.0842,8.1494,8.2033,8.2232,8.2403,8.2119,8.1777,8.1153,8.0614,7.9959,7.9104,7.8704,7.8704,7.8704,7.8704,7.8704,7.8704,7.8704,7.8704,7.8704,7.8704,7.8704,7.8704,7.8704,7.8704,7.8704,7.8704,7.8704,7.8704,7.8704,7.8704,7.8704,7.8704,7.8704,7.8704,7.8704,7.8704,7.8704,7.8704,7.8704,10.4939,10.4939,10.4939,10.4939,10.4939,10.4939,10.4939,10.4939,10.4939,10.4939,10.4939,10.4939,10.4939,10.4939,10.4939,10.4939,10.4939,10.4939,10.4939,10.4939,10.4939,10.4939,10.4939,10.4939,10.4939,10.4939,10.4939,10.4939,10.4939,10.4939,10.4939,10.4939,10.4715,10.3496,10.011,9.5448,9.0576,8.8257,8.1922,7.9155,7.8704,7.8704,7.8704,7.8704,7.8704,7.8704,7.8704,7.8704,7.8704,7.8704,7.8704,7.8704,7.8704,7.8704,7.8704,7.8704,7.8704,7.8704,7.8732,7.8761,7.8761,7.8789,7.8704,7.8704,7.8872,7.9328,7.9872,8.0071,8.0668,8.0955,8.1097,8.1181,8.0955,8.0898,8.07,8.0558,8.0983,8.1635,8.2033,8.2232,8.2233,8.1806,8.1039,8.05,7.9959,7.913,7.8761,7.8704,7.8704,7.8704,7.8704,7.8704,7.8704,7.8704,7.8704,7.8704,7.8704,7.8704,7.8704,7.8704,7.8704,7.8704,7.8704,7.8704,7.8704,7.8704,7.8704,7.8704,7.8704,7.8704,7.8704,7.8704,7.8704,7.8704,7.8704,10.2798,10.1887,10.2948,10.3372,10.3347,10.3384,10.3297,10.3322,10.2399,10.1412,10.1712,10.1637,10.1887,10.2574,10.2798,10.3932,10.4517,10.4939,10.4939,10.4939,10.4939,10.4939,10.4939,10.4939,10.4939,10.4939,10.4939,10.4939,10.4939,10.4939,10.4939,10.4939,10.4864,10.3982,10.1024,9.4608,9.0653,8.8303,8.2554,7.8889,7.8704,7.8704,7.8704,7.8704,7.8704,7.8704,7.8704,7.8704,7.8704,7.8704,7.8704,7.8704,7.8704,7.8704,7.8704,7.8704,7.8704,7.8704,7.8704,7.8704,7.8704,7.8704,7.8704,7.8704,7.8903,7.9413,7.9726,7.9869,8.0042,8.0301,8.0446,8.0501,8.0473,8.0501,8.0528,8.0528,8.053,8.1153,8.1777,8.2061,8.2346,8.1777,8.087,8.0244,7.9788,7.9331,7.8903,7.8704,7.8704,7.8704,7.8704,7.8704,7.8704,7.8704,7.8704,7.8704,7.8704,7.8704,7.8704,7.8704,7.8704,7.8704,7.8704,7.8704,7.8704,7.8704,7.8704,7.8704,7.8704,7.8704,7.8704,7.8704,7.8704,7.8704,7.8704,9.6642,9.3425,9.7149,9.8902,9.8902,9.8841,9.8776,9.8438,9.5058,9.3049,9.3374,9.3118,9.5753,9.865,9.9833,10.155,10.3148,10.469,10.4939,10.4939,10.4939,10.4939,10.4939,10.4939,10.4939,10.4939,10.4939,10.4939,10.4939,10.4939,10.4939,10.4939,10.4939,10.4517,10.2062,9.5753,9.0815,8.7868,8.2869,7.8704,7.8704,7.8704,7.8704,7.8704,7.8704,7.8704,7.8704,7.8704,7.8704,7.8704,7.8704,7.8704,7.8704,7.8704,7.8704,7.8704,7.8704,7.8704,7.8704,7.8704,7.8704,7.8704,7.8704,7.8704,7.8929,7.9356,7.9499,7.9586,7.9785,8.0015,8.0074,8.0102,8.0216,8.0301,8.0386,8.0472,8.0614,8.1067,8.1634,8.1976,8.2147,8.1777,8.0898,8.0473,8.0072,7.9132,7.8704,7.8704,7.8704,7.8704,7.8704,7.8704,7.8704,7.8704,7.8704,7.8704,7.8704,7.8704,7.8704,7.8704,7.8704,7.8704,7.8704,7.8704,7.8704,7.8704,7.8704,7.8704,7.8704,7.8704,7.8704,7.8704,7.8704,7.8704,7.8704,9.577,9.2247,9.368,9.4344,9.4344,9.4319,9.2734,9.0937,9.1451,9.1759,9.1759,9.1528,9.2683,9.4599,9.6921,9.9154,10.1275,10.3222,10.479,10.479,10.4939,10.4939,10.4939,10.4939,10.4939,10.4939,10.4939,10.4939,10.4939,10.4939,10.4939,10.4939,10.4939,10.4939,10.2199,9.6185,9.097,8.6705,8.2869,7.9711,7.8704,7.8704,7.8704,7.8704,7.8704,7.8704,7.8704,7.8704,7.8704,7.8704,7.8704,7.8704,7.8704,7.8704,7.8704,7.8704,7.8704,7.8704,7.8704,7.8704,7.8704,7.8704,7.8704,7.8704,7.8931,7.9186,7.9273,7.9358,7.9557,7.9728,7.9729,7.9786,7.993,8.0129,8.03,8.0442,8.0782,8.1152,8.1549,8.189,8.1862,8.1578,8.1124,8.0756,8.013,7.9189,7.8704,7.8704,7.8704,7.8704,7.8704,7.8704,7.8704,7.8704,7.8704,7.8704,7.8704,7.8704,7.8704,7.8704,7.8704,7.8704,7.8704,7.8704,7.8704,7.8704,7.8704,7.8704,7.8704,7.8704,7.8704,7.8704,7.8704,7.8704,7.8704,9.3885,8.9983,8.9906,8.9163,8.8128,8.7972,8.634,8.3993,8.6496,8.7972,8.8024,8.7998,8.8283,9.0061,9.3135,9.5897,9.8675,10.1362,10.326,10.469,10.4939,10.4939,10.4939,10.4939,10.4939,10.4939,10.4939,10.4939,10.4939,10.4939,10.4939,10.4939,10.4939,10.3683,10.0247,9.4251,8.9493,8.5088,8.1266,7.9287,7.8704,7.8704,7.8704,7.8704,7.8704,7.8704,7.8704,7.8704,7.8704,7.8704,7.8704,7.8704,7.8704,7.8704,7.8704,7.8704,7.8704,7.8704,7.8704,7.8704,7.8704,7.8704,7.8704,7.8704,7.8817,7.9015,7.9102,7.9187,7.933,7.9586,7.9673,8.0044,8.0413,8.0669,8.0954,8.1066,8.1095,8.1465,8.1834,8.2147,8.2232,8.1834,8.0784,8.0386,7.993,7.9161,7.8704,7.8704,7.8704,7.8704,7.8704,7.8704,7.8704,7.8704,7.8704,7.8704,7.8704,7.8704,7.8704,7.8704,7.8704,7.8704,7.8704,7.8704,7.8704,7.8704,7.8704,7.8704,7.8704,7.8704,7.8704,7.8704,7.8704,7.8704,7.8704,8.9499,8.5793,8.5532,8.318,7.9791,8.0133,7.9711,7.9208,7.942,7.9685,7.9606,8.0239,8.2291,8.5192,8.6022,9.0396,9.6201,9.7857,10.0774,10.3247,10.3708,10.474,10.474,10.4939,10.4939,10.4939,10.4939,10.4939,10.4939,10.4939,10.4939,10.4939,10.4205,10.1587,9.7351,9.1759,8.7141,8.3889,8.0609,7.9102,7.8704,7.8704,7.8704,7.8704,7.8704,7.8704,7.8704,7.8704,7.8704,7.8704,7.8704,7.8704,7.8704,7.8704,7.8704,7.8704,7.8704,7.8704,7.8704,7.8704,7.8704,7.8704,7.8704,7.8704,7.8789,7.8929,7.8986,7.9072,7.9273,7.95,7.9614,8.0042,8.05,8.1067,8.1436,8.1521,8.1493,8.1749,8.2119,8.2261,8.2374,8.1806,8.0756,8.0044,7.9643,7.9043,7.8704,7.8704,7.8704,7.8704,7.8704,7.8704,7.8704,7.8704,7.8704,7.8704,7.8704,7.8704,7.8704,7.8704,7.8704,7.8704,7.8704,7.8704,7.8704,7.8704,7.8704,7.8704,7.8704,7.8704,7.8704,7.8704,7.8704,7.8704,7.8704,8.7531,8.124,8.1002,8.0053,7.8863,7.8704,7.8704,7.8704,7.8704,7.8704,7.8704,7.8759,7.9815,8.153,8.381,8.8277,8.9674,9.258,9.6414,10.0135,10.0698,10.2437,10.4106,10.4939,10.4939,10.4939,10.4939,10.4939,10.4939,10.4939,10.4939,10.4205,10.2037,9.9028,9.4701,9.0679,8.6465,8.1662,8.045,7.8704,7.8704,7.8704,7.8704,7.8704,7.8704,7.8704,7.8704,7.8704,7.8704,7.8704,7.8704,7.8704,7.8704,7.8704,7.8704,7.8704,7.8704,7.8704,7.8704,7.8704,7.8704,7.8704,7.8704,7.8704,7.8761,7.9017,7.9015,7.9043,7.9412,7.9584,7.9586,7.913,7.9843,8.1067,8.138,8.1608,8.1665,8.2005,8.2318,8.2318,8.2317,8.1551,8.0727,8.0071,7.9413,7.9043,7.8704,7.8704,7.8704,7.8704,7.8704,7.8704,7.8704,7.8704,7.8704,7.8704,7.8704,7.8704,7.8704,7.8704,7.8704,7.8704,7.8704,7.8704,7.8704,7.8704,7.8704,7.8704,7.8704,7.8704,7.8704,7.8704,7.8704,7.8704,7.8704,8.6153,8.0844,7.934,7.8704,7.8704,7.8704,7.8704,7.8704,7.8704,7.8704,7.8704,7.8704,7.8704,7.942,8.1873,8.3963,8.571,8.9189,9.1913,9.5998,9.816,10.0286,10.2337,10.3758,10.4939,10.4939,10.4939,10.4939,10.4939,10.4939,10.4939,10.4616,10.2549,9.7462,9.2896,8.7557,8.5427,7.9895,7.8704,7.8704,7.8704,7.8704,7.8704,7.8704,7.8704,7.8704,7.8704,7.8704,7.8704,7.8704,7.8704,7.8704,7.8704,7.8704,7.8704,7.8704,7.8704,7.8704,7.8704,7.8704,7.8704,7.8704,7.8704,7.8704,7.8732,7.9159,7.9074,7.896,7.9356,7.9613,7.9756,7.9387,7.9756,8.0897,8.1323,8.1551,8.1892,8.2233,8.2403,8.2403,8.2318,8.1665,8.0642,7.9816,7.9216,7.8789,7.8732,7.8704,7.8704,7.8704,7.8704,7.8704,7.8704,7.8704,7.8704,7.8704,7.8704,7.8704,7.8704,7.8704,7.8704,7.8704,7.8704,7.8704,7.8704,7.8704,7.8704,7.8704,7.8704,7.8704,7.8704,7.8704,7.8704,7.8704,7.8704,8.5454,8.467,8.0424,7.8704,7.8704,7.8704,7.8704,7.8704,7.8704,7.8704,7.8704,7.8704,7.8704,7.8863,7.9261,8.1451,8.3967,8.4931,8.7531,9.1836,9.5058,9.7731,10.006,10.2798,10.4939,10.4939,10.4939,10.4939,10.4939,10.4939,10.4939,10.4591,10.3783,10.0297,9.1913,8.36,7.934,7.8785,7.8732,7.8704,7.8704,7.8704,7.8704,7.8704,7.8704,7.8704,7.8704,7.8704,7.8704,7.8704,7.8704,7.8704,7.8704,7.8704,7.8704,7.8704,7.8704,7.8704,7.8704,7.8704,7.8704,7.8704,7.8704,7.8704,7.8732,7.8761,7.8761,7.8817,7.9214,7.95,7.9785,8.0014,8.0498,8.1095,8.1322,8.1578,8.2033,8.2403,8.2403,8.2403,8.2261,8.192,8.0698,7.9703,7.9159,7.8789,7.8732,7.8704,7.8704,7.8704,7.8704,7.8704,7.8704,7.8704,7.8704,7.8704,7.8704,7.8704,7.8704,7.8704,7.8704,7.8704,7.8704,7.8704,7.8704,7.8704,7.8704,7.8704,7.8704,7.8704,7.8704,7.8704,7.8704,7.8704,7.8704,8.6314,8.0741,7.9261,7.8704,7.8704,7.8704,7.8704,7.8704,7.8704,7.8704,7.8704,7.8704,7.8704,7.8704,7.8704,7.9974,8.0688,8.1398,8.3784,8.7375,9.1734,9.5312,9.8927,10.2037,10.4343,10.4939,10.4939,10.4939,10.4939,10.4939,10.469,10.4641,10.4541,10.1312,9.4701,8.807,8.1846,7.9499,7.8704,7.8704,7.8704,7.8704,7.8704,7.8704,7.8704,7.8704,7.8704,7.8704,7.8704,7.8704,7.8704,7.8704,7.8704,7.8704,7.8704,7.8704,7.8704,7.8704,7.8704,7.8704,7.8704,7.8704,7.8704,7.8704,7.8704,7.8732,7.8704,7.8761,7.8846,7.8988,7.9045,7.9586,8.0183,8.0725,8.0981,8.1436,8.1891,8.2232,8.226,8.2403,8.2175,8.192,8.0868,8.013,7.9502,7.8903,7.8817,7.8704,7.8704,7.8704,7.8704,7.8704,7.8704,7.8704,7.8704,7.8704,7.8704,7.8704,7.8704,7.8704,7.8704,7.8704,7.8704,7.8704,7.8704,7.8704,7.8704,7.8704,7.8704,7.8704,7.8704,7.8704,7.8704,7.8704,7.8704,8.6101,8.153,8.3106,8.279,8.1293,8.1293,8.0318,7.8945,7.8704,7.8704,7.8704,7.8704,7.8704,7.8704,7.8704,7.8704,7.8704,7.8704,8.0424,8.36,8.6907,9.0499,9.4472,9.8196,10.2499,10.2624,10.428,10.4939,10.4914,10.4939,10.4392,10.2749,10.2012,9.8953,9.5245,8.8976,8.3993,8.0767,7.8704,7.8704,7.8704,7.8704,7.8704,7.8704,7.8704,7.8704,7.8704,7.8704,7.8704,7.8704,7.8704,7.8704,7.8704,7.8704,7.8704,7.8704,7.8704,7.8704,7.8704,7.8704,7.8704,7.8704,7.8704,7.8704,7.8704,7.8704,7.8704,7.8704,7.8761,7.8817,7.8761,7.9102,7.9614,8.0126,8.0611,8.1123,8.1521,8.1805,8.1976,8.2346,8.2203,8.1862,8.1181,8.05,7.9703,7.8988,7.8846,7.8704,7.8704,7.8704,7.8704,7.8704,7.8704,7.8704,7.8704,7.8704,7.8704,7.8704,7.8704,7.8704,7.8704,7.8704,7.8704,7.8704,7.8704,7.8704,7.8704,7.8704,7.8704,7.8704,7.8704,7.8704,7.8704,7.8704,7.8704,8.6074,8.6048,8.9163,8.7791,8.436,8.4853,8.2317,7.8783,7.8704,7.8704,7.8704,7.8704,7.8704,7.8704,7.8704,7.8704,7.8704,7.8704,7.9102,8.0556,8.3053,8.597,8.9105,9.3885,9.8297,9.9456,10.1712,10.3832,10.4765,10.423,10.1261,9.8513,9.7958,9.2631,8.9086,8.8361,8.5271,8.0291,7.8704,7.8704,7.8704,7.8704,7.8704,7.8704,7.8704,7.8704,7.8704,7.8704,7.8704,7.8704,7.8704,7.8704,7.8561,7.8673,7.8563,7.859,7.859,7.8704,7.8704,7.8704,7.8704,7.8704,7.8704,7.8704,7.8704,7.8704,7.8704,7.8704,7.8704,7.8704,7.8732,7.8846,7.9356,7.987,8.0441,8.0953,8.1435,8.1634,8.1947,8.2289,8.2062,8.155,8.0925,8.0385,7.9644,7.896,7.8732,7.8704,7.8704,7.8704,7.8704,7.8704,7.8704,7.8704,7.8704,7.8704,7.8704,7.8704,7.8704,7.8704,7.8704,7.8704,7.8704,7.8704,7.8704,7.8704,7.8704,7.8704,7.8704,7.8704,7.8704,7.8704,7.8704,7.8704,7.8704,9.3169,8.9629,8.4229,8.1372,8.0397,8.0371,7.9789,7.8704,7.8704,7.8704,7.8704,7.8704,7.8704,7.8704,7.8704,7.8704,7.8704,7.8704,7.8704,8.0212,8.279,8.4879,8.7167,9.0447,9.5312,9.8488,10.0598,10.2087,10.2923,10.1487,9.7806,9.3604,9.4472,9.0653,8.7037,8.6543,8.5088,7.9314,7.8704,7.8704,7.8704,7.8704,7.8704,7.8704,7.8704,7.8704,7.8704,7.8704,7.8704,7.8704,7.8704,7.8476,7.825,7.8448,7.845,7.8307,7.8535,7.8704,7.8704,7.8704,7.8704,7.8704,7.8704,7.8704,7.8704,7.8704,7.8704,7.8704,7.8704,7.8704,7.8817,7.9159,7.9413,7.9783,8.0269,8.0923,8.1464,8.172,8.2033,8.2175,8.1948,8.1352,8.0812,8.027,7.9587,7.8903,7.8704,7.8704,7.8704,7.8704,7.8704,7.8704,7.8704,7.8704,7.8704,7.8704,7.8704,7.8704,7.8704,7.8704,7.8704,7.8704,7.8704,7.8704,7.8704,7.8704,7.8704,7.8704,7.8704,7.8704,7.8704,7.8704,7.8704,7.8704,7.8704,9.6921,9.3987,8.7245,8.3368,8.1659,8.1609,8.0582,7.9022,7.8704,7.8704,7.8704,7.8704,7.8704,7.8704,7.8704,7.8704,7.8704,7.8704,7.8704,7.9685,8.1055,8.339,8.5897,8.9725,9.4063,9.7882,10.0297,10.1687,9.9808,9.768,9.4599,9.2375,9.3348,9.1528,8.597,8.7193,8.4282,8.0503,7.8783,7.873,7.8704,7.8704,7.8704,7.8704,7.8704,7.8704,7.8704,7.8704,7.8704,7.8675,7.8364,7.8194,7.825,7.8194,7.8362,7.808,7.8506,7.8677,7.8704,7.8704,7.8704,7.8704,7.8704,7.8704,7.8704,7.8704,7.8704,7.8704,7.8704,7.8704,7.8817,7.9328,7.9442,7.9584,7.9897,8.0468,8.0925,8.1465,8.1947,8.1947,8.1834,8.1238,8.0642,7.9902,7.9102,7.8704,7.8704,7.8704,7.8704,7.8704,7.8704,7.8704,7.8704,7.8704,7.8704,7.8704,7.8704,7.8704,7.8704,7.8704,7.8704,7.8704,7.8704,7.8704,7.8704,7.8704,7.8704,7.8704,7.8704,7.8704,7.8704,7.8704,7.8704,7.8704,7.8704,9.7604,9.7123,9.2042,8.8102,8.446,8.4046,8.2054,7.8889,7.8704,7.8704,7.8704,7.8704,7.8704,7.8704,7.8704,7.8704,7.8704,7.8704,7.8704,7.8996,8.0291,8.2711,8.5584,8.9699,9.4063,9.7983,10.1011,10.1036,9.9104,9.5515,9.2836,9.2426,9.4114,9.3961,8.7661,8.9441,8.7349,8.1108,7.9711,7.9393,7.8865,7.8704,7.8704,7.8704,7.8704,7.8704,7.8704,7.8704,7.8618,7.8533,7.8023,7.7994,7.8194,7.7881,7.8137,7.8478,7.8704,7.8704,7.8704,7.8704,7.8704,7.8704,7.8704,7.8704,7.8704,7.8704,7.8704,7.8704,7.8704,7.8704,7.8817,7.9243,7.9214,7.9271,7.9527,8.0042,8.05,8.118,8.1721,8.1777,8.1466,8.0955,8.0473,7.9532,7.8704,7.8704,7.8704,7.8704,7.8704,7.8704,7.8704,7.8704,7.8704,7.8704,7.8704,7.8704,7.8704,7.8704,7.8704,7.8704,7.8704,7.8704,7.8704,7.8704,7.8704,7.8704,7.8704,7.8704,7.8704,7.8704,7.8704,7.8704,7.8704,7.8704,7.8704,9.3067,9.2401,8.4622,8.0817,8.0133,8.008,7.9579,7.8865,7.8704,7.8704,7.8704,7.8704,7.8704,7.8704,7.8704,7.8704,7.8704,7.8704,7.8704,7.9287,8.1609,8.3941,8.6335,8.9725,9.391,9.7174,9.7098,9.5668,9.6363,9.5846,9.4395,9.3297,9.2324,9.1605,9.0808,9.1297,8.8542,8.5427,8.3915,8.1896,7.9606,7.8704,7.8704,7.8704,7.8704,7.8704,7.8704,7.8704,7.8504,7.8165,7.7797,7.7426,7.6745,7.7283,7.8023,7.8563,7.8704,7.8704,7.8704,7.8704,7.8704,7.8704,7.8704,7.8704,7.8704,7.8704,7.8704,7.8704,7.8704,7.8704,7.8732,7.8929,7.8929,7.8903,7.9358,7.9954,8.0498,8.0925,8.1437,8.138,8.1012,8.0643,8.0301,7.9475,7.8789,7.8704,7.8704,7.8704,7.8704,7.8704,7.8704,7.8704,7.8704,7.8704,7.8704,7.8704,7.8704,7.8704,7.8704,7.8704,7.8704,7.8704,7.8704,7.8704,7.8704,7.8704,7.8704,7.8704,7.8704,7.8704,7.8704,7.8704,7.8704,7.8704,7.8704,9.1759,9.0892,8.2373,7.8704,7.8704,7.8704,7.8704,7.8704,7.8704,7.8704,7.8704,7.8704,7.8704,7.8704,7.8704,7.8704,7.8704,7.8704,7.8704,7.8969,8.1055,8.2974,8.5762,8.7323,9.2324,9.5032,9.1939,9.0061,9.1888,9.2426,9.1708,9.1734,9.4114,9.4905,9.465,9.2708,8.9312,8.5584,8.297,8.0738,7.8943,7.8704,7.8704,7.8704,7.8704,7.8704,7.8704,7.8704,7.8533,7.8222,7.7909,7.7622,7.7482,7.7653,7.7935,7.8194,7.8533,7.8704,7.8704,7.8704,7.8704,7.8704,7.8704,7.8704,7.8704,7.8704,7.8704,7.8704,7.8704,7.8704,7.8761,7.9331,7.9387,7.9387,7.9729,8.0328,8.0783,8.0925,8.1096,8.1153,8.0784,8.0415,8.0074,7.9532,7.8931,7.8704,7.8704,7.8704,7.8704,7.8704,7.8704,7.8704,7.8704,7.8704,7.8704,7.8704,7.8704,7.8704,7.8704,7.8704,7.8704,7.8704,7.8704,7.8704,7.8704,7.8704,7.8704,7.8704,7.8704,7.8704,7.8704,7.8704,7.8704,7.8704,7.8704,9.0712,9.0016,8.2057,7.8704,7.8704,7.8704,7.8704,7.8704,7.8704,7.8704,7.8704,7.8704,7.8704,7.8704,7.8704,7.8704,7.8704,7.8704,7.8704,7.881,8.0582,8.2185,8.5375,8.7245,9.0112,9.2862,8.988,8.6751,8.7349,8.6491,8.9751,9.2119,9.4828,9.6353,9.5185,9.368,8.9622,8.5501,8.276,8.045,7.9128,7.8704,7.8704,7.8704,7.8704,7.8704,7.8704,7.8704,7.8675,7.8533,7.8049,7.8078,7.808,7.7738,7.7596,7.7682,7.7966,7.8277,7.8419,7.8533,7.8563,7.8704,7.8704,7.8704,7.8704,7.8704,7.8704,7.8704,7.8704,7.8789,7.8874,7.9587,8.0014,8.0042,8.0129,8.047,8.087,8.0842,8.0672,8.0982,8.0613,8.0186,7.9786,7.9301,7.8874,7.8704,7.8704,7.8704,7.8704,7.8704,7.8704,7.8704,7.8704,7.8704,7.8704,7.8704,7.8704,7.8704,7.8704,7.8704,7.8704,7.8704,7.8704,7.8704,7.8704,7.8704,7.8704,7.8704,7.8704,7.8704,7.8704,7.8704,7.8704,7.8704,7.8704,8.6283,8.5871,8.0873,7.8704,7.8704,7.8704,7.8704,7.8704,7.8704,7.8704,7.8704,7.8704,7.8704,7.8704,7.8704,7.8704,7.8704,7.8704,7.8704,7.9128,8.1556,8.339,8.4905,8.7011,8.8931,8.7037,8.5427,8.6907,8.8801,9.0756,8.9209,9.1297,9.2657,9.3067,9.2939,9.1682,8.9312,8.5736,8.3705,8.1843,7.9287,7.8704,7.8704,7.8704,7.8704,7.8704,7.8704,7.8675,7.8504,7.7964,7.7824,7.7824,7.7738,7.734,7.697,7.7001,7.7312,7.771,7.8078,7.8106,7.8248,7.8704,7.8704,7.8704,7.8704,7.8704,7.8704,7.8704,7.8761,7.8874,7.9443,7.9927,8.0072,8.0187,7.9985,8.0101,8.0443,8.0558,8.0643,8.0868,8.0355,7.9872,7.95,7.9157,7.8903,7.8704,7.8704,7.8704,7.8704,7.8704,7.8704,7.8704,7.8704,7.8704,7.8704,7.8704,7.8704,7.8704,7.8704,7.8704,7.8704,7.8704,7.8704,7.8704,7.8704,7.8704,7.8704,7.8704,7.8704,7.8704,7.8704,7.8704,7.8704,7.8704,7.8704,8.5323,8.4853,8.0582,7.8704,7.8704,7.8704,7.8704,7.8704,7.8704,7.8704,7.8704,7.8704,7.8704,7.8704,7.8704,7.8704,7.8704,7.8704,7.8704,7.9287,8.0553,8.1869,8.2527,8.3578,8.4046,8.2317,8.1896,8.2711,8.4282,8.4674,8.6309,8.807,8.8335,8.9215,9.1348,8.9344,8.7193,8.5245,8.3154,8.0976,7.9102,7.8704,7.8704,7.8704,7.8704,7.8704,7.8704,7.8704,7.8561,7.825,7.7938,7.7881,7.8106,7.7682,7.7539,7.771,7.7822,7.8021,7.8163,7.8305,7.8334,7.8704,7.8704,7.8704,7.8704,7.8704,7.8704,7.8704,7.8761,7.8817,7.9159,7.9786,8.0412,8.0585,8.0556,8.0896,8.1265,8.087,8.0444,7.9957,7.987,7.9586,7.9244,7.8931,7.8732,7.8704,7.8704,7.8704,7.8704,7.8704,7.8704,7.8704,7.8704,7.8704,7.8704,7.8704,7.8704,7.8704,7.8704,7.8704,7.8704,7.8704,7.8704,7.8704,7.8704,7.8704,7.8704,7.8704,7.8704,7.8704,7.8704,7.8704,7.8704,7.8704,7.8704,8.4533,8.3415,8.0101,7.8704,7.8704,7.8704,7.8704,7.8704,7.8704,7.8704,7.8704,7.8704,7.8704,7.8704,7.8704,7.8704,7.8704,7.8704,7.8704,7.8704,7.8704,7.8759,7.8945,7.9261,7.8996,7.9049,7.8838,7.8916,7.9075,8.0027,8.0632,8.3626,8.4098,8.5558,8.7739,8.5088,8.3889,8.3312,8.0688,7.8996,7.8704,7.8704,7.8704,7.8704,7.8704,7.8704,7.8704,7.8704,7.8704,7.8561,7.8163,7.7824,7.7909,7.7513,7.7229,7.7426,7.7596,7.7795,7.7994,7.7881,7.808,7.8108,7.8163,7.8362,7.8448,7.8476,7.8561,7.8704,7.8704,7.8732,7.8905,8.027,8.0867,8.0897,8.1096,8.1493,8.1692,8.0954,8.0014,7.9415,7.9301,7.9273,7.8817,7.8732,7.8732,7.8732,7.8704,7.8704,7.8704,7.8704,7.8704,7.8704,7.8704,7.8704,7.8704,7.8704,7.8704,7.8704,7.8704,7.8704,7.8704,7.8704,7.8704,7.8704,7.8704,7.8704,7.8704,7.8704,7.8704,7.8704,7.8704,7.8704,7.8704,7.8704,7.8704,8.1917,7.8564,7.8661,7.8704,7.8704,7.8704,7.8704,7.8704,7.8704,7.8704,7.8704,7.8704,7.8704,7.8704,7.8704,7.8704,7.8675,7.8704,7.8704,7.8647,7.8704,7.859,7.8561,7.8533,7.8618,7.862,7.8704,7.8704,7.8704,7.8704,7.9208,7.9868,7.9895,8.008,8.1108,8.0339,7.9526,7.9678,7.8963,7.8643,7.8618,7.8675,7.8704,7.8704,7.8704,7.8704,7.8704,7.8704,7.8647,7.8704,7.8108,7.7511,7.6999,7.6404,7.5955,7.5651,7.5713,7.5826,7.602,7.6285,7.644,7.6796,7.6907,7.72,7.7474,7.7616,7.7867,7.8349,7.8677,7.8704,7.8931,7.9759,8.0556,8.1038,8.1238,8.1125,8.0727,8.0156,7.9755,7.9586,7.9045,7.8874,7.8732,7.8704,7.8704,7.8704,7.8704,7.8704,7.8704,7.8704,7.8704,7.8704,7.8704,7.8704,7.8704,7.8704,7.8704,7.8704,7.8704,7.8704,7.8704,7.8704,7.8704,7.8704,7.8704,7.8704,7.8704,7.8704,7.8704,7.8704,7.8704,7.8704,7.8704,7.8704,7.8704,7.8833,7.7255,7.7881,7.8137,7.822,7.8563,7.8704,7.8704,7.8704,7.8704,7.8704,7.8704,7.8704,7.8704,7.8704,7.8533,7.825,7.8561,7.8478,7.8279,7.8533,7.8277,7.7824,7.8049,7.8165,7.8194,7.8533,7.8675,7.8704,7.8704,7.8704,7.8704,7.8704,7.8704,7.8702,7.8391,7.8189,7.8191,7.8191,7.8163,7.822,7.8533,7.8675,7.8704,7.8704,7.8704,7.8704,7.8704,7.8334,7.7625,7.7001,7.6689,7.6689,7.6177,7.5585,7.5109,7.5053,7.4801,7.4693,7.5111,7.5248,7.5055,7.558,7.5642,7.5496,7.5946,7.6512,7.7179,7.7792,7.8482,7.9074,7.9331,7.9758,8.0355,8.0698,8.0614,8.0099,7.9676,7.9529,7.9214,7.8903,7.8704,7.8704,7.8704,7.8704,7.8706,7.8624,7.8704,7.8704,7.8704,7.8704,7.8704,7.8704,7.8704,7.8704,7.8704,7.8704,7.8677,7.8677,7.8704,7.8704,7.8704,7.8704,7.8704,7.8704,7.8704,7.8704,7.8704,7.8704,7.8704,7.8704,7.8704,7.8704,7.8704,7.8704,7.7637,7.6885,7.7482,7.7793,7.7824,7.825,7.8391,7.822,7.8191,7.8108,7.8165,7.822,7.8135,7.8165,7.8191,7.7992,7.7682,7.7966,7.7909,7.7625,7.8023,7.7596,7.7058,7.7312,7.7511,7.7596,7.8106,7.845,7.8476,7.8618,7.8704,7.8704,7.8704,7.8647,7.8448,7.7994,7.771,7.7539,7.7511,7.7568,7.7795,7.8222,7.8559,7.8675,7.8704,7.8704,7.8704,7.859,7.7909,7.6831,7.6293,7.6262,7.6433,7.6066,7.5585,7.5161,7.5067,7.4736,7.4192,7.4425,7.4297,7.3628,7.3982,7.3968,7.3275,7.403,7.4699,7.5405,7.6264,7.7345,7.834,7.8423,7.8808,7.9368,7.8721,7.8204,7.8115,7.8163,7.7994,7.7658,7.7325,7.7218,7.7327,7.7598,7.792,7.8169,7.8438,7.8704,7.8704,7.8704,7.8704,7.8704,7.8679,7.8706,7.8706,7.8706,7.8544,7.8438,7.8091,7.7931,7.8039,7.8413,7.8706,7.8679,7.8599,7.8706,7.8732,7.8597,7.8704,7.8704,7.8704,7.8704,7.8704,7.8704,7.8704,7.9729,7.6986,7.7428,7.7679,7.7653,7.7767,7.7511,7.7027,7.6973,7.703,7.6975,7.7084,7.7001,7.697,7.7087,7.7001,7.6859,7.7001,7.6973,7.6831,7.6802,7.6802,7.6575,7.666,7.6745,7.6942,7.7511,7.7795,7.7824,7.8336,7.8704,7.8675,7.8675,7.8476,7.7992,7.7795,7.7482,7.7001,7.6916,7.7229,7.7738,7.7878,7.808,7.8673,7.8618,7.8561,7.8448,7.8021,7.7426,7.6885,7.6575,7.6182,7.5926,7.5864,7.5293,7.4493,7.4732,7.4411,7.4355,7.3554,7.3093,7.2815,7.2332,7.2023,7.2285,7.2445,7.2922,7.3574,7.43,7.5157,7.6144,7.6608,7.7618,7.8764,7.6557,7.4973,7.4711,7.4462,7.478,7.4812,7.4274,7.4083,7.4975,7.5797,7.6418,7.699,7.7799,7.8119,7.8252,7.8119,7.8518,7.8654,7.855,7.8576,7.866,7.8498,7.7614,7.7212,7.6383,7.6491,7.6706,7.7908,7.8709,7.8548,7.844,7.8626,7.8652,7.8466,7.8385,7.8465,7.8571,7.8706,7.8704,7.8704,7.8704,7.6746,7.569,7.6262,7.6518,7.6549,7.6973,7.7001,7.6802,7.6748,7.6748,7.6748,7.6774,7.6748,7.6748,7.6748,7.6549,7.6234,7.6603,7.6322,7.5639,7.5554,7.5582,7.5554,7.558,7.5753,7.6234,7.6831,7.7115,7.7198,7.7767,7.8135,7.822,7.8533,7.8391,7.785,7.7765,7.7399,7.6944,7.7143,7.7485,7.771,7.7793,7.7881,7.8021,7.771,7.7565,7.7428,7.6859,7.6433,7.6177,7.5727,7.5112,7.4326,7.4196,7.3473,7.2236,7.1776,7.1573,7.091,7.1267,7.0987,7.0477,7.0477,7.0456,7.0102,7.0669,7.1168,7.1858,7.2675,7.3544,7.4265,7.4698,7.5021,7.5717,7.4214,7.371,7.374,7.3604,7.3606,7.3554,7.3499,7.3632,7.3903,7.4568,7.5111,7.5383,7.6032,7.6521,7.6521,7.6573,7.6467,7.6574,7.7509,7.8204,7.8477,7.7753,7.6762,7.5635,7.4619,7.4672,7.5472,7.6857,7.7389,7.7095,7.7068,7.7093,7.8091,7.7956,7.8039,7.8119,7.8172,7.8411,7.8704,7.8704,7.8704,7.4986,7.5188,7.5639,7.5835,7.5867,7.629,7.6322,7.6179,7.6151,7.6177,7.6205,7.6177,7.6177,7.6151,7.6151,7.5924,7.5582,7.5895,7.5671,7.5014,7.49,7.49,7.49,7.4872,7.5099,7.5554,7.6177,7.6464,7.6577,7.7141,7.7454,7.7511,7.7907,7.7793,7.7141,7.7115,7.6831,7.6319,7.6632,7.6944,7.7115,7.7115,7.7255,7.7369,7.7001,7.6546,7.6179,7.5779,7.5526,7.5526,7.5074,7.4338,7.3451,7.2969,7.208,7.0757,7.0528,7.0145,6.9634,6.9864,6.9761,6.9251,6.925,6.9096,6.8636,6.9148,6.9691,7.0162,7.0943,7.1855,7.2492,7.2812,7.244,7.1483,7.1564,7.1435,7.1384,7.181,7.2129,7.213,7.1995,7.1995,7.2157,7.2842,7.3324,7.3621,7.4289,7.4772,7.456,7.4186,7.3684,7.3899,7.6116,7.729,7.7056,7.6442,7.4939,7.3418,7.2542,7.2251,7.3839,7.5166,7.5113,7.5006,7.5087,7.5595,7.6829,7.7422,7.7639,7.7773,7.7902,7.8194,7.8597,7.8704,7.8704,7.5131,7.5582,7.5781,7.5639,7.5665,7.5722,7.544,7.5045,7.496,7.5045,7.5128,7.4986,7.5071,7.496,7.5074,7.4875,7.4815,7.49,7.4818,7.4676,7.4758,7.4787,7.4787,7.4815,7.4903,7.4986,7.5526,7.581,7.5838,7.6461,7.6774,7.6802,7.6888,7.6717,7.5921,7.6037,7.5668,7.527,7.5298,7.5494,7.5753,7.6006,7.6262,7.6717,7.6689,7.612,7.5014,7.4957,7.4903,7.4872,7.4764,7.4287,7.3185,7.2119,7.1591,7.1232,7.1413,7.1517,7.1235,7.0241,6.9576,6.9452,6.8942,6.8455,6.8327,6.8429,6.8506,6.861,6.9025,6.9675,7.0685,7.1159,7.0346,6.754,6.79,6.8264,6.8216,6.869,6.9236,6.9287,6.9077,6.8794,6.9365,7.0404,7.1292,7.19,7.2691,7.3269,7.3139,7.1799,7.0566,7.0985,7.3124,7.5038,7.518,7.4997,7.302,7.1353,7.0775,7.0591,7.2302,7.3199,7.3173,7.2196,7.2249,7.2936,7.4104,7.5355,7.5865,7.6397,7.7547,7.7808,7.8016,7.82,7.8366,7.3756,7.3952,7.398,7.4208,7.4578,7.4635,7.4698,7.4872,7.4872,7.4872,7.4872,7.4872,7.4872,7.4872,7.4872,7.4471,7.3728,7.4098,7.4069,7.3699,7.4123,7.4347,7.4379,7.4673,7.4872,7.4875,7.5071,7.5131,7.5216,7.5781,7.612,7.6177,7.6575,7.6487,7.598,7.6262,7.6123,7.5699,7.5898,7.6234,7.6376,7.6037,7.5924,7.6009,7.5722,7.5216,7.49,7.4872,7.4701,7.4278,7.3616,7.2921,7.2027,7.0348,6.9045,6.8394,6.832,6.832,6.8244,6.7967,6.7924,6.8188,6.8012,6.7885,6.791,6.791,6.7652,6.7367,6.7445,6.7599,6.8004,6.8236,6.7876,6.7052,6.6848,6.7002,6.7029,6.729,6.7523,6.7549,6.7419,6.7549,6.799,6.8764,6.944,6.999,7.0696,7.1221,7.109,6.9963,6.9098,6.9856,7.1669,7.254,7.2487,7.2329,7.0854,7.033,6.9859,6.9857,7.0644,7.1169,7.1012,6.9701,6.9491,7.0172,7.1222,7.2591,7.3251,7.3646,7.4572,7.5553,7.6288,7.7026,7.618,7.3094,7.3094,7.3094,7.3322,7.3692,7.3717,7.367,7.366,7.3635,7.3462,7.3136,7.3086,7.3312,7.3638,7.3287,7.2862,7.2587,7.2947,7.2919,7.2612,7.2922,7.3145,7.3173,7.3466,7.3789,7.414,7.4215,7.4328,7.4584,7.4979,7.5267,7.5497,7.5895,7.5921,7.5585,7.5867,7.5895,7.5554,7.5813,7.6091,7.5955,7.5668,7.5241,7.484,7.4389,7.419,7.419,7.419,7.4069,7.3721,7.2697,7.1755,7.0873,6.9231,6.7788,6.6867,6.6692,6.6692,6.6692,6.6692,6.6823,6.7135,6.7262,6.7288,6.7313,6.7288,6.7158,6.6821,6.6692,6.6303,6.5991,6.5782,6.586,6.5991,6.6044,6.6121,6.6304,6.6537,6.6692,6.6692,6.6692,6.6822,6.7212,6.7549,6.7912,6.8302,6.8872,6.9235,6.9132,6.8846,6.8637,6.926,7.0252,7.0905,7.0121,6.9704,6.9522,6.9287,6.9183,6.9209,6.9158,6.9704,6.9938,6.8847,6.8588,6.9314,7.0617,7.1926,7.3107,7.3002,7.1404,7.2347,7.3206,7.3029,7.2765,7.3009,7.2956,7.2981,7.2907,7.2943,7.284,7.2326,7.1576,7.1545,7.0997,7.0283,7.0181,7.0521,7.1183,7.0397,7.0441,7.1279,7.1381,7.1353,7.127,7.1353,7.1458,7.1434,7.1536,7.2037,7.282,7.3071,7.3419,7.3852,7.4009,7.4293,7.473,7.4733,7.4787,7.4704,7.4758,7.4761,7.4701,7.4758,7.4761,7.4733,7.4733,7.4215,7.3354,7.3123,7.318,7.3151,7.3123,7.3045,7.2992,7.1928,7.0837,6.9666,6.8573,6.7505,6.6661,6.6562,6.6537,6.6536,6.651,6.6562,6.664,6.6641,6.6615,6.6691,6.6666,6.6587,6.651,6.6252,6.5678,6.4404,6.417,6.4352,6.4771,6.4875,6.5188,6.5781,6.6173,6.6562,6.6536,6.6458,6.6432,6.6511,6.664,6.6719,6.6952,6.7288,6.7677,6.7782,6.8094,6.8227,6.8563,6.921,6.9728,6.8741,6.8691,6.8613,6.8562,6.8666,6.8509,6.8431,6.8405,6.8483,6.8406,6.8381,6.8924,7.0091,7.1158,7.2096,7.1837,7.0224,7.0172,7.1654,7.0042,6.96,7.1704,7.1704,7.168,7.1523,7.1185,7.0475,7.0232,7.0394,7.0397,7.0251,7.0,7.0,6.9241,6.8047,6.8076,6.8463,6.8992,6.9498,6.9471,6.909,6.9473,6.9714,6.9843,7.0894,7.1316,7.1143,7.2326,7.276,7.2332,7.2955,7.3436,7.3553,7.3557,7.3557,7.3557,7.3582,7.3557,7.361,7.3557,7.3557,7.3582,7.3557,7.3411,7.3127,7.3094,7.3094,7.3094,7.3094,7.2551,7.1339,7.0282,6.9008,6.75,6.6398,6.5712,6.5443,6.5394,6.5369,6.5394,6.5394,6.5602,6.6042,6.6094,6.6094,6.6094,6.6094,6.573,6.5001,6.4504,6.3988,6.3027,6.2873,6.3131,6.3674,6.3802,6.417,6.5029,6.529,6.5418,6.5394,6.542,6.5369,6.5421,6.5757,6.6147,6.6458,6.6744,6.6951,6.6952,6.7038,6.735,6.7811,6.8431,6.874,6.8509,6.8302,6.8405,6.8405,6.8302,6.8302,6.8405,6.8405,6.8405,6.8403,6.8405,6.8741,6.9258,6.918,6.967,6.9593,6.9258,6.913,7.0087,6.9311,6.8537,7.0447,7.04,7.0202,6.9885,6.9439,6.8667,6.8402,6.8498,6.8333,6.8091,6.7854,6.7161,6.6131,6.4898,6.5499,6.6109,6.6705,6.7391,6.7448,6.7178,6.7669,6.7963,6.8066,6.9027,6.9411,6.9362,7.0392,7.0906,7.0888,7.1651,7.242,7.3017,7.3094,7.3094,7.3094,7.3094,7.3094,7.3094,7.3094,7.2838,7.2387,7.2301,7.2301,7.2301,7.2301,7.2301,7.2253,7.1887,7.1177,7.0184,6.877,6.7402,6.6211,6.5168,6.451,6.43,6.4298,6.4298,6.4298,6.4274,6.4456,6.4818,6.4868,6.4868,6.4868,6.4844,6.4456,6.3598,6.3388,6.31,6.2559,6.2406,6.2637,6.3178,6.31,6.331,6.4172,6.4274,6.4298,6.4274,6.43,6.4274,6.4352,6.4636,6.4974,6.5235,6.5731,6.5913,6.5918,6.5965,6.6403,6.7369,6.8076,6.8128,6.7467,6.7548,6.7653,6.7678,6.7704,6.7781,6.7881,6.8111,6.8369,6.8399,6.8399,6.84,6.8404,6.8379,6.8405,6.8508,6.8431,6.8405,6.8405,6.8405,6.812,6.9342,6.9188,6.8717,6.8177,6.7578,6.6943,6.6397,6.5955,6.5533,6.5061,6.4575,6.3029,6.245,6.2429,6.2994,6.3724,6.4479,6.5055,6.5291,6.5344,6.5827,6.6044,6.6042,6.624,6.6752,6.7506,6.7868,6.8423,6.9004,6.9744,7.0965,7.236,7.2698,7.2719,7.2871,7.2871,7.2871,7.2924,7.2793,7.2171,7.1115,7.103,7.1054,7.103,7.0954,7.0873,7.0997,6.9946,6.9368,6.9121,6.7437,6.616,6.5487,6.4591,6.388,6.3436,6.3384,6.3358,6.3358,6.3358,6.3384,6.328,6.3332,6.3358,6.3332,6.3277,6.2921,6.2455,6.2788,6.2635,6.2172,6.1988,6.2141,6.2606,6.2427,6.2533,6.3152,6.3332,6.3358,6.3358,6.3464,6.3358,6.3464,6.354,6.3538,6.3722,6.4376,6.4797,6.4777,6.4812,6.5332,6.6794,6.7711,6.7305,6.6517,6.6354,6.6796,6.6796,6.6643,6.6621,6.69,6.7427,6.8031,6.7469,6.8003,6.8364,6.8398,6.8403,6.8351,6.8143,6.8042,6.8172,6.8249,6.8325,6.7834,6.894,6.8157,6.7639,6.6389,6.4784,6.3477,6.2827,6.2699,6.2617,6.2454,6.2323,6.1985,6.1826,6.178,6.1907,6.2124,6.2286,6.2463,6.2565,6.2565,6.2673,6.296,6.3373,6.4179,6.4488,6.4553,6.598,6.636,6.6004,6.678,6.7709,6.8598,6.9795,7.0792,7.1566,7.1619,7.1594,7.1489,7.0414,6.9972,7.0357,7.0404,7.0404,7.0328,6.9264,6.8959,6.9675,6.8487,6.7563,6.703,6.6292,6.5288,6.3996,6.3659,6.3512,6.3384,6.3358,6.3358,6.3358,6.3358,6.3126,6.2663,6.2611,6.2635,6.2585,6.2245,6.1728,6.1185,6.1243,6.0974,6.0218,5.9932,6.0062,6.0585,6.0874,6.1448,6.2432,6.3098,6.3358,6.3358,6.3358,6.3306,6.3358,6.3358,6.3306,6.3306,6.3566,6.3724,6.3728,6.3739,6.3982,6.48,6.5377,6.5659,6.5983,6.6275,6.6588,6.6692,6.5938,6.5586,6.5562,6.5613,6.574,6.6042,6.7176,6.8087,6.8369,6.8371,6.8018,6.7362,6.7211,6.7133,6.7109,6.7716,6.7732,6.6396,6.5811,6.5095,6.4205,6.3079,6.2059,6.1644,6.1592,6.1049,6.0841,6.0841,6.1078,6.1182,6.1159,6.1159,6.1159,6.1182,6.1159,6.1208,6.1208,6.1468,6.18,6.2109,6.2836,6.3124,6.3015,6.4338,6.4869,6.4774,6.5294,6.6022,6.6844,6.7647,6.836,6.8884,6.8932,6.9122,6.9598,6.8786,6.8595,6.9114,6.9586,6.9562,6.9114,6.8334,6.7881,6.7951,6.6775,6.5816,6.5246,6.4553,6.3719,6.2676,6.2577,6.2447,6.2167,6.2141,6.2014,6.1777,6.1774,6.1702,6.1653,6.1837,6.1913,6.163,6.1107,6.0897,6.1081,6.1081,6.0871,6.0296,5.9961,5.9935,6.0199,6.025,6.0562,6.1136,6.1595,6.1774,6.1797,6.1774,6.1878,6.2092,6.2398,6.2632,6.2869,6.2944,6.2921,6.297,6.2737,6.2687,6.3003,6.3702,6.4326,6.4688,6.5365,6.5809,6.5837,6.5316,6.4969,6.4894,6.4919,6.4947,6.5053,6.5828,6.6931,6.7571,6.7621,6.737,6.6742,6.6692,6.634,6.6115,6.6792,6.691,6.3611,6.343,6.2557,6.2122,6.1945,6.1523,6.1361,6.126,6.0299,5.9861,5.9887,6.0358,6.052,6.0543,6.0543,6.0565,6.0539,6.0462,6.0413,6.0462,6.0923,6.1179,6.1306,6.1728,6.1964,6.2094,6.2687,6.3394,6.41,6.4223,6.4776,6.563,6.5916,6.599,6.6095,6.6189,6.6577,6.7139,6.7245,6.7394,6.7512,6.8401,6.8401,6.7558,6.726,6.6764,6.6085,6.4991,6.4185,6.3687,6.2807,6.199,6.1413,6.1306,6.0974,6.0384,6.0205,6.002,5.9653,5.9624,5.9887,6.0491,6.0974,6.1075,6.0569,6.0124,6.0273,6.1228,6.1156,6.1257,6.1231,6.0663,6.0332,6.0439,6.0199,5.9991,6.0095,6.0247,6.0325,6.0199,5.9987,6.0299,6.0643,6.1078,6.1569,6.2014,6.2068,6.2172,6.2196,6.1884,6.167,6.1774,6.2624,6.3247,6.3462,6.4116,6.4688,6.4742,6.4645,6.4473,6.4522,6.435,6.4188,6.4382,6.48,6.5401,6.6188,6.6423,6.6343,6.617,6.6095,6.5975,6.5254,6.5572,6.5882,6.3843,6.3061,6.2471,6.1714,6.087,6.037,6.0147,6.0169,5.9961,0.0,0.0,5.9987,5.9994,5.9991,6.0017,6.0017,5.9987,5.9546,5.9382,5.9334,5.8926,5.9026,5.9538,5.9616,5.9906,6.0351,6.0874,6.1202,6.1388,6.1881,6.2513,6.3095,6.3939,6.46,6.5031,6.5859,6.5466,6.3949,6.4351,6.5036,6.5851,6.6111,6.6111,6.5897,6.4577,6.4168,6.479,6.3511,6.2719,6.2521,6.202,6.1283,6.0247,5.9772,5.9256,5.8618,5.8173,5.8069,5.8411,5.8415,5.8878,5.9939,5.9701,5.9694,5.9991,5.9935,5.9961,6.0169,5.9798,5.9538,5.956,5.9434,5.9542,5.9965,6.0306,6.0491,6.0517,6.0974,6.0997,6.0617,6.0439,6.0387,6.0121,6.0199,6.0332,6.0851,6.114,6.1111,6.1598,6.1696,6.1644,6.1693,6.2617,6.3132,6.283,6.3258,6.3689,6.3941,6.3553,6.3308,6.338,6.2852,6.2279,6.2412,6.3802,6.4752,6.5142,6.5253,6.5082,6.4677,6.4587,6.4643,6.4784,6.4439,6.4228,6.2273,6.1764,6.1235,6.0728,0.0,5.9987,5.9861,5.9861,5.9861,5.9861,5.9861,5.9861,5.9861,5.9857,5.9594,5.9512,5.9464,5.9178,5.9096,5.9096,5.9004,5.9182,5.9468,5.9753,6.0017,6.028,6.0517,6.0624,6.0646,6.0978,6.1263,6.1526,6.2367,6.2888,6.3151,6.3664,6.3398,6.2286,6.3084,6.3702,6.4211,6.4742,6.4765,6.4234,6.3386,0.0,0.0,0.0,0.0,0.0,0.0,0.0,0.0,5.8489,0.0,5.648,5.5363,5.4433,5.3868,5.4116,5.4765,5.5862,5.6574,5.6886,5.6796,5.7909,5.8818,5.9412,5.8948,5.8844,5.9386,5.8944,5.8866,5.9386,5.9442,5.9527,5.9809,6.0162,6.0296,6.025,6.0276,6.028,6.0276,6.0533,6.0822,6.1081,6.1367,6.1601,6.1621,6.1644,6.1644,6.1693,6.2629,6.3139,6.2598,6.2947,6.3405,6.3261,6.2998,6.2974,6.3284,6.2376,6.1636,6.1707,6.2472,6.3476,6.3955,6.4123,6.4036,6.3841,6.375,6.3735,6.3288,6.334,6.3405,6.0491,6.0465,6.002,5.9861,5.9835,5.9627,5.9523,5.9501,5.9546,5.9546,5.9549,5.9653,5.975,5.9724,5.9408,5.9196,5.9096,5.9096,5.9018,5.894,5.9338,5.9624,5.9753,6.015,6.041,6.0491,6.0572,6.0624,6.0624,6.0773,6.0851,6.0828,6.1364,6.1569,6.1439,0.0,0.0,0.0,6.2303,6.2723,6.2769,6.3574,6.3574,6.2769,6.272,0.0,6.1664,6.1491,6.1208,6.0672,6.0043,0.0,0.0,0.0,0.0,0.0,0.0,0.0,0.0,0.0,0.0,0.0,5.2473,5.3142,5.3089,5.5493,5.7398,5.8253,5.7774,5.7855,5.8838,5.8036,5.7839,5.874,5.8355,5.8303,5.917,5.9148,5.923,5.9698,5.9783,5.9991,6.028,6.0874,6.1283,6.1338,6.1783,6.1861,6.1468,6.1517,6.1644,6.1693,6.2333,6.2789,6.2343,6.2635,6.2821,6.2687,6.2569,6.2661,6.2873,6.2183,6.1639,6.1638,6.1639,6.1995,6.2852,6.3046,6.3043,6.3199,6.3178,6.2888,6.1856,6.2376,6.2758,5.9987,5.9942,5.9887,5.9861,5.9805,5.8774,5.8311,5.8359,5.8359,5.8381,5.8385,5.8944,5.9174,5.9226,5.962,5.9564,5.9096,5.9096,5.8788,5.8255,5.8307,5.864,5.9196,5.923,5.9564,5.9965,6.0436,6.0624,6.0695,6.1234,6.1491,6.1514,6.1569,6.1315,6.0799,6.0773,6.0799,6.0799,6.1453,6.1779,6.1779,6.1944,6.1918,6.1803,6.1803,6.171,6.1618,6.1081,6.0724,6.0621,5.9727,5.8944,5.8307,5.528,5.2525,0.0,4.7267,0.0,0.0,0.0,0.0,0.0,0.0,0.0,0.0,5.3608,5.578,5.5697,5.5196,5.5141,5.5757,5.5247,5.582,5.7934,5.7757,5.8086,5.952,5.936,5.9096,5.9196,5.9594,5.9679,5.9386,5.9753,6.0299,6.0695,6.0854,6.0851,6.0825,6.1234,6.1569,6.1644,6.1765,6.1965,6.1826,6.1875,6.1881,6.1809,6.1811,6.178,6.1881,6.1716,6.1644,6.1644,6.1649,6.1693,6.1806,6.1878,6.2011,6.2429,6.2507,6.2279,6.1773,6.1765,6.1806,5.9234,5.89,5.8878,5.8169,5.7038,5.6522,5.6475,5.6676,5.6423,5.6475,5.6723,5.6751,5.6699,5.6751,5.7281,5.7368,5.7229,5.7805,5.7983,5.7731,5.8351,5.8814,5.9096,5.9408,5.9646,5.9861,5.9805,5.9779,5.9783,6.0062,6.0237,6.024,6.0481,6.0351,5.9854,6.0069,6.0536,6.1182,6.1488,6.1644,6.1644,6.1644,6.1644,6.1644,6.1644,6.1465,6.1059,6.0799,6.0361,5.9805,5.8978,5.7705,5.581,5.2531,4.9112,0.0,0.0,0.0,0.0,0.0,0.0,0.0,0.0,0.0,0.0,0.0,5.2372,5.2918,5.3996,5.3752,5.1622,5.2678,5.3642,5.418,5.3627,5.3655,5.4697,5.5556,5.617,5.6483,5.7911,5.8822,5.861,5.9334,5.9987,6.015,5.9965,5.9887,6.0199,6.0627,6.0895,6.0712,6.1203,6.1644,6.1644,6.1644,6.1644,6.1644,6.1644,6.1644,6.1644,6.1644,6.1644,6.1644,6.1644,6.1644,6.1644,6.1644,6.1673,6.1858,6.1679,6.1347,6.1065,6.1292,6.1644,5.7796,5.7264,5.6438,5.5285,5.4015,5.3969,5.4344,5.4947,5.4587,5.4546,5.475,5.4474,5.4171,5.3807,5.4214,5.4459,5.4641,5.5804,5.6397,5.6558,5.7567,5.8234,5.8476,5.8826,5.9186,5.9416,5.8918,5.8736,5.8862,5.8732,5.8736,5.884,5.8736,5.845,5.8104,5.8692,5.9701,6.0997,6.1257,6.152,6.1826,6.178,6.1803,6.178,6.152,6.1104,6.0465,6.0098,5.9549,5.8866,5.7472,5.5654,5.3316,4.9406,0.0,0.0,0.0,0.0,0.0,0.0,0.0,0.0,0.0,3.948,4.0823,0.0,4.7713,0.0,5.1366,5.181,4.9261,5.0312,0.0,0.0,4.9153,4.8692,4.9509,5.0903,5.2154,5.3049,5.5354,5.6981,5.7222,5.8405,5.9138,5.8653,5.845,5.8392,5.8653,5.9328,5.9641,5.9094,6.0044,6.1186,6.1528,6.1336,6.102,6.1179,6.1182,6.1297,6.1575,6.1415,6.1228,6.1228,6.1415,6.1624,6.1644,6.1647,6.1016,5.8737,5.8587,5.8762,5.8739,5.992,6.0948,5.5128,5.4821,5.1596,5.0752,5.155,5.1589,5.2193,5.3246,5.3194,5.2908,5.242,5.2921,5.233,5.0873,5.0925,0.0,5.1726,5.2863,5.3662,5.4147,5.4853,5.5664,5.6598,5.6655,5.7221,5.8233,5.7727,5.7727,5.8151,5.7723,5.7727,5.8151,5.621,5.5186,5.5212,5.6126,5.7506,5.9323,6.025,6.1266,6.2325,6.2328,6.2328,6.2279,6.1292,6.0462,5.9913,5.8476,5.7805,5.8069,5.458,5.2258,5.1388,0.0,0.0,0.0,0.0,0.0,0.0,0.0,0.0,0.0,0.0,0.0,0.0,0.0,0.0,4.3134,4.5611,0.0,5.0512,4.8408,0.0,0.0,0.0,4.4493,4.607,4.6364,4.7289,4.936,0.0,0.0,5.4589,5.6349,5.6877,5.5102,5.5667,5.5976,5.5292,5.682,5.775,5.5907,5.7845,5.9975,6.1121,6.0107,5.9212,5.9585,6.0013,6.0283,6.1268,6.0721,6.0036,5.9923,6.0859,6.1572,6.1617,6.1103,5.8909,5.0374,5.1326,5.3492,5.3648,5.6275,5.8453,5.1374,4.8447,4.6686,4.6175,4.6651,4.7059,4.8236,4.9896,4.9896,4.9786,4.9488,4.8722,4.7401,4.5692,4.5076,0.0,0.0,0.0,4.9743,5.1189,5.2522,5.3778,5.4828,5.5259,5.5649,5.6106,5.5898,5.6106,5.6572,5.6381,5.4802,5.1979,0.0,5.1284,5.2681,5.4122,5.6272,5.9014,6.0481,6.1806,6.2944,6.2996,6.2658,6.191,6.0503,5.926,5.8376,5.7342,5.5918,5.4096,5.1817,4.8891,0.0,0.0,0.0,0.0,0.0,0.0,0.0,0.0,0.0,0.0,0.0,2.8899,2.9545,0.0,0.0,0.0,3.6642,3.782,4.1421,4.225,0.0,0.0,0.0,0.0,0.0,0.0,0.0,4.2799,4.6994,5.0066,5.0665,4.9917,4.9314,4.9487,5.0541,5.1414,5.1713,0.0,5.027,4.9574,5.4656,5.8787,5.9348,5.7096,5.5298,5.5498,5.5983,5.7248,5.9824,5.8449,5.7115,5.7666,5.8734,5.975,6.0453,5.5773,5.0461,4.6732,4.7205,4.837,4.8414,4.9985,5.118,4.6424,0.0,0.0,0.0,0.0,4.2153,4.3579,4.5476,4.5441,4.5361,4.5118,4.3773,0.0,0.0,0.0,0.0,0.0,0.0,4.5879,4.7743,5.0423,5.1953,5.2558,5.3031,5.3278,5.3232,5.2582,5.2562,5.3023,5.188,4.9341,4.5734,0.0,0.0,0.0,0.0,5.4526,5.7792,6.001,6.1673,6.2814,6.2864,6.2473,6.1644,5.9802,5.8247,5.7103,5.5685,5.364,5.0927,4.8348,0.0,0.0,0.0,0.0,0.0,0.0,0.0,0.0,0.0,0.0,0.0,0.0,0.0,0.0,0.0,0.0,0.0,0.0,0.0,3.4389,3.7106,3.8153,0.0,0.0,0.0,0.0,0.0,0.0,0.0,0.0,0.0,4.3778,4.2713,4.2546,0.0,0.0,4.6213,4.6944,4.4663,4.3119,4.3846,5.1459,0.0,5.5386,5.2716,5.0724,5.0319,4.9671,5.1382,5.7394,5.4942,5.1647,5.0162,5.059,5.1195,5.1437,4.6323,4.1757,4.0505,4.1334,4.2272,4.2375,4.3281,4.3326,0.0,0.0,0.0,0.0,3.6566,0.0,0.0,0.0,3.9754,3.9443,0.0,3.844,0.0,0.0,0.0,0.0,3.6005,3.967,0.0,0.0,4.8238,5.0209,4.9463,4.9432,4.9476,4.9425,4.7217,4.6457,4.6778,4.289,0.0,0.0,0.0,0.0,0.0,0.0,5.2044,5.4951,5.8268,6.0481,6.1618,6.1673,6.1693,6.1517,5.9367,5.761,5.6343,5.3193,5.0875,4.9558,4.3818,0.0,0.0,0.0,0.0,0.0,0.0,0.0,0.0,0.0,0.0,0.0,0.0,0.0,0.0,0.0,0.0,0.0,0.0,0.0,0.0,3.4198,0.0,0.0,0.0,0.0,0.0,0.0,0.0,0.0,0.0,3.5576,3.3117,3.5485,3.7804,3.8604,0.0,0.0,0.0,0.0,3.7523,3.9856,4.8536,5.3289,4.8898,4.72,4.6,4.4781,0.0,0.0,5.2973,4.9733,4.3366,3.6623,3.5177,3.3839,3.3648,3.3357,3.2145,2.9997,3.245,3.4615,3.4894,3.6559,3.6304,0.0,0.0,0.0,0.0,0.0,0.0,0.0,0.0,0.0,3.3652,3.2791,3.1709,0.0,0.0,0.0,0.0,0.0,0.0,0.0,0.0,4.0482,4.2182,4.287,4.2928,4.2903,4.2871,4.2066,3.9604,0.0,0.0,0.0,0.0,0.0,0.0,0.0,0.0,4.981,5.3031,5.7181,5.9701,6.0455,6.1208,6.1098,6.0006,5.9178,5.6974,5.3213,5.0148,4.6971,0.0,0.0,0.0,0.0,0.0,0.0,0.0,0.0,0.0,0.0,0.0,0.0,0.0,0.0,0.0,0.0,0.0,0.0,0.0,0.0,0.0,0.0,0.0,2.9957,0.0,0.0,0.0,0.0,0.0,0.0,0.0,0.0,0.0,2.7096,2.947,3.1933,3.3119,3.4779,3.6119,3.6848,0.0,0.0,0.0,0.0,0.0,0.0,0.0,4.0133,3.9702,3.6217,3.5572,4.1844,3.9166,3.4877,3.0871,0.0,0.0,2.8887,2.7602,2.6502,2.6225,2.7228,2.8205,2.8205,2.89,2.8402,0.0,0.0,0.0,0.0,0.0,0.0,0.0,0.0,0.0,2.6978,2.6219,0.0,0.0,0.0,0.0,0.0,0.0,0.0,0.0,0.0,0.0,0.0,3.6883,3.6911,0.0,0.0,0.0,0.0,0.0,0.0,0.0,0.0,0.0,0.0,0.0,0.0,4.7968,5.1602,5.6137,5.8866,5.9594,5.9984,5.9724,5.8766,5.8052,5.5721,5.17,0.0,0.0,0.0,0.0,0.0,0.0,0.0,0.0,0.0,0.0,0.0,0.0,0.0,0.0,0.0,0.0,0.0,0.0,0.0,0.0,0.0,0.0,0.0,0.0,0.0,2.5142,0.0,0.0,0.0,0.0,0.0,0.0,0.0,0.0,0.0,0.0,2.4407,2.6718,2.842,3.0277,3.1938,3.3188,3.1822,3.108,0.0,0.0,0.0,0.0,0.0,0.0,0.0,0.0,0.0,0.0,0.0,0.0,0.0,0.0,2.3808,2.4467,2.3146,2.2047,2.2484,0.0,0.0,0.0,0.0,0.0,0.0,0.0,0.0,0.0,0.0,0.0,0.0,0.0,0.0,0.0,1.9452,0.0,0.0,1.5721,0.0,0.0,0.0,0.0,0.0,0.0,0.0,0.0,0.0,0.0,0.0,0.0,0.0,0.0,0.0,0.0,0.0,0.0,0.0,0.0,0.0,0.0,4.6469,5.0464,5.4973,5.7874,5.8914,5.7905,5.755,5.7943,5.5903,5.385,5.1908,0.0,0.0,0.0,0.0,0.0,0.0,0.0,0.0,0.0,0.0,0.0,0.0,0.0,0.0,0.0,0.0,0.0,0.0,0.0,0.0,0.0,0.0,0.0,0.0,0.0,0.0,2.2899,2.3871,2.3973,0.0,0.0,0.0,0.0,0.0,0.0,0.0,0.0,0.0,2.4548,2.6378,2.8056,2.9522,2.9352,2.9083,2.9188,3.1793,3.3795,3.3942,3.3193,3.2213,0.0,0.0,0.0,0.0,0.0,0.0,0.0,0.0,0.0,0.0,0.0,0.0,0.0,0.0,0.0,0.0,0.0,0.0,0.0,0.0,0.0,0.0,0.0,0.0,0.0,0.0,0.0,0.0,0.0,0.0,0.0,0.0,0.0,0.0,0.0,0.0,0.0,0.0,0.0,0.0,0.0,0.0,0.0,0.0,0.0,0.0,0.0,0.0,0.0,0.0,0.0,0.0,0.0,0.0,4.5167,4.8611,5.3582,5.6277,5.6615,5.6324,5.6012,5.5789,5.3908,5.137,0.0,0.0,0.0,0.0,0.0,0.0,0.0,0.0,0.0,0.0,0.0,0.0,0.0,0.0,0.0,0.0,0.0,0.0,0.0,0.0,0.0,0.0,0.0,0.0,0.0,0.0,0.0,0.0,2.1478,2.1795,2.0859,0.0,0.0,0.0,0.0,0.0,0.0,0.0,0.0,0.0,0.0,2.5242,2.7251,2.716,2.7225,2.8203,2.9145,3.0312,3.1918,3.131,3.0251,2.9167,0.0,0.0,0.0,0.0,0.0,0.0,0.0,0.0,0.0,0.0,0.0,0.0,0.0,0.0,0.0,0.0,0.0,0.0,0.0,0.0,0.0,0.0,0.0,0.0,0.0,0.0,0.0,0.0,0.0,0.0,0.0,0.0,0.0,0.0,0.0,0.0,0.0,0.0,0.0,0.0,0.0,0.0,0.0,0.0,0.0,0.0,0.0,0.0,0.0,0.0,0.0,0.0,0.0,4.3217,4.6844,5.1989,5.4953,5.555,5.4953,5.4661,5.4795,5.2191,4.9031,0.0,0.0,0.0,0.0,0.0,0.0,0.0,0.0,0.0,0.0,0.0,0.0,0.0,0.0,0.0,0.0,0.0,0.0,0.0,0.0,0.0,0.0,0.0,0.0,0.0,0.0,0.0,0.0,1.9102,1.99,1.9701,0.0,0.0,0.0,0.0,0.0,0.0,0.0,0.0,0.0,0.0,2.3458,2.5582,2.5883,0.0,0.0,2.7811,2.8597,3.0352,2.9291,2.7835,2.6598,2.5826,0.0,0.0,0.0,0.0,0.0,0.0,0.0,0.0,0.0,0.0,0.0,0.0,0.0,0.0,0.0,0.0,0.0,0.0,0.0,0.0,0.0,0.0,0.0,0.0,0.0,0.0,0.0,0.0,0.0,0.0,0.0,0.0,0.0,0.0,0.0,0.0,0.0,0.0,0.0,0.0,0.0,0.0,0.0,0.0,0.0,0.0,0.0,0.0,0.0,0.0,0.0,0.0,4.0646,4.4745,5.001,5.3441,5.4938,5.3496,5.328,5.4515,5.0297,4.6522,0.0,0.0,0.0,0.0,0.0,0.0,0.0,0.0,0.0,0.0,0.0,0.0,0.0,0.0,0.0,0.0,0.0,0.0,0.0,0.0,0.0,0.0,0.0,0.0,0.0,0.0,0.0,0.0,0.0,0.0,0.0,0.0,0.0,0.0,0.0,0.0,0.0,0.0,0.0,0.0,0.0,2.2397,2.4269,2.519,2.5964,0.0,2.7427,2.81,2.8688,2.7084,2.5243,2.368,0.0,0.0,0.0,0.0,0.0,0.0,0.0,0.0,0.0,0.0,0.0,0.0,0.0,0.0,0.0,0.0,0.0,0.0,0.0,0.0,0.0,0.0,0.0,0.0,0.0,0.0,0.0,0.0,0.0,0.0,0.0,0.0,0.0,0.0,0.0,0.0,0.0,0.0,0.0,0.0,0.0,0.0,0.0,0.0,0.0,0.0,0.0,0.0,0.0,0.0,0.0,0.0,0.0,0.0,3.8933,4.5748,4.95,4.9883,4.8845,4.9712,5.2509,4.5588,0.0,0.0,0.0,0.0,0.0,0.0,0.0,0.0,0.0,0.0,0.0,0.0,0.0,0.0,0.0,0.0,0.0,0.0,0.0,0.0,0.0,0.0,0.0,0.0,0.0,0.0,0.0,1.104,0.0,0.0,0.0,0.0,0.0,0.0,0.0,0.0,0.0,0.0,0.0,0.0,0.0,0.0,2.0242,2.2371,2.3654,2.4388,0.0,0.0,2.6721,2.5156,2.4887,2.4305,0.0,0.0,0.0,0.0,0.0,0.0,0.0,0.0,0.0,0.0,0.0,0.0,0.0,0.0,0.0,0.0,0.0,0.0,0.0,0.0,0.0,0.0,0.0,0.0,0.0,0.0,0.0,0.0,0.0,0.0,0.0,0.0,0.0,0.0,0.0,0.0,0.0,0.0,0.0,0.0,0.0,0.0,0.0,0.0,0.0,0.0,0.0,0.0,0.0,0.0,0.0,0.0,0.0,0.0,3.2376,3.5174,4.1217,4.4681,4.5188,4.451,4.5151,4.724,4.1395,3.7666,0.0,0.0,0.0,0.0,0.0,0.0,0.0,0.0,0.0,0.0,0.0,0.0,0.0,0.0,0.0,0.0,0.0,0.0,0.0,0.0,0.0,0.0,0.0,0.0,0.0,0.0,0.0,0.0,0.0,0.0,0.0,0.0,0.0,0.0,0.0,0.0,0.0,0.0,0.0,0.0,0.0,0.0,2.1102,2.2034,0.0,0.0,0.0,2.3786,2.2317,0.0,0.0,0.0,0.0,0.0,0.0,0.0,0.0,0.0,0.0,0.0,0.0,0.0,0.0,0.0,0.0,0.0,0.0,0.0,0.0,0.0,0.0,0.0,0.0,0.0,0.0,0.0,0.0,0.0,0.0,0.0,0.0,0.0,0.0,0.0,0.0,0.0,0.0,0.0,0.0,0.0,0.0,0.0,0.0,0.0,0.0,0.0,0.0,0.0,0.0,0.0,0.0,0.0,0.0,0.0,0.0,0.0,3.2017,3.6618,3.9592,4.0745,4.0395,4.0397,4.0814,3.7517,3.4639,0.0,0.0,0.0,0.0,0.0,0.0,0.0,0.0,0.0,0.0,0.0,0.0,0.0,0.0,0.0,0.0,0.0,0.0,0.0,0.0,0.0,0.0,0.0,0.0,0.0,0.0,0.0,0.0,0.0,0.0,0.0,0.0,0.0,0.0,0.0,0.0,0.0,0.0,0.0,0.0,0.0,1.865,2.0183,2.0323,2.032,0.0,0.0,2.0465,2.0114,2.0317,0.0,0.0,0.0,0.0,0.0,0.0,0.0,0.0,0.0,0.0,0.0,0.0,0.0,0.0,0.0,0.0,0.0,0.0,0.0,0.0,0.0,0.0,0.0,0.0,0.0,0.0,0.0,0.0,0.0,0.0,0.0,0.0,0.0,0.0,0.0,0.0,0.0,0.0,0.0,0.0,0.0,0.0,0.0,0.0,0.0,0.0,0.0,0.0,0.0,0.0,0.0,0.0,0.0,0.0,0.0,0.0,2.6891,3.241,3.5702,3.6446,3.635,3.7475,3.9731,3.4105,3.0932,0.0,0.0,0.0,0.0,0.0,0.0,0.0,0.0,0.0,0.0,0.0,0.0,0.0,0.0,0.0,0.0,0.0,0.0,0.0,0.0,0.0,0.0,0.0,0.0,0.0,0.0,0.0,0.0,0.0,0.0,0.0,0.0,0.0,0.0,0.0,0.0,0.0,0.0,0.0,0.0,0.0,1.7393,1.8831,1.8103,0.0,0.0,0.0,0.0,1.9316,1.8994,0.0,0.0,0.0,0.0,0.0,0.0,0.0,0.0,0.0,0.0,0.0,0.0,0.0,0.0,0.0,0.0,0.0,0.0,0.0,0.0,0.0,0.0,0.0,0.0,0.0,0.0,0.0,0.0,0.0,0.0,0.0,0.0,0.0,0.0,0.0,0.0,0.0,0.0,0.0,0.0,0.0,0.0,0.0,0.0,0.0,0.0,0.0,0.0,0.0,0.0,0.0,0.0,0.0,0.0,0.0,0.0,2.4634,2.8458,3.1123,3.2384,3.2357,3.2947,3.4206,3.0752,2.8352,0.0,0.0,0.0,0.0,0.0,0.0,0.0,0.0,0.0,0.0,0.0,0.0,0.0,0.0,0.0,0.0,0.0,0.0,0.0,0.0,0.0,0.0,0.0,0.0,0.0,0.0,0.0,0.0,0.0,0.0,0.0,0.0,0.0,0.0,0.0,0.0,0.0,0.0,0.0,0.0,1.5189,1.6033,1.7009,0.0,0.0,0.0,0.0,0.0,0.0,1.8077,1.747,0.0,0.0,0.0,0.0,0.0,0.0,0.0,0.0,0.0,0.0,0.0,0.0,0.0,0.0,0.0,0.0,0.0,0.0,0.0,0.0,0.0,0.0,0.0,0.0,0.0,0.0,0.0,0.0,0.0,0.0,0.0,0.0,0.0,0.0,0.0,0.0,0.0,0.0,0.0,0.0,0.0,0.0,0.0,0.0,0.0,0.0,0.0,0.0,0.0,0.0,0.0,0.0,0.0,0.0,0.0,2.3365,2.521,2.7129,2.9071,2.9083,2.8832,2.8338,2.7901,2.6377,2.3616,0.0,0.0,0.0,0.0,0.0,0.0,0.0,0.0,0.0,0.0,0.0,0.0,0.0,0.0,0.0,0.0,0.0,0.0,0.0,0.0,0.0,0.0,0.0,0.0,0.0,0.0,0.0,0.0,0.0,0.0,0.0,0.0,0.0,0.0,0.0,0.0,0.0,0.0,0.0,1.3939,1.4624,0.0,0.0,0.0,0.0,0.0,0.0,0.0,0.0,1.6417,0.0,0.0,0.0,0.0,0.0,0.0,0.0,0.0,0.0,0.0,0.0,0.0,0.0,0.0,0.0,0.0,0.0,0.0,0.0,0.0,0.0,0.0,0.0,0.0,0.0,0.0,0.0,0.0,0.0,0.0,0.0,0.0,0.0,0.0,0.0,0.0,0.0,0.0,0.0,0.0,0.0,0.0,0.0,0.0,0.0,0.0,0.0,0.0,0.0,0.0,0.0,0.0,0.0,0.0,0.0,0.0,2.3808,2.5856,2.7357,2.8243,2.8229,2.728,2.6657,2.4754,2.143,0.0,0.0,0.0,0.0,0.0,0.0,0.0,0.0,0.0,0.0,0.0,0.0,0.0,0.0,0.0,0.0,0.0,0.0,0.0,0.0,0.0,0.0,0.0,0.0,0.0,0.0,0.0,0.0,0.0,0.0,0.0,0.0,0.0,0.0,0.0,0.0,0.0,0.0,1.0866,1.2166,0.0,0.0,0.0,0.0,0.0,0.0,0.0,0.0,1.5013,0.0,0.0,0.0,0.0,0.0,0.0,0.0,0.0,0.0,0.0,0.0,0.0,0.0,0.0,0.0,0.0,0.0,0.0,0.0,0.0,0.0,0.0,0.0,0.0,0.0,0.0,0.0,0.0,0.0,0.0,0.0,0.0,0.0,0.0,0.0,0.0,0.0,0.0,0.0,0.0,0.0,0.0,0.0,0.0,0.0,0.0,0.0,0.0,0.0,0.0,0.0,0.0,0.0,0.0,0.0,0.0,0.0,0.0,2.4626,2.6165,2.6808,2.6899,2.6374,2.428,2.2025,0.0,0.0,0.0,0.0,0.0,0.0,0.0,0.0,0.0,0.0,0.0,0.0,0.0,0.0,0.0,0.0,0.0,0.0,0.0,0.0,0.0,0.0,0.0,0.0,0.0,0.0,0.0,0.0,0.0,0.0,0.0,0.0,0.0,0.0,0.0,0.0,0.0,0.0,0.0,0.0,0.0,0.0,0.0,0.0,0.0,0.0,0.0,0.0,0.0,0.0,0.0,0.0,0.0,0.0,0.0,0.0,0.0,0.0,0.0,0.0,0.0,0.0,0.0,0.0,0.0,0.0,0.0,0.0,0.0,0.0,0.0,0.0,0.0,0.0,0.0,0.0,0.0,0.0,0.0,0.0,0.0,0.0,0.0,0.0,0.0,0.0,0.0,0.0,0.0,0.0,0.0,0.0,0.0,0.0,0.0,0.0,0.0,0.0,0.0,0.0,0.0,0.0,0.0,0.0,0.0,0.0,0.0,0.0,2.3131,2.4754,2.5311,2.5451,2.5256,2.1857,1.9347,0.0,0.0,0.0,0.0,0.0,0.0,0.0,0.0,0.0,0.0,0.0,0.0,0.0,0.0,0.0,0.0,0.0,0.0,0.0,0.0,0.0,0.0,0.0,0.0,0.0,0.0,0.0,0.0,0.0,0.0,0.0,0.0,0.0,0.0,0.0,0.0,0.0,0.0,0.0,0.0,0.0,0.0,0.0,0.0,0.0,0.0,0.0,0.0,1.2667,0.0,0.0,0.0,0.0,0.0,0.0,0.0,0.0,0.0,0.0,0.0,0.0,0.0,0.0,0.0,0.0,0.0,0.0,0.0,0.0,0.0,0.0,0.0,0.0,0.0,0.0,0.0,0.0,0.0,0.0,0.0,0.0,0.0,0.0,0.0,0.0,0.0,0.0,0.0,0.0,0.0,0.0,0.0,0.0,0.0,0.0,0.0,0.0,0.0,0.0,0.0,0.0,0.0,0.0,0.0,0.0,0.0,0.0,0.0,2.1236,2.2647,2.395,2.4205,2.3198,2.0053,1.7609,0.0,0.0,0.0,0.0,0.0,0.0,0.0,0.0,0.0,0.0,0.0,0.0,0.0,0.0,0.0,0.0,0.0,0.0,0.0,0.0,0.0,0.0,0.0,0.0,0.0,0.0,0.0,0.0,0.0,0.0,0.0,0.0,0.0,0.0,0.0,0.0,0.0,0.0,0.0,0.0,0.0,0.0,0.0,0.0,0.0,0.0,0.0,0.0,0.0,0.0,0.0,0.0,0.0,0.0,0.0,0.0,0.0,0.0,0.0,0.0,0.0,0.0,0.0,0.0,0.0,0.0,0.0,0.0,0.0,0.0,0.0,0.0,0.0,0.0,0.0,0.0,0.0,0.0,0.0,0.0,0.0,0.0,0.0,0.0,0.0,0.0,0.0,0.0,0.0,0.0,0.0,0.0,0.0,0.0,0.0,0.0,0.0,0.0,0.0,0.0,0.0,0.0,0.0,0.0,0.0,0.0,0.0,0.0,1.8924,2.0184,2.1526,2.1255,1.9262,1.7249,1.5532,0.0,0.0,0.0,0.0,0.0,0.0,0.0,0.0,0.0,0.0,0.0,0.0,0.0,0.0,0.0,0.0,0.0,0.0,0.0,0.0,0.0,0.0,0.0,0.0,0.0,0.0,0.0,0.0,0.0,0.0,0.0,0.0,0.0,0.0,0.0,0.0,0.0,0.0,0.0,0.0,0.0,0.0,0.0,0.0,0.0,0.0,0.0,0.0,0.0,0.0,0.0,0.0,0.0,0.0,0.0,0.0,0.0,0.0,0.0,0.0,0.0,0.0,0.0,0.0,0.0,0.0,0.0,0.0,0.0,0.0,0.0,0.0,0.0,0.0,0.0,0.0,0.0,0.0,0.0,0.0,0.0,0.0,0.0,0.0,0.0,0.0,0.0,0.0,0.0,0.0,0.0,0.0,0.0,0.0,0.0,0.0,0.0,0.0,0.0,0.0,0.0,0.0,0.0,0.0,0.0,0.0,0.0,0.0,0.0,1.7905,1.8529,1.7834,1.5817,1.4762,1.3642,0.0,0.0,0.0,0.0,0.0,0.0,0.0,0.0,0.0,0.0,0.0,0.0,0.0,0.0,0.0,0.0,0.0,0.0,0.0,0.0,0.0,0.0,0.0,0.0,0.0,0.0,0.0,0.0,0.0,0.0,0.0,0.0,0.0,0.0,0.0,0.0,0.0,0.0,0.0,0.0,0.0,0.0,0.0,0.0,0.0,0.0,0.0,0.0,0.0,0.0,0.0,0.0,0.0,0.0,0.0,0.0,0.0,0.0,0.0,0.0,0.0,0.0,0.0,0.0,0.0,0.0,0.0,0.0,0.0,0.0,0.0,0.0,0.0,0.0,0.0,0.0,0.0,0.0,0.0,0.0,0.0,0.0,0.0,0.0,0.0,0.0,0.0,0.0,0.0,0.0,0.0,0.0,0.0,0.0,0.0,0.0,0.0,0.0,0.0,0.0,0.0,0.0,0.0,0.0,0.0,0.0,0.0,0.0,0.0,1.6093,1.4833,1.404,1.357,1.3047,1.2103,0.0,0.0,0.0,0.0,0.0,0.0,0.0,0.0,0.0,0.0,0.0,0.0,0.0,0.0,0.0,0.0,0.0,0.0,0.0,0.0,0.0,0.0,0.0,0.0,0.0,0.0,0.0,0.0,0.0,0.0,0.0,0.0,0.0,0.0,0.0,0.0,0.0,0.0,0.0,0.0,0.0,0.0,0.0,0.0,0.0,0.0,0.0,0.0,0.0,0.0,0.0,0.0,0.0,0.0,0.0,0.0,0.0,0.0,0.0,0.0,0.0,0.0,0.0,0.0,0.0,0.0,0.0,0.0,0.0,0.0,0.0,0.0,0.0,0.0,0.0,0.0,0.0,0.0,0.0,0.0,0.0,0.0,0.0,0.0,0.0,0.0,0.0,0.0,0.0,0.0,0.0,0.0,0.0,0.0,0.0,0.0,0.0,0.0,0.0,0.0,0.0,0.0,0.0,0.0,0.0,0.0,0.0,0.0,0.0,1.2498,1.2167,1.1854,1.1564,1.1146,1.0446,0.9418,0.0,0.0,0.0,0.0,0.0,0.0,0.0,0.0,0.0,0.0,0.0,0.0,0.0,0.0,0.0,0.0,0.0,0.0,0.0,0.0,0.0,0.0,0.0,0.0,0.0,0.0,0.0,0.0,0.0,0.0,0.0,0.0,0.0,0.0,0.0,0.0,0.0,0.0,0.0,0.0,0.0,0.0,0.0,0.0,0.0,0.0,0.0,0.0,0.0,0.0,0.0,0.0,0.0,0.0,0.0,0.0,0.0,0.0,0.0,0.0,0.0,0.0,0.0,0.0,0.0,0.0,0.0,0.0,0.0,0.0,0.0,0.0,0.0,0.0,0.0,0.0,0.0,0.0,0.0,0.0,0.0,0.0,0.0,0.0,0.0,0.0,0.0,0.0,0.0,0.0,0.0,0.0,0.0,0.0,0.0,0.0,0.0,0.0,0.0,0.0,0.0,0.0,0.0,0.0,0.0,0.0,0.0,0.0,0.9793,1.005,1.0086,0.9787,0.9517,0.9043,0.0,0.0,0.0,0.0,0.0,0.0,0.0,0.0,0.0,0.0,0.0,0.0,0.0,0.0,0.0,0.0,0.0,0.0,0.0,0.0,0.0,0.0,0.0,0.0,0.0,0.0,0.0,0.0,0.0,0.0,0.0,0.0,0.0,0.0,0.0,0.0,0.0,0.0,0.0,0.0,0.0,0.0,0.0,0.0,0.0,0.0,0.0,0.0,0.0,0.0,0.0,0.0,0.0,0.0,0.0,0.0,0.0,0.0,0.0,0.0,0.0,0.0,0.0,0.0,0.0,0.0,0.0,0.0,0.0,0.0,0.0,0.0,0.0,0.0,0.0,0.0,0.0,0.0,0.0,0.0,0.0,0.0,0.0,0.0,0.0,0.0,0.0,0.0,0.0,0.0,0.0,0.0,0.0,0.0,0.0,0.0,0.0,0.0,0.0,0.0,0.0,0.0,0.0,0.0,0.0,0.0,0.0,0.0,0.7955,0.8204,0.8597,0.8637,0.8185,0.821,0.7948,0.0,0.0,0.0,0.0,0.0,0.0,0.0,0.0,0.0,0.0,0.0,0.0,0.0,0.0,0.0,0.0,0.0,0.0,0.0,0.0,0.0,0.0,0.0,0.0,0.0,0.0,0.0,0.0,0.0,0.0,0.0,0.0,0.0,0.0,0.0,0.0,0.0,0.0,0.0,0.0,0.0,0.0,0.0,0.0,0.0,0.0,0.0,0.0,0.0,0.0,0.0,0.0,0.0,0.0,0.0,0.0,0.0,0.0,0.0,0.0,0.0,0.0,0.0,0.0,0.0,0.0,0.0,0.0,0.0,0.0,0.0,0.0,0.0,0.0,0.0,0.0,0.0,0.0,0.0,0.0,0.0,0.0,0.0,0.0,0.0,0.0,0.0,0.0,0.0,0.0,0.0,0.0,0.0,0.0,0.0,0.0,0.0,0.0,0.0,0.0,0.0,0.0,0.0,0.0,0.0,0.0,0.0,0.0,0.0,0.7637,0.0,0.7963,0.0,0.747,0.7192,0.0,0.0,0.0,0.0,0.0,0.0,0.0,0.0,0.0,0.0,0.0,0.0,0.0,0.0,0.0,0.0,0.0,0.0,0.0,0.0,0.0,0.0,0.0,0.0,0.0,0.0,0.0,0.0,0.0,0.0,0.0,0.0,0.0,0.0,0.0,0.0,0.0,0.0,0.0,0.0,0.0,0.0,0.0,0.0,0.0,0.0,0.0,0.0,0.0,0.0,0.0,0.0,0.0,0.0,0.0,0.0,0.0,0.0,0.0,0.0,0.0,0.0,0.0,0.0,0.0,0.0,0.0,0.0,0.0,0.0,0.0,0.0,0.0,0.0,0.0,0.0,0.0,0.0,0.0,0.0,0.0,0.0,0.0,0.0,0.0,0.0,0.0,0.0,0.0,0.0,0.0,0.0,0.0,0.0,0.0,0.0,0.0,0.0,0.0,0.0,0.0,0.0,0.0,0.0,0.0,0.0,0.0,0.0,0.0,0.7253,0.7416,0.7346,0.7062,0.6785,0.6518,0.0,0.0,0.0,0.0,0.0,0.0,0.0,0.0,0.0,0.0,0.0,0.0,0.0,0.0,0.0,0.0,0.0,0.0,0.0,0.0,0.0,0.0,0.0,0.0,0.0,0.0,0.0,0.0,0.0,0.0,0.0,0.0,0.0,0.0,0.0,0.0,0.0,0.0,0.0,0.0,0.0,0.0,0.0,0.0,0.0,0.0,0.0,0.0,0.0,0.0,0.0,0.0,0.0,0.0,0.0,0.0,0.0,0.0,0.0,0.0,0.0,0.0,0.0,0.0,0.0,0.0,0.0,0.0,0.0,0.0,0.0,0.0,0.0,0.0,0.0,0.0,0.0,0.0,0.0,0.0,0.0,0.0,0.0,0.0,0.0,0.0,0.0,0.0,0.0,0.0,0.0,0.0,0.0,0.0,0.0,0.0,0.0,0.0,0.0,0.0,0.0,0.0,0.0,0.0,0.0,0.0,0.0,0.0,0.0,0.0,0.6944,0.6785,0.6438,0.612,0.6001,0.0,0.0,0.0,0.0,0.0,0.0,0.0,0.0,0.0,0.0,0.0,0.0,0.0,0.0,0.0,0.0,0.0,0.0,0.0,0.0,0.0,0.0,0.0,0.0,0.0,0.0,0.0,0.0,0.0,0.0,0.0,0.0,0.0,0.0,0.0,0.0,0.0,0.0,0.0,0.0,0.0,0.0,0.0,0.0,0.0,0.0,0.0,0.0,0.0,0.0,0.0,0.0,0.0,0.0,0.0,0.0,0.0,0.0,0.0,0.0,0.0,0.0,0.0,0.0,0.0,0.0,0.0,0.0,0.0,0.0,0.0,0.0,0.0,0.0,0.0,0.0,0.0,0.0,0.0,0.0,0.0,0.0,0.0,0.0,0.0,0.0,0.0,0.0,0.0,0.0,0.0,0.0,0.0,0.0,0.0,0.0,0.0,0.0,0.0,0.0,0.0,0.0,0.0,0.0,0.0,0.0,0.0,0.0,0.0,0.0,0.6291,0.6229,0.615,0.5857,0.5749,0.5749,0.0,0.0,0.0,0.0,0.0,0.0,0.0,0.0,0.0,0.0,0.0,0.0,0.0,0.0,0.0,0.0,0.0,0.0,0.0,0.0,0.0,0.0,0.0,0.0,0.0,0.0,0.0,0.0,0.0,0.0,0.0,0.0,0.0,0.0,0.0,0.0,0.0,0.0,0.0,0.0,0.0,0.0,0.0,0.0,0.0,0.0,0.0,0.0,0.0,0.0,0.0,0.0,0.0,0.0,0.0,0.0,0.0,0.0,0.0,0.0,0.0,0.0,0.0,0.0,0.0,0.0,0.0,0.0,0.0,0.0,0.0,0.0,0.0,0.0,0.0,0.0,0.0,0.0,0.0,0.0,0.0,0.0,0.0,0.0,0.0,0.0,0.0,0.0,0.0,0.0,0.0,0.0,0.0,0.0,0.0,0.0,0.0,0.0,0.0,0.0,0.0,0.0,0.0,0.0,0.0,0.0,0.0,0.0,0.0,0.0,0.5957,0.5784,0.562,0.55,0.0,0.0,0.0,0.0,0.0,0.0,0.0,0.0,0.0,0.0,0.0,0.0,0.0,0.0,0.0,0.0,0.0,0.0,0.0,0.0,0.0,0.0,0.0,0.0,0.0,0.0,0.0,0.0,0.0,0.0,0.0,0.0,0.0,0.0,0.0,0.0,0.0,0.0,0.0,0.0,0.0,0.0,0.0,0.0,0.0,0.0,0.0,0.0,0.0,0.0,0.0,0.0,0.0,0.0,0.0,0.0,0.0,0.0,0.0,0.0,0.0,0.0,0.0,0.0,0.0,0.0,0.0,0.0,0.0,0.0,0.0,0.0,0.0,0.0,0.0,0.0,0.0,0.0,0.0,0.0,0.0,0.0,0.0,0.0,0.0,0.0,0.0,0.0,0.0,0.0,0.0,0.0,0.0,0.0,0.0,0.0,0.0,0.0,0.0,0.0,0.0,0.0,0.0,0.0,0.0,0.0,0.0,0.0,0.0,0.0,0.0,0.5745,0.5395,0.5361,0.0,0.4898,0.0,0.0,0.0,0.0,0.0,0.0,0.0,0.0,0.0,0.0,0.0,0.0,0.0,0.0,0.0,0.0,0.0,0.0,0.0,0.0,0.0,0.0,0.0,0.0,0.0,0.0,0.0,0.0,0.0,0.0,0.0,0.0,0.0,0.0,0.0,0.0,0.0,0.0,0.0,0.0,0.0,0.0,0.0,0.0,0.0,0.0,0.0,0.0,0.0,0.0,0.0,0.0,0.0,0.0,0.0,0.0,0.0,0.0,0.0,0.0,0.0,0.0,0.0,0.0,0.0,0.0,0.0,0.0,0.0,0.0,0.0,0.0,0.0,0.0,0.0,0.0,0.0,0.0,0.0,0.0,0.0,0.0,0.0,0.0,0.0,0.0,0.0,0.0,0.0,0.0,0.0,0.0,0.0,0.0,0.0,0.0,0.0,0.0,0.0,0.0,0.0,0.0,0.0,0.0,0.0,0.0,0.0,0.0,0.0,0.0,0.0,0.0,0.4902,0.478,0.4728,0.0,0.0,0.0,0.0,0.0,0.0,0.0,0.0,0.0,0.0,0.0,0.0,0.0,0.0,0.0,0.0,0.0,0.0,0.0,0.0,0.0,0.0,0.0,0.0,0.0,0.0,0.0,0.0,0.0,0.0,0.0,0.0,0.0,0.0,0.0,0.0,0.0,0.0,0.0,0.0,0.0,0.0,0.0,0.0,0.0,0.0,0.0,0.0,0.0,0.0,0.0,0.0,0.0,0.0,0.0,0.0,0.0,0.0,0.0,0.0,0.0,0.0,0.0,0.0,0.0,0.0,0.0,0.0,0.0,0.0,0.0,0.0,0.0,0.0,0.0,0.0,0.0,0.0,0.0,0.0,0.0,0.0,0.0,0.0,0.0,0.0,0.0,0.0,0.0,0.0,0.0,0.0,0.0,0.0,0.0,0.0,0.0,0.0,0.0,0.0,0.0,0.0,0.0,0.0,0.0,0.0,0.0,0.0,0.0,0.0,0.4809,0.4692,0.4627,0.4567,0.4571,0.0,0.0,0.0,0.0,0.0,0.0,0.0,0.0,0.0,0.0,0.0,0.0,0.0,0.0,0.0,0.0,0.0,0.0,0.0,0.0,0.0,0.0,0.0,0.0,0.0,0.0,0.0,0.0,0.0,0.0,0.0,0.0,0.0,0.0,0.0,0.0,0.0,0.0,0.0,0.0,0.0,0.0,0.0,0.0,0.0,0.0,0.0,0.0,0.0,0.0,0.0,0.0,0.0,0.0,0.0,0.0,0.0,0.0,0.0,0.0,0.0,0.0,0.0,0.0,0.0,0.0,0.0,0.0,0.0,0.0,0.0,0.0,0.0,0.0,0.0,0.0,0.0,0.0,0.0,0.0,0.0,0.0,0.0,0.0,0.0,0.0,0.0,0.0,0.0,0.0,0.0,0.0,0.0,0.0,0.0,0.0,0.0,0.0,0.0,0.0,0.0,0.0,0.0,0.0,0.0,0.0,0.0,0.0,0.0,0.0,0.0,0.0,0.0,0.0,0.4404,0.0,0.0,0.0,0.0,0.0,0.0,0.0,0.0,0.0,0.0,0.0,0.0,0.0,0.0,0.0,0.0,0.0,0.0,0.0,0.0,0.0,0.0,0.0,0.0,0.0,0.0,0.0,0.0,0.0,0.0,0.0,0.0,0.0,0.0,0.0,0.0,0.0,0.0,0.0,0.0,0.0,0.0,0.0,0.0,0.0,0.0,0.0,0.0,0.0,0.0,0.0,0.0,0.0,0.0,0.0,0.0,0.0,0.0,0.0,0.0,0.0,0.0,0.0,0.0,0.0,0.0,0.0,0.0,0.0,0.0,0.0,0.0,0.0,0.0,0.0,0.0,0.0,0.0,0.0,0.0,0.0,0.0,0.0,0.0,0.0,0.0,0.0,0.0,0.0,0.0,0.0,0.0,0.0,0.0,0.0,0.0,0.0,0.0,0.0,0.0,0.0,0.0,0.0,0.0,0.0,0.0,0.0,0.0,0.0,0.0,0.0,0.0,0.0,0.0,0.0,0.0,0.0,0.0,0.0,0.0,0.0,0.0,0.0,0.0,0.0,0.0,0.0,0.0,0.0,0.0,0.0,0.0,0.0,0.0,0.0,0.0,0.0,0.0,0.0,0.0,0.0,0.0,0.0,0.0,0.0,0.0,0.0,0.0,0.0,0.0,0.0,0.0,0.0,0.0,0.0,0.0,0.0,0.0,0.0,0.0,0.0,0.0,0.0,0.0,0.0,0.0,0.0,0.0,0.0,0.0,0.0,0.0,0.0,0.0,0.0,0.0,0.0,0.0,0.0,0.0,0.0,0.0,0.0,0.0,0.0,0.0,0.0,0.0,0.0,0.0,0.0,0.0,0.0,0.0,0.0,0.0,0.0,0.0,0.0,0.0,0.0,0.0,0.0,0.0,0.0,0.0,0.0,0.0,0.0,0.0,0.0,0.0,0.0,0.0,0.0,0.0,0.0,0.0,0.0,0.0,0.0,0.0,0.0,0.0,0.0,0.0,0.0,0.0,0.0,0.0,0.0,0.0,0.0,0.0,0.0,0.0,0.0,0.0,0.0,0.0,0.0,0.0,0.0,0.0,0.0,0.0,0.0,0.0,0.0,0.0,0.0,0.0,0.0,0.0,0.0,0.0,0.0,0.0,0.0,0.0,0.0,0.0,0.0,0.0,0.0,0.0,0.0,0.0,0.0,0.0,0.0,0.0,0.0,0.0,0.0,0.0,0.0,0.0,0.0,0.0,0.0,0.0,0.0,0.0,0.0,0.0,0.0,0.0,0.0,0.0,0.0,0.0,0.0,0.0,0.0,0.0,0.0,0.0,0.0,0.0,0.0,0.0,0.0,0.0,0.0,0.0,0.0,0.0,0.0,0.0,0.0,0.0,0.0,0.0,0.0,0.0,0.0,0.0,0.0,0.0,0.0,0.0,0.0,0.0,0.0,0.0,0.0,0.0,0.0,0.0,0.0,0.0,0.0,0.0,0.0,0.0,0.0,0.0,0.0,0.0,0.0,0.0,0.0,0.0,0.0,0.0,0.0,0.0,0.0,0.0,0.0,0.0,0.0,0.0,0.0,0.0,0.0,0.0,0.0,0.0,0.0,0.0,0.0,0.0,0.0,0.0,0.0,0.0,0.0,0.0,0.0,0.0,0.0,0.0,0.0,0.0,0.0,0.0,0.0,0.0,0.0,0.0,0.0,0.0,0.0,0.0,0.0,0.0,0.0,0.0,0.0,0.0,0.0,0.0,0.0,0.0,0.0,0.0,0.0,0.0,0.0,0.0,0.0,0.0,0.0,0.0,0.0,0.0,0.0,0.0,0.0,0.0,0.0,0.0,0.0,0.0,0.0,0.0,0.0,0.0,0.0,0.0,0.0,0.0,0.0,0.0,0.0,0.0,0.0,0.0,0.0,0.0,0.0,0.0,0.0,0.0,0.0,0.0,0.0,0.0,0.0,0.0,0.0,0.0,0.0,0.0,0.0,0.0,0.0,0.0,0.0,0.0,0.0,0.0,0.0,0.0,0.0,0.0,0.0,0.0,0.0,0.0,0.0,0.0,0.0,0.0,0.0,0.0,0.0,0.0,0.0,0.0,0.0,0.0,0.0,0.0,0.0,0.0,0.0,0.0,0.0,0.0,0.0,0.0,0.0,0.0,0.0,0.0,0.0,0.0,0.0,0.0,0.0,0.0,0.0,0.0,0.0,0.0,0.0,0.0,0.0,0.0,0.0,0.0,0.0,0.0,0.0,0.0,0.0,0.0,0.0,0.0,0.0,0.0,0.0,0.0,0.0,0.0,0.0,0.0,0.0,0.0,0.0,0.0,0.0,0.0,0.0,0.0,0.0,0.0,0.0,0.0,0.0,0.0,0.0,0.0,0.0,0.0,0.0,0.0,0.0,0.0,0.0,0.0,0.0,0.0,0.0,0.0,0.0,0.0,0.0,0.0,0.0,0.0,0.0,0.0,0.0,0.0,0.0,0.0,0.0,0.0,0.0,0.0,0.0,0.0,0.0,0.0,0.0,0.0,0.0,0.0,0.0,0.0,0.0,0.0,0.0,0.0,0.0,0.0,0.0,0.0,0.0,0.0,0.0,0.0,0.0,0.0,0.0,0.0,0.0,0.0,0.0,0.0,0.0,0.0,0.0,0.0,0.0,0.0,0.0,0.0,0.0,0.0,0.0,0.0,0.0,0.0,0.0,0.0,0.0,0.0,0.0,0.0,0.0,0.0,0.0,0.0,0.0,0.0,0.0,0.0,0.0,0.0,0.0,0.0,0.0,0.0,0.0,0.0,0.0,0.0,0.0,0.0,0.0,0.0,0.0,0.0,0.0,0.0,0.0,0.0,0.0,0.0,0.0,0.0,0.0,0.0,0.0,0.0,0.0,0.0,0.0,0.0,0.0,0.0,0.0,0.0,0.0,0.0,0.0,0.0,0.0,0.0,0.0,0.0,0.0,0.0,0.0,0.0,0.0,0.0,0.0,0.0,0.0,0.0,0.0,0.0,0.0,0.0,0.0,0.0,0.0,0.0,0.0,0.0,0.0,0.0,0.0,0.0,0.0,0.0,0.0,0.0,0.0,0.0,0.0,0.0,0.0,0.0,0.0,0.0,0.0,0.0,0.0,0.0,0.0,0.0,0.0,0.0,0.0,0.0,0.0,0.0,0.0,0.0,0.0,0.0,0.0,0.0,0.0,0.0,0.0,0.0,0.0,0.0,0.0,0.0,0.0,0.0,0.0,0.0,0.0,0.0,0.0,0.0,0.0,0.0,0.0,0.0,0.0,0.0,0.0,0.0,0.0,0.0,0.0,0.0,0.0,0.0,0.0,0.0,0.0,0.0,0.0,0.0,0.0,0.0,0.0,0.0,0.0,0.0,0.0,0.0,0.0,0.0,0.0,0.0,0.0,0.0,0.0,0.0,0.0,0.0,0.0,0.0,0.0,0.0,0.0,0.0,0.0,0.0,0.0,0.0,0.0,0.0,0.0,0.0,0.0,0.0,0.0,0.0,0.0,0.0,0.0,0.0,0.0,0.0,0.0,0.0,0.0,0.0,0.0,0.0,0.0,0.0,0.0,0.0,0.0,0.0,0.0,0.0,0.0,0.0,0.0,0.0,0.0,0.0,0.0,0.0,0.0,0.0,0.0,0.0,0.0,0.0,0.0,0.0,0.0,0.0,0.0,0.0,0.0,0.0,0.0,0.0,0.0,0.0,0.0,0.0,0.0,0.0,0.0,0.0,0.0,0.0,0.0,0.0,0.0,0.0,0.0,0.0,0.0,0.0,0.0,0.0,0.0,0.0,0.0,0.0,0.0,0.0,0.0,0.0,0.0,0.0,0.0,0.0,0.0,0.0,0.0,0.0,0.0,0.0,0.0,0.0,0.0,0.0,0.0,0.0,0.0,0.0,0.0,0.0,0.0,0.0,0.0,0.0,0.0,0.0,0.0,0.0,0.0,0.0,0.0,0.0,0.0,0.0,0.0,0.0,0.0,0.0,0.0,0.0,0.0,0.0,0.0,0.0,0.0,0.0,0.0,0.0,0.0,0.0,0.0,0.0,0.0,0.0,0.0,0.0,0.0,0.0,0.0,0.0,0.0,0.0,0.0,0.0,0.0,0.0,0.0,0.0,0.0,0.0,0.0,0.0,0.0,0.0,0.0,0.0,0.0,0.0,0.0,0.0,0.0,0.0,0.0,0.0,0.0,0.0,0.0,0.0,0.0,0.0,0.0,0.0,0.0,0.0,0.0,0.0,0.0,0.0,0.0,0.0,0.0,0.0,0.0,0.0,0.0,0.0,0.0,0.0,0.0,0.0,0.0,0.0,0.0,0.0,0.0,0.0,0.0,0.0,0.0,0.0,0.0,0.0,0.0,0.0]}]]]